[[{"header":{"parameterUnit":"m.s-1","parameterCategory":1,"la1":30.6,"la2":28.766,"lo1":-90.7593,"lo2":-88.6598,"dy":0.0162,"dx":0.0183,"nx":116,"ny":114,"refTime":"2023-06-15T00:00:00:Z","depth":0,"parameterNumber":2,"parameterNumberName":"U-component_of_WINDS"},"data":[0.0,0.0,0.0,0.0,0.0,0.0,0.0,0.0,0.0,0.0,0.0,0.0,0.0,0.0,0.0,0.0,0.0,0.0,0.0,0.0,0.0,0.0,0.0,0.0,0.0,0.0,0.0,0.0,0.0,0.0,0.0,0.0,0.0,0.0,0.0,0.0,0.0,0.0,0.0,0.0,0.0,0.0,0.0,0.0,0.0,0.0,0.0,0.0,0.0,0.0,0.0,0.0,0.0,0.0,0.0,0.0,0.0,0.0,0.0,0.0,0.0,0.0,0.0,0.0,0.0,0.0,0.0,0.0,0.0,0.0,0.0,0.0,0.0,0.0,0.0,0.0,0.0,0.0,0.0,0.0,0.0,0.0,0.0,0.0,0.0,0.0,0.0,0.0,0.0,0.0,0.0,0.0,0.0,0.0,0.0,0.0,0.0,0.0,0.0,0.0,0.0,0.0,0.0,0.0,0.0,0.0,0.0,0.0,0.0,0.0,0.0,0.0,0.0,0.0,0.0,0.0,0.0,0.0,0.0,0.0,0.0,0.0,0.0,0.0,0.0,0.0,0.0,0.0,0.0,0.0,0.0,0.0,0.0,0.0,0.0,0.0,0.0,0.0,0.0,0.0,0.0,0.0,0.0,0.0,0.0,0.0,0.0,0.0,0.0,0.0,0.0,0.0,0.0,0.0,0.0,0.0,0.0,0.0,0.0,0.0,0.0,0.0,0.0,0.0,0.0,0.0,0.0,0.0,0.0,0.0,0.0,0.0,0.0,0.0,0.0,0.0,0.0,0.0,0.0,0.0,0.0,0.0,0.0,0.0,0.0,0.0,0.0,0.0,0.0,0.0,0.0,0.0,0.0,0.0,0.0,0.0,0.0,0.0,0.0,0.0,0.0,0.0,0.0,0.0,0.0,0.0,0.0,0.0,0.0,0.0,0.0,0.0,0.0,0.0,0.0,0.0,0.0,0.0,0.0,0.0,0.0,0.0,0.0,0.0,0.0,0.0,0.0,0.0,0.0,0.0,0.0,0.0,0.0,0.0,0.0,0.0,0.0,0.0,0.0,0.0,0.0,0.0,0.0,0.0,0.0,0.0,0.0,0.0,0.0,0.0,0.0,0.0,0.0,0.0,0.0,0.0,0.0,0.0,0.0,0.0,0.0,0.0,0.0,0.0,0.0,0.0,0.0,0.0,0.0,0.0,0.0,0.0,0.0,0.0,0.0,0.0,0.0,0.0,0.0,0.0,0.0,0.0,0.0,0.0,0.0,0.0,0.0,0.0,0.0,0.0,0.0,0.0,0.0,0.0,0.0,0.0,0.0,0.0,0.0,0.0,0.0,0.0,0.0,0.0,0.0,0.0,0.0,0.0,0.0,0.0,0.0,0.0,0.0,0.0,0.0,0.0,0.0,0.0,0.0,0.0,0.0,0.0,0.0,0.0,0.0,0.0,0.0,0.0,0.0,0.0,0.0,0.0,0.0,0.0,0.0,0.0,0.0,0.0,0.0,0.0,0.0,0.0,0.0,0.0,0.0,0.0,0.0,0.0,0.0,0.0,0.0,0.0,0.0,0.0,0.0,0.0,0.0,0.0,0.0,0.0,0.0,0.0,0.0,0.0,0.0,0.0,0.0,0.0,0.0,0.0,0.0,0.0,0.0,0.0,0.0,0.0,0.0,0.0,0.0,0.0,0.0,0.0,0.0,0.0,0.0,0.0,0.0,0.0,0.0,0.0,0.0,0.0,0.0,0.0,0.0,0.0,0.0,0.0,0.0,0.0,0.0,0.0,0.0,0.0,0.0,0.0,0.0,0.0,0.0,0.0,0.0,0.0,0.0,0.0,0.0,0.0,0.0,0.0,0.0,0.0,0.0,0.0,0.0,0.0,0.0,0.0,0.0,0.0,0.0,0.0,0.0,0.0,0.0,0.0,0.0,0.0,0.0,0.0,0.0,0.0,0.0,0.0,0.0,0.0,0.0,0.0,0.0,0.0,0.0,0.0,0.0,0.0,0.0,0.0,0.0,0.0,0.0,0.0,0.0,0.0,0.0,0.0,0.0,0.0,0.0,0.0,0.0,0.0,0.0,0.0,0.0,0.0,0.0,0.0,0.0,0.0,0.0,0.0,0.0,0.0,0.0,0.0,0.0,0.0,0.0,0.0,0.0,0.0,0.0,0.0,0.0,0.0,0.0,0.0,0.0,0.0,0.0,0.0,0.0,0.0,0.0,0.0,0.0,0.0,0.0,0.0,0.0,0.0,0.0,0.0,0.0,0.0,0.0,0.0,0.0,0.0,0.0,0.0,0.0,0.0,0.0,0.0,0.0,0.0,0.0,0.0,0.0,0.0,0.0,0.0,0.0,0.0,0.0,0.0,0.0,0.0,0.0,0.0,0.0,0.0,0.0,0.0,0.0,0.0,0.0,0.0,0.0,0.0,0.0,0.0,0.0,0.0,0.0,0.0,0.0,0.0,0.0,0.0,0.0,0.0,0.0,0.0,0.0,0.0,0.0,0.0,0.0,0.0,0.0,0.0,0.0,0.0,0.0,0.0,0.0,0.0,0.0,0.0,0.0,0.0,0.0,0.0,0.0,0.0,0.0,0.0,0.0,0.0,0.0,0.0,0.0,0.0,0.0,0.0,0.0,0.0,0.0,0.0,0.0,0.0,0.0,0.0,0.0,0.0,0.0,0.0,0.0,0.0,0.0,0.0,0.0,0.0,0.0,0.0,0.0,0.0,0.0,0.0,0.0,0.0,0.0,0.0,0.0,0.0,0.0,0.0,0.0,0.0,0.0,0.0,0.0,0.0,0.0,0.0,0.0,0.0,0.0,0.0,0.0,0.0,0.0,0.0,0.0,0.0,0.0,0.0,0.0,0.0,0.0,0.0,0.0,0.0,0.0,0.0,0.0,0.0,0.0,0.0,0.0,0.0,0.0,0.0,0.0,0.0,0.0,0.0,0.0,0.0,0.0,0.0,0.0,0.0,0.0,0.0,0.0,0.0,0.0,0.0,0.0,0.0,0.0,0.0,0.0,0.0,0.0,0.0,0.0,0.0,0.0,0.0,0.0,0.0,0.0,0.0,0.0,0.0,0.0,0.0,0.0,0.0,0.0,0.0,0.0,0.0,0.0,0.0,0.0,0.0,0.0,0.0,0.0,0.0,0.0,0.0,0.0,0.0,0.0,0.0,0.0,0.0,0.0,0.0,0.0,0.0,0.0,0.0,0.0,0.0,0.0,0.0,0.0,0.0,0.0,0.0,0.0,0.0,0.0,0.0,0.0,0.0,0.0,0.0,0.0,0.0,0.0,0.0,0.0,0.0,0.0,0.0,0.0,0.0,0.0,0.0,0.0,0.0,0.0,0.0,0.0,0.0,0.0,0.0,0.0,0.0,0.0,0.0,0.0,0.0,0.0,0.0,0.0,0.0,0.0,0.0,0.0,0.0,0.0,0.0,0.0,0.0,0.0,0.0,0.0,0.0,0.0,0.0,0.0,0.0,0.0,0.0,0.0,0.0,0.0,0.0,0.0,0.0,0.0,0.0,0.0,0.0,0.0,0.0,0.0,0.0,0.0,0.0,0.0,0.0,0.0,0.0,0.0,0.0,0.0,0.0,0.0,0.0,0.0,0.0,0.0,0.0,0.0,0.0,0.0,0.0,0.0,0.0,0.0,0.0,0.0,0.0,0.0,0.0,0.0,0.0,0.0,0.0,0.0,0.0,0.0,0.0,0.0,0.0,0.0,0.0,0.0,0.0,0.0,0.0,0.0,0.0,0.0,0.0,0.0,0.0,0.0,0.0,0.0,0.0,0.0,0.0,0.0,0.0,0.0,0.0,0.0,0.0,0.0,0.0,0.0,0.0,0.0,0.0,0.0,0.0,0.0,0.0,0.0,0.0,0.0,0.0,0.0,0.0,0.0,0.0,0.0,0.0,0.0,0.0,0.0,0.0,0.0,0.0,0.0,0.0,0.0,0.0,0.0,0.0,0.0,0.0,0.0,0.0,0.0,0.0,0.0,0.0,0.0,0.0,0.0,0.0,0.0,0.0,0.0,0.0,0.0,0.0,0.0,0.0,0.0,0.0,0.0,0.0,0.0,0.0,0.0,0.0,0.0,0.0,0.0,0.0,0.0,0.0,0.0,0.0,0.0,0.0,0.0,0.0,0.0,0.0,0.0,0.0,0.0,0.0,0.0,0.0,0.0,0.0,0.0,0.0,0.0,0.0,0.0,0.0,0.0,0.0,0.0,0.0,0.0,0.0,0.0,0.0,0.0,0.0,0.0,0.0,0.0,0.0,0.0,0.0,0.0,0.0,0.0,0.0,0.0,0.0,0.0,0.0,0.0,0.0,0.0,0.0,0.0,0.0,0.0,0.0,0.0,0.0,0.0,0.0,0.0,0.0,0.0,0.0,0.0,0.0,0.0,0.0,0.0,0.0,0.0,0.0,0.0,0.0,0.0,0.0,0.0,0.0,0.0,0.0,0.0,0.0,0.0,0.0,0.0,0.0,0.0,0.0,0.0,0.0,0.0,0.0,0.0,0.0,0.0,0.0,0.0,0.0,0.0,0.0,0.0,0.0,0.0,0.0,0.0,0.0,0.0,0.0,0.0,0.0,0.0,0.0,0.0,0.0,0.0,0.0,0.0,0.0,0.0,0.0,0.0,0.0,0.0,0.0,0.0,0.0,0.0,0.0,0.0,0.0,0.0,0.0,0.0,0.0,0.0,0.0,0.0,0.0,0.0,0.0,0.0,0.0,0.0,0.0,0.0,0.0,0.0,0.0,0.0,0.0,0.0,0.0,0.0,0.0,0.0,0.0,0.0,0.0,0.0,0.0,0.0,0.0,0.0,0.0,0.0,0.0,0.0,0.0,0.0,0.0,0.0,0.0,0.0,0.0,0.0,0.0,0.0,0.0,0.0,0.0,0.0,0.0,0.0,0.0,0.0,0.0,0.0,0.0,0.0,0.0,0.0,0.0,0.0,0.0,0.0,0.0,0.0,0.0,0.0,0.0,0.0,0.0,0.0,0.0,0.0,0.0,0.0,0.0,0.0,0.0,0.0,0.0,0.0,0.0,0.0,0.0,0.0,0.0,0.0,0.0,0.0,0.0,0.0,0.0,0.0,0.0,0.0,0.0,0.0,0.0,0.0,0.0,0.0,0.0,0.0,0.0,0.0,0.0,0.0,0.0,0.0,0.0,0.0,0.0,0.0,0.0,0.0,0.0,0.0,0.0,0.0,0.0,0.0,0.0,0.0,0.0,0.0,0.0,0.0,0.0,0.0,0.0,0.0,0.0,0.0,0.0,0.0,0.0,0.0,0.0,0.0,0.0,0.0,0.0,0.0,0.0,0.0,0.0,0.0,0.0,0.0,0.0,0.0,0.0,0.0,0.0,0.0,0.0,0.0,0.0,0.0,0.0,0.0,0.0,0.0,0.0,0.0,0.0,0.0,0.0,0.0,0.0,0.0,0.0,0.0,0.0,0.0,0.0,0.0,0.0,0.0,0.0,0.0,0.0,0.0,0.0,0.0,0.0,0.0,0.0,0.0,0.0,0.0,0.0,0.0,0.0,0.0,0.0,0.0,0.0,0.0,0.0,0.0,0.0,0.0,0.0,0.0,0.0,0.0,0.0,0.0,0.0,0.0,0.0,0.0,0.0,0.0,0.0,0.0,0.0,0.0,0.0,0.0,0.0,0.0,0.0,0.0,0.0,0.0,0.0,0.0,0.0,0.0,0.0,0.0,0.0,0.0,0.0,0.0,0.0,0.0,0.0,0.0,0.0,0.0,0.0,0.0,0.0,0.0,0.0,0.0,0.0,0.0,0.0,0.0,0.0,0.0,0.0,0.0,0.0,0.0,0.0,0.0,0.0,0.0,0.0,0.0,0.0,0.0,0.0,0.0,0.0,0.0,0.0,0.0,0.0,0.0,0.0,0.0,0.0,0.0,0.0,0.0,0.0,0.0,0.0,0.0,0.0,0.0,0.0,0.0,0.0,0.0,0.0,0.0,0.0,0.0,0.0,0.0,0.0,0.0,0.0,0.0,0.0,0.0,0.0,0.0,0.0,0.0,0.0,0.0,0.0,0.0,0.0,0.0,0.0,0.0,0.0,0.0,0.0,-4.9989,0.0,0.0,0.0,0.0,0.0,0.0,0.0,0.0,0.0,0.0,0.0,0.0,0.0,0.0,0.0,0.0,0.0,0.0,0.0,0.0,0.0,0.0,0.0,0.0,0.0,0.0,0.0,0.0,0.0,0.0,0.0,0.0,0.0,0.0,0.0,0.0,0.0,0.0,0.0,0.0,0.0,0.0,0.0,0.0,0.0,0.0,0.0,0.0,0.0,0.0,0.0,0.0,0.0,0.0,0.0,0.0,0.0,0.0,0.0,0.0,0.0,0.0,0.0,0.0,0.0,0.0,0.0,0.0,0.0,0.0,0.0,0.0,0.0,0.0,0.0,0.0,0.0,0.0,0.0,0.0,0.0,0.0,0.0,0.0,0.0,0.0,0.0,0.0,0.0,0.0,0.0,0.0,0.0,0.0,0.0,0.0,0.0,0.0,0.0,0.0,0.0,0.0,0.0,0.0,0.0,0.0,0.0,0.0,0.0,0.0,0.0,0.0,0.0,0.0,0.0,0.0,-5.0026,0.0,0.0,0.0,0.0,0.0,0.0,0.0,0.0,0.0,0.0,0.0,0.0,0.0,0.0,0.0,0.0,0.0,0.0,0.0,0.0,0.0,0.0,0.0,0.0,0.0,0.0,0.0,0.0,0.0,0.0,0.0,0.0,0.0,0.0,0.0,0.0,0.0,0.0,0.0,0.0,0.0,0.0,0.0,0.0,0.0,0.0,0.0,0.0,0.0,0.0,0.0,0.0,0.0,0.0,0.0,0.0,0.0,0.0,0.0,0.0,0.0,0.0,0.0,0.0,0.0,0.0,0.0,0.0,0.0,0.0,0.0,0.0,0.0,0.0,0.0,0.0,0.0,0.0,0.0,0.0,0.0,0.0,0.0,0.0,0.0,0.0,0.0,0.0,0.0,0.0,0.0,0.0,0.0,0.0,0.0,0.0,0.0,0.0,0.0,0.0,0.0,0.0,0.0,0.0,0.0,0.0,0.0,0.0,-5.0974,-5.1036,-5.1067,-5.1414,-5.169,-5.1748,-4.9854,-4.9704,-5.0699,-5.0655,0.0,0.0,0.0,0.0,0.0,0.0,0.0,0.0,0.0,0.0,0.0,0.0,0.0,0.0,0.0,0.0,0.0,0.0,0.0,0.0,0.0,0.0,0.0,0.0,0.0,0.0,0.0,0.0,0.0,0.0,0.0,0.0,0.0,0.0,0.0,0.0,0.0,0.0,-4.0505,-4.0505,-4.0812,-4.1432,-4.0782,0.0,0.0,0.0,0.0,0.0,0.0,0.0,0.0,0.0,0.0,0.0,0.0,0.0,0.0,0.0,0.0,0.0,0.0,0.0,0.0,0.0,0.0,0.0,0.0,0.0,0.0,0.0,0.0,0.0,0.0,0.0,0.0,0.0,0.0,0.0,0.0,0.0,0.0,0.0,0.0,0.0,0.0,0.0,-4.3211,-4.2998,0.0,0.0,0.0,0.0,0.0,0.0,0.0,0.0,0.0,0.0,0.0,0.0,0.0,-4.9551,-5.0289,-5.112,-5.1559,-5.159,-5.2175,-5.2452,-5.2407,-5.1545,-5.1698,-5.2485,-5.1099,0.0,-5.2362,-5.2121,0.0,0.0,0.0,0.0,0.0,0.0,0.0,0.0,0.0,0.0,0.0,0.0,0.0,0.0,0.0,0.0,0.0,0.0,0.0,0.0,0.0,0.0,0.0,0.0,0.0,0.0,0.0,0.0,0.0,0.0,0.0,0.0,0.0,0.0,0.0,0.0,-4.0351,-4.0689,-4.1124,-4.1124,-4.1494,-4.214,-4.1832,-4.1863,-4.2202,-4.254,0.0,0.0,0.0,0.0,0.0,0.0,0.0,0.0,0.0,0.0,0.0,0.0,0.0,0.0,0.0,0.0,0.0,0.0,0.0,0.0,0.0,0.0,0.0,0.0,0.0,0.0,0.0,0.0,0.0,0.0,0.0,0.0,0.0,0.0,0.0,0.0,0.0,0.0,0.0,-4.4381,-4.4179,-4.4075,-4.484,-4.5776,0.0,0.0,0.0,0.0,0.0,0.0,0.0,0.0,0.0,-4.8875,-4.9824,-5.0621,-5.1226,-5.1801,-5.2103,-5.2267,-5.2575,-5.2698,-5.2684,-5.2612,-5.2627,-5.2684,-5.2505,-5.2536,-5.2653,-5.2397,-5.2352,-5.2473,0.0,0.0,0.0,0.0,-5.2698,-5.2698,0.0,0.0,0.0,0.0,0.0,0.0,0.0,0.0,0.0,0.0,0.0,0.0,0.0,0.0,0.0,-3.6753,0.0,0.0,0.0,0.0,0.0,0.0,0.0,0.0,0.0,0.0,0.0,0.0,-4.0751,-4.1155,-4.1863,-4.1863,-4.2202,-4.2848,-4.2848,-4.2848,-4.2879,-4.3408,-4.3716,0.0,0.0,0.0,0.0,0.0,0.0,0.0,0.0,0.0,0.0,0.0,0.0,0.0,0.0,0.0,0.0,0.0,0.0,0.0,0.0,0.0,0.0,0.0,0.0,0.0,0.0,0.0,0.0,0.0,0.0,0.0,0.0,0.0,0.0,0.0,0.0,0.0,0.0,-4.4752,-4.4613,-4.4979,-4.5186,-4.605,0.0,0.0,0.0,0.0,0.0,0.0,-4.7702,-4.9324,-4.9912,-4.8952,-5.0571,-5.1607,-5.1937,-5.2597,-5.3009,-5.3221,-5.3221,-5.3221,-5.3252,-5.3745,-5.3668,-5.3252,-5.3775,-5.3637,-5.3145,-5.255,-5.2352,-5.2397,-5.2563,-5.2653,-5.2698,-5.2698,-5.2698,-5.2698,0.0,0.0,0.0,0.0,0.0,0.0,0.0,0.0,0.0,0.0,0.0,0.0,0.0,0.0,-3.7461,-3.7461,-3.8077,-3.8723,0.0,0.0,0.0,0.0,0.0,0.0,0.0,0.0,0.0,-4.1555,-4.1555,-4.1894,-4.2571,-4.2571,-4.291,-4.3562,-4.3562,-4.3562,-4.3562,-4.3593,-4.3963,-4.4579,0.0,0.0,0.0,0.0,0.0,0.0,0.0,0.0,0.0,0.0,0.0,0.0,0.0,0.0,0.0,0.0,0.0,0.0,0.0,0.0,0.0,0.0,0.0,0.0,0.0,0.0,0.0,0.0,0.0,0.0,0.0,0.0,0.0,0.0,0.0,0.0,0.0,0.0,0.0,-4.5167,-4.4573,0.0,0.0,0.0,0.0,-4.9122,-4.9275,-4.9522,-5.0169,-5.0342,-4.9911,-4.8837,-5.0749,-5.181,-5.1839,-5.3661,-5.4591,-5.4591,-5.4591,-5.4591,-5.4591,-5.4621,-5.4621,-5.4591,-5.4621,-5.4621,-5.4468,-5.2948,-5.2442,-5.2653,-5.2397,-5.2473,-5.2698,-5.2698,-5.2698,-5.2698,0.0,0.0,0.0,0.0,0.0,0.0,0.0,0.0,0.0,0.0,0.0,0.0,0.0,-3.7369,-3.7677,-3.8108,-3.8785,-3.9213,-3.9459,0.0,0.0,0.0,0.0,0.0,0.0,0.0,-4.134,-4.1586,-4.2048,-4.2602,-4.3217,-4.3217,-4.3624,-4.424,-4.424,-4.424,-4.424,-4.424,-4.4394,-4.461,-4.461,-4.461,0.0,0.0,0.0,0.0,0.0,0.0,0.0,0.0,0.0,0.0,0.0,0.0,0.0,0.0,0.0,0.0,0.0,0.0,0.0,0.0,0.0,0.0,0.0,0.0,0.0,0.0,0.0,0.0,0.0,0.0,0.0,0.0,0.0,0.0,0.0,0.0,0.0,-4.6025,-4.5268,0.0,-4.8046,-4.7577,-4.7543,-4.864,-4.9185,-4.928,-4.8759,-5.0662,-5.1257,-5.0046,-5.2131,-5.296,-5.2397,-5.42,-5.5234,-5.5345,-5.5807,-5.6053,-5.6053,-5.6484,-5.6453,-5.6053,-5.6515,-5.6453,-5.5992,-5.5404,-5.4698,-5.3976,-5.3899,-5.3899,-5.3976,-5.3976,-5.3976,-5.3976,0.0,0.0,0.0,0.0,0.0,0.0,0.0,0.0,0.0,0.0,0.0,-3.6999,-3.7461,-3.7892,-3.8354,-3.8816,-3.9428,-3.9828,-3.9828,0.0,0.0,0.0,0.0,0.0,0.0,-4.137,-4.1832,-4.2263,-4.2725,-4.3371,-4.4271,-4.4271,-4.4603,-4.5249,-4.5249,-4.5249,-4.5249,-4.5003,-4.4825,-4.461,-4.461,-4.461,-4.461,0.0,0.0,0.0,0.0,0.0,0.0,0.0,0.0,0.0,0.0,0.0,0.0,0.0,0.0,0.0,0.0,0.0,0.0,0.0,0.0,0.0,0.0,0.0,0.0,0.0,0.0,0.0,0.0,0.0,0.0,0.0,0.0,0.0,0.0,0.0,-4.5427,-4.7138,-4.6055,-4.6079,-4.8615,-4.7369,-4.7045,-4.8601,-4.9159,-4.9495,-4.9768,-5.1758,-5.2524,-5.1635,-5.3683,-5.4491,-5.3883,-5.5663,-5.6616,-5.673,-5.7272,-5.7487,-5.7518,-5.79,-5.7869,-5.7518,-5.7931,-5.7919,-5.7487,-5.7487,-5.6915,-5.6053,-5.5592,-5.5407,-5.5407,-5.5407,-5.5407,-5.5407,0.0,0.0,0.0,0.0,0.0,0.0,0.0,0.0,0.0,0.0,-3.7092,-3.7523,-3.7554,-3.8723,-3.949,-3.9521,-4.0105,-4.0505,-4.0505,-4.0505,0.0,0.0,0.0,0.0,-4.1586,-4.1648,-4.2294,-4.3593,-4.3655,-4.4332,-4.5588,-4.5618,-4.5957,-4.6603,-4.6603,-4.6603,-4.6542,-4.5895,-4.5249,-4.4671,-4.4641,-4.461,-4.461,0.0,0.0,0.0,0.0,0.0,0.0,0.0,0.0,0.0,0.0,0.0,0.0,0.0,0.0,0.0,0.0,0.0,0.0,0.0,0.0,0.0,0.0,0.0,0.0,0.0,0.0,0.0,0.0,0.0,0.0,0.0,0.0,0.0,-4.6216,-4.6381,-4.6946,-4.8326,-4.6746,-4.6213,-4.7887,-4.6138,-4.6196,-4.9223,-4.9285,-5.0486,-5.3477,-5.3682,-5.3612,-5.3512,-5.5398,-5.6362,-5.626,-5.7922,-5.8824,-5.8854,-5.8854,-5.8885,-5.8916,-5.8916,-5.8916,-5.8916,-5.8916,-5.8916,-5.8916,-5.8916,-5.8916,-5.8762,-5.7426,-5.6871,-5.6871,-5.6871,-5.6871,-5.6871,0.0,0.0,0.0,0.0,0.0,0.0,0.0,0.0,0.0,0.0,-3.74,-3.7861,-3.8813,-3.9308,-3.9674,-4.0166,-4.0382,-4.0505,-4.0505,0.0,0.0,0.0,0.0,0.0,-4.1586,-4.254,-4.3254,-4.3593,-4.4579,-4.5218,-4.5588,-4.608,-4.6419,-4.6603,-4.6603,-4.6603,-4.6573,-4.6388,-4.6203,-4.5957,-4.501,-4.461,-4.461,0.0,0.0,0.0,0.0,0.0,0.0,0.0,0.0,0.0,0.0,0.0,0.0,0.0,0.0,0.0,0.0,0.0,0.0,0.0,0.0,0.0,0.0,0.0,0.0,0.0,0.0,0.0,0.0,0.0,0.0,0.0,0.0,-4.6158,-4.5921,-4.5156,-4.4883,-4.5683,-4.6457,-4.7438,-4.8895,-4.9598,-5.0449,-5.1479,-5.2674,-5.3665,-5.4421,-5.551,-5.6083,-5.6042,-5.7233,-5.7517,-5.6869,-5.8624,-5.9747,-6.024,-6.0732,-6.1225,-6.1717,-6.1717,-6.1717,-6.1717,-6.1717,-6.1717,-6.1717,-6.1717,-6.1717,-6.1471,-5.9131,-5.8239,-5.8239,-5.8239,-5.8239,-5.8208,0.0,0.0,0.0,0.0,0.0,0.0,0.0,0.0,0.0,0.0,-3.7738,-3.8323,-3.9367,-3.9736,-4.0074,-4.0474,-4.0505,-4.0505,-4.0505,0.0,0.0,0.0,0.0,-4.174,-4.2017,-4.3069,-4.3747,-4.4024,-4.5103,-4.5741,-4.6018,-4.6696,-4.7188,-4.7434,-4.7434,-4.7434,-4.7434,-4.7127,-4.7034,-4.6942,-4.5865,-4.5249,-4.5003,-4.5003,-4.5003,-4.5072,-4.5311,-4.568,-4.6018,-4.6018,0.0,0.0,0.0,0.0,0.0,0.0,0.0,0.0,0.0,0.0,0.0,0.0,0.0,0.0,0.0,0.0,0.0,0.0,0.0,0.0,0.0,0.0,0.0,0.0,-4.649,-4.5794,-4.566,-4.5871,-4.6294,-4.7092,-4.8454,-4.9648,-5.0414,-5.1345,-5.2347,-5.3316,-5.4501,-5.5491,-5.6254,-5.7082,-5.773,-5.8058,-5.8929,-5.9286,-5.9062,-6.039,-6.1255,-6.1656,-6.2056,-6.2425,-6.2825,-6.2825,-6.2825,-6.2825,-6.2825,-6.2825,-6.2825,-6.2825,-6.2825,0.0,0.0,0.0,0.0,0.0,-6.0486,-6.0455,0.0,0.0,0.0,0.0,0.0,0.0,0.0,0.0,0.0,0.0,0.0,-3.8877,-3.9521,-4.0136,-4.0505,-4.0505,-4.0505,-4.0505,0.0,0.0,0.0,-4.0597,-4.134,-4.2017,-4.2694,-4.334,-4.4055,-4.4733,-4.5372,-4.6049,-4.6726,-4.7404,-4.805,-4.8604,-4.8604,-4.8604,-4.8573,-4.7989,-4.7711,-4.765,-4.6973,-4.6296,-4.5711,-4.5711,-4.5711,-4.5772,-4.6388,-4.6634,-4.6696,-4.6696,0.0,0.0,0.0,0.0,0.0,0.0,0.0,0.0,0.0,0.0,0.0,0.0,0.0,0.0,0.0,0.0,0.0,0.0,0.0,0.0,0.0,0.0,0.0,0.0,-4.5689,-4.5036,-4.5802,-4.7806,-4.9478,-5.0256,-5.1466,-5.2256,-5.2306,-5.2464,-5.3311,-5.5138,-5.5641,-5.6659,-5.8451,0.0,0.0,0.0,0.0,-6.1317,-6.1933,-6.2517,-6.2856,-6.2918,-6.301,-6.3102,-6.3164,-6.3256,-6.3287,-6.3287,-6.3287,-6.3287,-6.3287,-6.3287,-6.3225,-6.3133,-6.2918,-6.2825,-6.2825,-6.2825,-6.2825,-6.2825,0.0,0.0,0.0,0.0,0.0,0.0,0.0,0.0,0.0,-3.8489,-3.9139,-3.9753,-4.0262,-4.0413,-4.0505,-4.0505,-4.0505,-4.0505,0.0,0.0,-4.0751,-4.137,-4.2048,-4.2725,-4.3408,-4.4086,-4.4764,-4.5403,-4.608,-4.6757,-4.7434,-4.8112,-4.8481,-4.8604,-4.8604,-4.8604,-4.8604,-4.8481,-4.8419,-4.8358,-4.7681,-4.7004,-4.6419,-4.6419,-4.6419,-4.6419,-4.6542,-4.6942,-4.7404,-4.7404,-4.7773,-4.8235,-4.8235,0.0,0.0,0.0,0.0,0.0,0.0,0.0,0.0,0.0,0.0,0.0,0.0,0.0,0.0,0.0,0.0,0.0,0.0,0.0,0.0,-4.7446,-4.6302,-4.5967,-4.7431,-4.9249,-5.0107,-4.91,-5.1713,-5.381,-5.4217,-5.5981,-5.7375,-5.7981,-5.8573,-5.9134,-5.9542,-6.0557,-6.1182,-6.1304,-6.2034,-6.2487,-6.261,-6.2764,-6.3102,-6.3626,0.0,0.0,-6.5319,-6.5873,-6.6119,-6.6119,-6.6119,-6.6119,-6.6119,-6.6119,-6.5811,-6.5134,-6.3472,-6.2825,-6.2825,-6.2825,-6.2825,-6.2825,0.0,0.0,0.0,0.0,0.0,0.0,0.0,0.0,0.0,0.0,-3.9423,-4.0006,-4.0585,-4.0574,-4.0505,-4.0505,-4.0505,0.0,0.0,-4.0505,-4.0812,-4.1586,-4.2232,-4.291,-4.3593,-4.4271,-4.4949,-4.5588,-4.6265,-4.6942,-4.7619,-4.8296,-4.8604,-4.8604,-4.8604,-4.8604,-4.8604,-4.8604,-4.8604,-4.8573,-4.8235,-4.7896,-4.7558,-4.7219,-4.7096,-4.7157,-4.7496,-4.7835,-4.8112,-4.8112,-4.8327,-4.8604,-4.8604,-4.8604,-4.8604,0.0,0.0,0.0,0.0,0.0,0.0,0.0,0.0,0.0,0.0,0.0,0.0,0.0,0.0,-5.0514,0.0,0.0,-4.7206,-4.6679,-4.6783,-4.7456,-4.9063,-5.1107,-5.2096,-5.136,-5.3766,-5.5769,-5.6506,-5.8116,-5.9184,-5.9285,-5.9901,-6.0455,-6.0794,-6.144,-6.1963,-6.2302,-6.2979,-6.3502,-6.3872,-6.418,-6.4703,-6.538,-6.5719,-6.5903,-6.5903,-6.6273,-6.6211,-6.5903,-6.5903,-6.5903,-6.5903,-6.5903,-6.5719,-6.5288,-6.4272,-6.3872,-6.3872,-6.3872,-6.3872,-6.3872,0.0,0.0,0.0,0.0,0.0,0.0,0.0,0.0,0.0,0.0,0.0,-4.0228,-4.082,-4.0643,-4.0505,0.0,0.0,0.0,0.0,-4.0505,-4.0874,-4.1771,-4.2325,-4.2971,-4.3778,-4.4332,-4.4949,-4.5588,-4.6265,-4.6942,-4.7619,-4.8296,-4.8604,-4.8604,-4.8604,-4.8604,-4.8604,-4.8604,-4.8604,-4.8604,-4.8604,-4.8604,-4.8543,-4.8019,-4.7804,-4.7865,-4.8419,-4.8604,-4.8604,-4.8604,-4.8604,-4.8604,-4.8604,-4.8604,-4.8635,-4.8789,-4.882,0.0,0.0,0.0,0.0,0.0,0.0,0.0,0.0,0.0,-5.2653,-5.2397,-5.1558,-5.0401,-4.9227,-4.8499,-4.7828,-4.6891,-4.8029,-4.9555,-5.0906,-5.3009,-5.4502,-5.4596,-5.632,-5.776,-5.8563,-5.9491,-5.9993,-5.9993,-6.0609,-6.1225,-6.1779,-6.2056,-6.2517,-6.3195,-6.3872,-6.458,-6.5288,-6.5719,-6.618,-6.6735,-6.6735,-6.6427,-6.5903,-6.6027,-6.5811,-6.5288,-6.5288,-6.5288,-6.5288,-6.5165,-6.5103,-6.5072,-6.4949,-6.4888,-6.4888,-6.4888,-6.4888,-6.4888,0.0,0.0,0.0,0.0,0.0,0.0,0.0,0.0,0.0,0.0,0.0,0.0,0.0,0.0,0.0,0.0,0.0,0.0,0.0,-4.0505,-4.1089,-4.2448,-4.2571,-4.3187,-4.4486,-4.4579,-4.4949,-4.5588,-4.6265,-4.6942,-4.7619,-4.8296,-4.8604,-4.8604,-4.8604,-4.8604,-4.8604,-4.8604,-4.8604,-4.8604,-4.8604,-4.8604,-4.8604,-4.8543,-4.8512,-4.8512,-4.8573,-4.8604,-4.8604,-4.8604,-4.8604,-4.8604,-4.8604,-4.8604,-4.8727,-4.9374,0.0,-4.9712,-5.0389,-5.1005,0.0,-5.2421,-5.2606,-5.2637,0.0,0.0,-5.2427,-5.1466,-5.1156,-5.0834,-5.0179,-4.9954,-5.0154,-5.0853,-5.1587,-5.2348,-5.3032,-5.4769,-5.6291,-5.7179,-5.836,-5.9287,-5.9604,-6.0301,-6.0701,-6.0701,-6.1317,-6.1717,-6.1809,-6.2948,-6.3933,-6.4641,-6.5319,-6.5996,-6.6673,-6.618,-6.5934,-6.6027,-6.6027,-6.5965,-6.5934,-6.6519,-6.6765,-6.6704,-6.6704,-6.6704,-6.6642,-6.6027,-6.578,-6.5719,-6.5134,-6.4888,-6.4888,-6.4888,-6.4888,-6.4888,0.0,0.0,0.0,0.0,0.0,0.0,0.0,0.0,0.0,0.0,0.0,0.0,0.0,0.0,0.0,0.0,0.0,0.0,-4.0505,-4.0909,-4.1586,-4.2571,-4.2971,-4.3618,-4.4579,-4.461,-4.4949,-4.5588,-4.5865,-4.6357,-4.7034,-4.7711,-4.8019,-4.805,-4.845,-4.8604,-4.8604,-4.8604,-4.8604,-4.8604,-4.8604,-4.8604,-4.8604,-4.8604,-4.8604,-4.8604,-4.8604,-4.8604,0.0,0.0,-4.8604,-4.8604,-4.8604,-4.8881,-4.9281,-4.9589,-4.9959,0.0,-5.1097,0.0,0.0,0.0,-5.2698,-5.2698,-5.2698,-5.2698,-5.2563,-5.2124,-5.172,-5.1357,-5.114,-5.1041,-5.1144,0.0,-5.3001,-5.4375,-5.5177,-5.6892,-5.8398,-5.9379,-5.9918,-6.026,-6.0363,-6.064,-6.0948,-6.1348,-6.1656,-6.2148,-6.2948,-6.3903,-6.4764,-6.5472,-6.615,-6.6642,-6.6919,-6.6642,-6.6488,-6.6488,-6.6488,-6.6273,-6.5903,-6.6211,-6.6119,-6.575,-6.575,-6.575,-6.5719,-6.5442,-6.5319,-6.5288,-6.5011,-6.4888,-6.4888,-6.4888,-6.4888,-6.4888,0.0,0.0,0.0,0.0,0.0,0.0,0.0,0.0,0.0,0.0,0.0,0.0,0.0,0.0,0.0,0.0,0.0,0.0,0.0,-4.1186,-4.1894,-4.2571,-4.3217,0.0,-4.461,-4.461,-4.4856,-4.5311,-4.5495,-4.5834,-4.6326,-4.7004,-4.7311,-4.7342,-4.7835,-4.8173,-4.8327,-4.8327,-4.845,-4.8604,-4.8604,-4.8604,-4.8604,-4.8604,-4.8604,-4.8604,-4.8604,-4.8604,0.0,0.0,-4.8758,-4.8912,-4.8912,-4.9404,-4.9989,-5.0205,-5.0728,-5.1374,-5.1836,0.0,0.0,-5.2698,-5.2698,-5.2698,-5.2698,-5.2698,-5.276,-5.2944,-5.2579,-5.233,-5.2738,-5.2763,0.0,-5.299,-5.4805,-5.6466,-5.7122,-5.8671,-6.0034,-6.0732,-6.0794,-6.0886,-6.1071,-6.1071,-6.1286,-6.1779,-6.2148,-6.2794,-6.3779,-6.4672,-6.5411,-6.5903,-6.655,-6.6919,-6.6919,-6.6735,-6.6642,-6.6642,-6.6457,-6.6088,-6.5626,-6.5626,-6.5349,-6.4888,-6.4888,-6.4888,-6.4888,-6.4888,-6.4888,-6.4888,-6.4888,-6.4888,-6.4888,-6.4888,-6.4888,-6.4888,0.0,0.0,0.0,0.0,0.0,0.0,0.0,0.0,0.0,0.0,0.0,0.0,0.0,0.0,0.0,0.0,0.0,0.0,0.0,-4.1186,-4.1894,-4.2571,-4.3217,-4.3932,-4.461,-4.461,-4.4641,-4.4641,-4.528,-4.5588,-4.5618,-4.6296,-4.6634,-4.6634,-4.6634,-4.7034,-4.7619,-4.7619,-4.8019,-4.8604,-4.8604,-4.8604,-4.8604,-4.8604,-4.8604,-4.8604,-4.8604,0.0,0.0,0.0,-4.9097,-4.9651,-4.9651,-5.0112,0.0,-5.1436,-5.2113,0.0,0.0,0.0,-5.2698,-5.2698,-5.2698,-5.2698,-5.2698,-5.2698,-5.2883,-5.356,-5.3668,-5.4068,-5.5329,-5.5558,-5.5804,-5.6511,-5.7789,-5.8712,-5.8712,-5.9932,-6.0763,-6.0794,-6.0794,-6.1071,0.0,-6.1779,-6.1779,-6.1809,-6.301,-6.3779,-6.3841,-6.5134,-6.5873,-6.5903,-6.655,-6.6919,-6.6919,-6.6273,-6.5934,-6.5934,-6.5288,-6.4949,-6.4918,-6.4918,-6.4918,-6.4888,-6.4888,-6.4888,-6.4888,-6.4888,-6.4888,-6.4888,-6.4888,-6.4888,-6.4888,-6.4888,-6.4888,-6.4888,0.0,0.0,0.0,0.0,0.0,0.0,0.0,0.0,0.0,0.0,0.0,0.0,0.0,0.0,0.0,0.0,0.0,0.0,0.0,-4.1903,-4.2355,-4.2602,-4.3648,-4.4394,-4.461,-4.461,-4.461,-4.461,-4.4856,-4.4949,-4.4941,-4.5618,-4.5926,-4.5957,-4.6388,-4.6973,-4.7619,-4.7619,-4.7989,-4.8604,-4.8604,-4.8604,-4.8604,-4.8604,-4.8604,-4.8604,0.0,0.0,0.0,0.0,0.0,0.0,-4.9682,0.0,0.0,-5.2175,-5.2544,-5.2698,0.0,0.0,-5.2698,-5.2698,-5.2698,-5.2698,-5.2698,-5.2698,-5.2914,-5.3591,-5.4037,-5.4668,-5.553,-5.6084,-5.6532,-5.6779,-5.7949,-5.8793,-5.8793,-5.9932,-6.0794,-6.0794,-6.1194,0.0,0.0,0.0,0.0,-6.3071,-6.3564,-6.4241,-6.5165,-6.5657,-6.6119,-6.655,-6.6796,-6.6704,-6.6242,-6.6027,-6.5688,-6.5226,-6.5011,-6.4888,-6.4888,-6.4888,-6.4888,-6.4888,-6.4888,-6.4888,-6.4888,-6.4888,-6.4888,-6.4888,-6.4888,-6.4888,-6.4888,-6.4888,-6.4888,-6.4888,0.0,0.0,0.0,0.0,0.0,0.0,0.0,0.0,0.0,0.0,0.0,0.0,0.0,0.0,0.0,0.0,0.0,0.0,0.0,0.0,-4.2612,-4.2602,-4.3648,-4.4363,-4.4572,-4.461,-4.461,-4.461,-4.461,-4.461,-4.4641,-4.5033,-4.5218,-4.5249,-4.568,-4.6265,-4.6911,-4.7127,-4.7619,-4.8266,-4.8512,-4.8604,-4.8604,-4.8604,-4.8604,0.0,0.0,0.0,0.0,0.0,0.0,0.0,0.0,-5.1159,-5.2144,-5.2575,-5.2698,-5.2698,0.0,-5.2698,-5.2698,-5.2698,-5.2698,-5.2698,-5.2698,-5.2698,-5.2914,-5.3591,-5.4222,-5.4914,-5.5561,-5.6269,-5.681,-5.681,-5.7949,-5.8793,-5.8793,-5.9932,-6.0794,-6.0794,-6.1379,0.0,0.0,0.0,0.0,-6.3779,-6.4057,-6.4611,-6.5503,-6.578,-6.5996,-6.618,-6.6427,-6.6242,-6.5565,-6.5534,-6.5319,-6.4888,-6.4888,-6.4888,-6.4888,-6.4888,-6.4888,-6.4888,-6.4888,-6.4888,-6.4888,-6.4888,-6.4888,-6.4888,-6.4888,-6.4888,-6.4888,-6.4888,-6.4888,-6.4888,0.0,0.0,0.0,0.0,0.0,0.0,0.0,0.0,0.0,0.0,0.0,0.0,0.0,0.0,0.0,0.0,0.0,0.0,0.0,0.0,0.0,-4.2716,-4.3291,-4.3932,-4.4648,-4.461,-4.461,-4.461,-4.461,-4.461,-4.461,-4.461,-4.461,-4.461,-4.461,-4.4941,-4.5618,-4.6296,-4.7004,-4.7681,-4.8327,-4.8604,-4.8604,-4.8604,0.0,0.0,0.0,0.0,0.0,0.0,0.0,0.0,0.0,0.0,-5.2698,-5.2698,-5.2698,-5.2698,-5.2698,-5.2698,-5.2698,-5.2698,-5.2698,-5.2698,-5.2698,-5.2698,-5.2914,-5.3591,-5.4237,-5.4884,0.0,0.0,-5.6748,-5.6748,-5.7919,-5.8793,-5.8793,-5.9932,-6.0824,0.0,0.0,0.0,0.0,0.0,0.0,-6.3933,0.0,-6.4918,-6.4949,-6.5534,-6.5565,-6.498,-6.5534,-6.5534,-6.4918,-6.4888,-6.4888,-6.4888,-6.4888,-6.4888,-6.4888,-6.4888,-6.4888,-6.4888,-6.4888,-6.4888,-6.4888,-6.4888,-6.4888,-6.4888,-6.4888,-6.4888,-6.4888,-6.4888,-6.4888,-6.4888,0.0,0.0,0.0,0.0,0.0,0.0,0.0,0.0,0.0,0.0,0.0,0.0,0.0,0.0,0.0,0.0,0.0,0.0,0.0,0.0,0.0,0.0,0.0,0.0,0.0,0.0,0.0,0.0,0.0,-4.461,-4.461,-4.461,-4.461,0.0,-4.461,-4.4941,-4.5618,-4.6296,-4.7004,-4.7681,0.0,-4.8604,-4.8604,0.0,0.0,0.0,0.0,0.0,0.0,0.0,0.0,0.0,0.0,0.0,-5.2698,-5.2698,0.0,-5.2698,-5.2698,-5.2698,-5.2698,-5.2698,-5.2698,-5.2698,-5.2698,-5.2698,-5.2914,-5.3591,-5.3868,-5.4176,0.0,0.0,0.0,-5.5961,-5.7562,0.0,-5.8793,-5.9932,0.0,0.0,0.0,-6.2825,-6.3502,-6.421,0.0,0.0,-6.5072,-6.5103,-6.5626,-6.5349,-6.5319,-6.5626,-6.5319,-6.5072,-6.4888,-6.4888,-6.4888,-6.4888,-6.4888,-6.4888,-6.4888,-6.4888,-6.4888,-6.4888,-6.4888,-6.4888,-6.4888,-6.4888,-6.4888,-6.4888,-6.4888,-6.4888,-6.4888,-6.4888,-6.4888,-6.4888,0.0,0.0,0.0,0.0,0.0,0.0,0.0,0.0,0.0,0.0,0.0,0.0,0.0,0.0,0.0,0.0,0.0,0.0,0.0,0.0,0.0,0.0,0.0,0.0,0.0,0.0,0.0,0.0,0.0,0.0,0.0,-4.461,-4.461,-4.461,-4.461,-4.4825,-4.5226,0.0,0.0,0.0,0.0,0.0,0.0,0.0,0.0,0.0,0.0,0.0,0.0,0.0,0.0,-5.2206,-5.2606,-5.2698,-5.2698,-5.2698,0.0,-5.2698,-5.2698,-5.2914,-5.3098,-5.279,-5.2944,-5.3067,-5.279,-5.2698,-5.2821,-5.3191,-5.3529,0.0,0.0,0.0,0.0,0.0,0.0,0.0,-5.8793,-5.9932,-6.104,0.0,-6.2394,0.0,-6.3694,-6.4734,-6.538,0.0,-6.5103,-6.5195,-6.5873,-6.5257,-6.5072,-6.5442,-6.5103,-6.4888,-6.4888,-6.4888,-6.4888,-6.4888,-6.4888,-6.4888,-6.4888,-6.4888,-6.4888,-6.4888,0.0,-6.4888,-6.4888,-6.4888,-6.4888,-6.4888,-6.4888,-6.4888,-6.4888,-6.4888,-6.4888,-6.4888,0.0,0.0,0.0,0.0,0.0,0.0,0.0,0.0,0.0,0.0,0.0,0.0,0.0,0.0,0.0,0.0,0.0,0.0,0.0,0.0,0.0,0.0,0.0,0.0,0.0,0.0,0.0,0.0,0.0,0.0,0.0,0.0,0.0,0.0,0.0,0.0,0.0,0.0,0.0,0.0,0.0,0.0,0.0,0.0,0.0,0.0,0.0,0.0,0.0,0.0,-5.159,-5.2698,-5.2698,-5.2698,-5.2698,-5.2698,-5.2698,-5.2729,-5.2821,-5.3283,-5.3591,-5.3006,-5.3283,-5.3529,-5.2852,-5.2698,-5.2698,-5.2698,0.0,0.0,-5.3668,0.0,-5.5592,-5.5684,0.0,-5.867,-5.8762,-5.987,-6.0978,-6.184,-6.2456,-6.3164,-6.4026,-6.5103,-6.5596,-6.5195,-6.5011,-6.5165,-6.575,-6.5226,-6.4888,-6.4888,-6.4888,-6.4888,-6.4888,-6.4888,-6.4888,-6.4888,-6.4888,-6.4888,-6.4888,-6.4888,-6.4888,-6.4888,-6.4888,-6.4888,-6.4888,-6.4888,-6.4888,-6.4888,-6.4888,-6.4888,-6.4888,-6.4888,-6.4888,-6.4888,0.0,0.0,0.0,0.0,0.0,0.0,0.0,0.0,0.0,0.0,-4.5397,-4.5397,0.0,0.0,0.0,0.0,0.0,0.0,0.0,0.0,0.0,0.0,0.0,0.0,0.0,0.0,0.0,0.0,0.0,0.0,0.0,0.0,0.0,0.0,0.0,0.0,0.0,0.0,0.0,0.0,0.0,0.0,0.0,0.0,0.0,0.0,0.0,0.0,0.0,0.0,-5.159,-5.2698,-5.2698,-5.2698,-5.2698,-5.2698,-5.2698,-5.2821,-5.3406,-5.3622,-5.3637,-5.3591,-5.3622,-5.3529,-5.2852,-5.2698,0.0,0.0,0.0,-5.3067,-5.3622,-5.436,0.0,-5.5592,0.0,0.0,0.0,0.0,-6.064,0.0,0.0,0.0,0.0,0.0,0.0,0.0,0.0,-6.4949,-6.5072,-6.4949,-6.4888,-6.4888,-6.4888,-6.4888,-6.4888,-6.4888,-6.4888,-6.4888,-6.4888,-6.4888,-6.4888,-6.4888,-6.4888,-6.4888,-6.4888,0.0,-6.4888,-6.4888,-6.4888,-6.4888,-6.4888,-6.4888,-6.4888,-6.4888,-6.4888,-6.4888,0.0,0.0,0.0,0.0,0.0,0.0,0.0,-4.5397,-4.5397,-4.5397,-4.5397,-4.5397,-4.5397,-4.5397,-4.5397,0.0,0.0,0.0,0.0,0.0,0.0,0.0,0.0,0.0,0.0,0.0,0.0,0.0,0.0,0.0,0.0,0.0,0.0,0.0,0.0,0.0,0.0,0.0,0.0,0.0,0.0,0.0,0.0,0.0,0.0,0.0,0.0,0.0,0.0,0.0,-5.1898,-5.2698,-5.2698,-5.2698,-5.2698,-5.2698,-5.2698,-5.2852,-5.3529,-5.3714,-5.3714,-5.3714,-5.3714,-5.3529,-5.2852,0.0,0.0,0.0,0.0,-5.3345,-5.3652,0.0,0.0,0.0,0.0,0.0,0.0,0.0,0.0,0.0,0.0,0.0,0.0,0.0,0.0,0.0,0.0,-6.5411,-6.5411,-6.5103,-6.4888,-6.4888,-6.4888,-6.4888,-6.4888,-6.4888,-6.4888,-6.4888,-6.4888,-6.4888,-6.4888,-6.4888,-6.4888,-6.4888,-6.4888,0.0,-6.4888,-6.4888,-6.4888,-6.4888,-6.4888,-6.4888,-6.4888,-6.4888,-6.4888,-6.4888,0.0,0.0,0.0,0.0,0.0,0.0,0.0,-4.5397,-4.5397,-4.5397,-4.5397,-4.5397,-4.5397,-4.5397,-4.5397,0.0,0.0,0.0,0.0,0.0,0.0,0.0,0.0,0.0,0.0,0.0,0.0,0.0,0.0,0.0,0.0,0.0,0.0,0.0,0.0,0.0,0.0,0.0,0.0,0.0,0.0,0.0,0.0,0.0,0.0,0.0,0.0,0.0,0.0,0.0,-5.2144,-5.2698,-5.2698,-5.2698,-5.2698,-5.2698,-5.2698,-5.2852,-5.3529,-5.3714,-5.3714,-5.3714,-5.3714,-5.3529,-5.2852,-5.2698,0.0,0.0,0.0,0.0,0.0,0.0,0.0,0.0,0.0,0.0,0.0,0.0,0.0,0.0,0.0,0.0,0.0,0.0,0.0,0.0,0.0,0.0,-6.5688,-6.5195,-6.4888,-6.4888,-6.4888,-6.4888,-6.4888,-6.4888,-6.4888,-6.4888,-6.4888,-6.4888,-6.4888,-6.4888,-6.4888,-6.4888,-6.4888,0.0,0.0,-6.4888,-6.4888,-6.4888,-6.4888,-6.4888,-6.4888,-6.4888,-6.4888,-6.4888,0.0,0.0,0.0,0.0,0.0,0.0,0.0,-4.5397,-4.5397,-4.5397,-4.5397,-4.5397,-4.5397,-4.5397,-4.5397,0.0,0.0,0.0,0.0,0.0,0.0,0.0,0.0,0.0,0.0,0.0,0.0,0.0,0.0,0.0,0.0,0.0,0.0,0.0,0.0,0.0,0.0,0.0,0.0,0.0,0.0,0.0,0.0,0.0,0.0,0.0,0.0,0.0,0.0,0.0,0.0,-5.2698,-5.2698,-5.2698,-5.2698,-5.2698,0.0,0.0,-5.3529,-5.3714,-5.3714,-5.3714,-5.3714,-5.3529,-5.2852,0.0,0.0,0.0,0.0,-5.3899,0.0,0.0,0.0,0.0,0.0,0.0,0.0,0.0,0.0,0.0,0.0,0.0,0.0,0.0,0.0,0.0,0.0,0.0,-6.498,-6.4918,-6.4888,-6.4888,-6.4888,-6.4888,-6.4888,-6.4888,-6.4888,-6.4888,-6.4888,-6.4888,-6.4888,-6.4888,-6.4888,-6.4888,-6.4888,0.0,0.0,-6.4888,-6.4888,-6.4888,-6.4888,-6.4888,-6.4888,-6.4888,-6.4888,-6.4888,0.0,0.0,0.0,0.0,0.0,0.0,-4.5397,-4.5397,-4.5397,-4.5397,-4.5397,-4.5397,-4.5397,-4.5397,-4.5397,-4.5397,0.0,0.0,0.0,0.0,0.0,0.0,0.0,0.0,0.0,0.0,0.0,0.0,0.0,0.0,0.0,0.0,0.0,0.0,0.0,0.0,0.0,0.0,0.0,0.0,0.0,0.0,0.0,0.0,0.0,0.0,0.0,0.0,0.0,0.0,0.0,0.0,-5.2698,-5.2698,0.0,0.0,-5.2698,-5.2852,-5.3529,-5.3437,-5.3221,-5.3622,-5.3406,-5.3037,-5.276,0.0,0.0,-5.3221,-5.3868,-5.4545,-5.5191,0.0,0.0,0.0,0.0,0.0,0.0,0.0,0.0,0.0,0.0,0.0,0.0,0.0,0.0,0.0,0.0,0.0,-6.4888,-6.4888,-6.4888,-6.4888,-6.4888,-6.4888,-6.4888,-6.4888,-6.4888,-6.4888,-6.4888,-6.4888,-6.4888,-6.4888,-6.4888,-6.4888,-6.4888,0.0,0.0,-6.4888,-6.4888,-6.4888,-6.4888,-6.4888,-6.4888,-6.4888,-6.4888,-6.4888,0.0,0.0,0.0,0.0,0.0,-4.5397,-4.5397,-4.5397,-4.5397,-4.5397,-4.5397,-4.5397,-4.5397,-4.5397,-4.5397,-4.5397,-4.5397,0.0,0.0,0.0,0.0,0.0,0.0,0.0,0.0,0.0,-4.926,-4.956,-4.95,0.0,0.0,0.0,0.0,0.0,0.0,0.0,0.0,0.0,0.0,0.0,0.0,0.0,0.0,0.0,0.0,0.0,0.0,0.0,0.0,0.0,0.0,0.0,0.0,0.0,0.0,0.0,-5.2698,-5.2821,-5.3283,-5.3067,-5.2821,-5.3314,-5.3067,-5.2698,0.0,0.0,0.0,-5.3591,-5.4222,-5.4914,-5.5561,0.0,0.0,0.0,0.0,0.0,0.0,0.0,0.0,0.0,0.0,0.0,0.0,0.0,0.0,0.0,0.0,0.0,0.0,-6.4888,-6.4888,-6.4888,-6.4888,-6.4888,-6.4888,-6.4888,-6.4888,-6.4888,-6.4888,-6.4888,-6.4888,-6.4888,-6.4888,-6.4888,-6.4888,0.0,0.0,-6.4888,-6.4888,-6.4888,-6.4888,-6.4888,-6.4888,-6.4888,-6.4888,-6.4888,0.0,0.0,0.0,0.0,0.0,0.0,-4.5397,-4.5397,-4.5397,-4.5397,-4.5397,-4.5397,-4.5397,-4.5397,-4.5397,-4.5397,-4.5397,0.0,0.0,0.0,0.0,0.0,0.0,0.0,0.0,0.0,-4.9889,-4.9708,-4.956,-4.9104,-4.8385,-4.7505,0.0,0.0,0.0,0.0,0.0,0.0,0.0,0.0,0.0,0.0,0.0,0.0,0.0,0.0,0.0,0.0,0.0,0.0,0.0,0.0,0.0,0.0,0.0,0.0,-5.2698,-5.2698,-5.2729,-5.2729,-5.2698,-5.2729,-5.2729,-5.2698,0.0,0.0,0.0,-5.3591,-5.4222,-5.4914,-5.5561,-5.6269,0.0,0.0,0.0,0.0,0.0,0.0,0.0,0.0,0.0,0.0,0.0,0.0,0.0,0.0,0.0,0.0,0.0,-6.4888,-6.4888,-6.4888,-6.4888,-6.4888,-6.4888,-6.4888,-6.4888,-6.4888,-6.4888,-6.4888,-6.4888,-6.4888,-6.4888,0.0,0.0,0.0,0.0,-6.4888,-6.4888,-6.4888,-6.4888,-6.4888,-6.4888,-6.4888,-6.4888,-6.4888,0.0,0.0,0.0,0.0,0.0,0.0,0.0,-4.5397,-4.5397,-4.5397,-4.5397,-4.5397,-4.5397,-4.5397,-4.5397,-4.5397,-4.5397,0.0,0.0,0.0,0.0,0.0,0.0,0.0,0.0,0.0,-4.9406,-4.9708,-4.956,-4.9381,-4.9104,-4.7737,-4.7135,-4.7137,0.0,0.0,0.0,0.0,0.0,0.0,0.0,0.0,0.0,0.0,0.0,0.0,0.0,0.0,0.0,0.0,0.0,0.0,0.0,0.0,0.0,0.0,0.0,0.0,-5.2698,-5.2698,-5.2698,-5.2698,-5.2698,-5.2698,-5.2698,0.0,-5.3037,-5.4129,-5.4529,-5.5068,-5.6255,-5.6656,0.0,0.0,0.0,0.0,0.0,0.0,0.0,0.0,0.0,0.0,0.0,0.0,0.0,0.0,0.0,0.0,0.0,-6.4888,-6.4888,-6.4888,-6.4888,-6.4888,-6.4888,-6.4888,-6.4888,-6.4888,-6.4888,-6.4888,-6.4888,-6.4888,-6.4888,0.0,0.0,0.0,0.0,-6.4888,-6.4888,-6.4888,-6.4888,-6.4888,-6.4888,-6.4888,-6.4888,-6.4888,0.0,0.0,0.0,0.0,0.0,0.0,0.0,-4.5397,-4.5397,-4.5397,-4.5397,-4.5397,-4.5397,-4.5397,-4.55,-4.5811,-4.5845,0.0,0.0,0.0,0.0,0.0,0.0,0.0,-4.9796,-4.9466,-4.9466,-4.983,-4.959,-4.95,-4.9471,-4.7934,-4.7439,-4.7836,-4.5877,0.0,0.0,0.0,0.0,0.0,0.0,0.0,-4.8604,0.0,0.0,0.0,0.0,0.0,0.0,0.0,0.0,0.0,0.0,0.0,0.0,0.0,-5.2698,0.0,0.0,-5.2698,-5.2698,-5.2698,-5.2698,0.0,0.0,0.0,-5.3098,-5.4406,-5.4683,-5.5161,-5.6563,-5.681,0.0,0.0,0.0,0.0,0.0,0.0,0.0,0.0,0.0,0.0,0.0,0.0,0.0,0.0,0.0,0.0,0.0,-6.4888,-6.4888,-6.4888,-6.4888,-6.4888,-6.4888,-6.4888,-6.4888,-6.4888,-6.4888,-6.4888,-6.4888,-6.4888,-6.4888,0.0,0.0,0.0,0.0,-6.4888,-6.4888,-6.4888,-6.4888,-6.4888,-6.4888,-6.4888,-6.4888,-6.4888,0.0,0.0,0.0,0.0,0.0,0.0,0.0,-4.5397,-4.5397,-4.5397,-4.5397,-4.5397,-4.5397,-4.5466,-4.5776,-4.6527,0.0,0.0,0.0,0.0,0.0,0.0,0.0,0.0,-5.0011,-5.0011,-5.0011,-5.0011,-4.9683,-4.95,-4.9471,-4.8097,-4.7605,-4.7901,-4.6017,-4.6156,0.0,0.0,0.0,0.0,0.0,0.0,0.0,0.0,0.0,0.0,0.0,0.0,0.0,0.0,0.0,0.0,0.0,0.0,0.0,0.0,0.0,0.0,0.0,0.0,0.0,0.0,0.0,0.0,0.0,0.0,0.0,-5.4406,-5.4683,-5.5161,-5.6563,0.0,0.0,0.0,0.0,0.0,0.0,0.0,0.0,0.0,0.0,0.0,0.0,0.0,0.0,0.0,0.0,0.0,0.0,-6.4888,-6.4888,-6.4888,-6.4888,-6.4888,-6.4888,-6.4888,-6.4888,-6.4888,-6.4888,-6.4888,-6.4888,-6.4888,-6.4888,0.0,0.0,0.0,0.0,-6.4888,-6.4888,-6.4888,-6.4888,-6.4888,-6.4888,-6.4888,-6.4888,-6.4888,0.0,0.0,0.0,0.0,0.0,0.0,0.0,0.0,0.0,0.0,-4.5397,-4.5397,-4.5397,-4.5949,-4.6362,0.0,0.0,0.0,0.0,0.0,0.0,0.0,0.0,0.0,-5.0011,-5.0011,-5.0011,-5.0011,-4.9772,-4.959,-4.9471,-4.816,-4.7999,-4.8639,-4.6266,-4.5559,0.0,0.0,0.0,0.0,0.0,0.0,0.0,0.0,0.0,0.0,-5.0451,-5.1128,0.0,0.0,0.0,0.0,0.0,0.0,0.0,0.0,-5.2698,-5.2698,-5.2698,0.0,-5.2698,-5.2698,-5.2698,-5.2698,0.0,0.0,0.0,0.0,0.0,0.0,0.0,0.0,0.0,0.0,0.0,0.0,0.0,0.0,0.0,0.0,0.0,0.0,0.0,0.0,0.0,0.0,0.0,0.0,0.0,-6.4888,-6.4888,-6.4888,-6.4888,-6.4888,-6.4888,-6.4888,-6.4888,-6.4888,-6.4888,-6.4888,-6.4888,-6.4888,-6.4888,0.0,0.0,0.0,-6.4888,-6.4888,-6.4888,-6.4888,-6.4888,-6.4888,-6.4888,-6.4888,-6.4888,-6.4888,0.0,0.0,0.0,0.0,0.0,0.0,0.0,0.0,0.0,0.0,0.0,0.0,0.0,0.0,0.0,0.0,0.0,0.0,0.0,0.0,0.0,0.0,0.0,-5.0011,-5.0011,-5.0011,-5.0011,-5.0011,-4.9801,-4.95,-4.9138,-4.8353,-4.8225,-4.8578,-4.7425,-4.6807,0.0,0.0,0.0,0.0,-4.845,0.0,0.0,0.0,0.0,0.0,-5.0913,-5.159,0.0,-5.2575,-5.2698,-5.2698,0.0,0.0,0.0,0.0,-5.2698,-5.2698,-5.2698,-5.2698,-5.2698,-5.2698,-5.2698,-5.2698,0.0,0.0,0.0,0.0,0.0,0.0,0.0,0.0,0.0,0.0,0.0,0.0,0.0,0.0,0.0,0.0,0.0,0.0,0.0,0.0,0.0,0.0,0.0,0.0,0.0,-6.4888,-6.4888,-6.4888,-6.4888,-6.4888,-6.4888,-6.4888,-6.4888,-6.4888,-6.4888,-6.4888,-6.4888,-6.4888,-6.4888,0.0,0.0,0.0,-6.4888,-6.4888,-6.4888,-6.4888,-6.4888,-6.4888,-6.4888,-6.4888,-6.4888,-6.4888,0.0,0.0,0.0,0.0,0.0,0.0,0.0,0.0,0.0,0.0,0.0,0.0,0.0,0.0,0.0,0.0,0.0,0.0,0.0,0.0,0.0,0.0,-5.0011,-5.0011,-5.0011,-5.0011,-5.0011,-5.0011,-4.983,-4.9441,-4.8796,-4.8543,-4.8292,-4.8034,-4.8628,-4.8521,0.0,0.0,0.0,0.0,-4.8728,0.0,0.0,0.0,0.0,0.0,0.0,0.0,0.0,-5.2698,-5.2698,-5.2698,-5.2698,0.0,0.0,0.0,0.0,0.0,-5.2698,-5.2698,-5.2698,-5.2698,-5.2698,-5.2698,0.0,0.0,0.0,0.0,0.0,0.0,0.0,0.0,0.0,0.0,0.0,0.0,0.0,0.0,0.0,0.0,0.0,0.0,0.0,0.0,0.0,0.0,0.0,0.0,0.0,-6.4888,-6.4888,-6.4888,-6.4888,-6.4888,-6.4888,-6.4888,-6.4888,-6.4888,-6.4888,-6.4888,-6.4888,-6.4888,-6.4888,-6.4888,0.0,0.0,-6.4888,-6.4888,-6.4888,-6.4888,-6.4888,-6.4888,-6.4888,-6.4888,-6.4888,-6.4888,0.0,0.0,0.0,0.0,0.0,0.0,0.0,0.0,0.0,0.0,0.0,0.0,0.0,0.0,0.0,0.0,0.0,0.0,0.0,0.0,0.0,-5.0011,-5.0011,-5.0011,-5.0011,-5.0011,-5.0011,-5.0011,-4.9982,-4.9772,-4.935,-4.8858,-4.8134,-4.7233,-4.834,-4.8387,-4.7667,-4.8306,-4.8594,-4.8646,-4.939,0.0,0.0,0.0,0.0,0.0,0.0,0.0,0.0,-5.2698,-5.2698,-5.2698,-5.2698,0.0,0.0,0.0,0.0,0.0,-5.2698,-5.2698,-5.2698,-5.2698,-5.2698,-5.2698,0.0,0.0,0.0,0.0,0.0,0.0,0.0,0.0,0.0,0.0,0.0,0.0,0.0,0.0,0.0,0.0,0.0,0.0,0.0,0.0,0.0,0.0,0.0,0.0,0.0,-6.4888,-6.4888,-6.4888,-6.4888,-6.4888,-6.4888,-6.4888,-6.4888,-6.4888,-6.4888,-6.4888,-6.4888,-6.4888,-6.4888,-6.4888,0.0,-6.4888,-6.4888,-6.4888,-6.4888,-6.4888,-6.4888,-6.4888,-6.4888,-6.4888,-6.4888,-6.4888,0.0,0.0,0.0,0.0,0.0,0.0,0.0,0.0,0.0,0.0,0.0,0.0,0.0,0.0,0.0,0.0,0.0,0.0,0.0,0.0,-5.0011,-5.0011,-5.0011,-5.0011,-5.0011,-5.0011,-5.0011,-5.0011,-4.959,-4.9286,-4.9077,-4.856,-4.8728,-4.9421,-4.8941,-4.9085,-4.9662,-4.9395,-4.955,-4.9955,0.0,0.0,0.0,0.0,0.0,0.0,0.0,0.0,0.0,0.0,-5.2698,-5.2698,-5.2698,0.0,0.0,0.0,0.0,0.0,-5.2698,-5.2698,-5.2698,-5.2698,-5.2698,-5.2698,0.0,0.0,0.0,0.0,0.0,0.0,0.0,0.0,0.0,0.0,0.0,0.0,0.0,0.0,0.0,0.0,0.0,0.0,0.0,0.0,0.0,0.0,0.0,0.0,0.0,0.0,-6.4888,-6.4888,-6.4888,-6.4888,-6.4888,-6.4888,-6.4888,-6.4888,-6.4888,-6.4888,-6.4888,-6.4888,-6.4888,-6.4888,0.0,-6.4888,-6.4888,-6.4888,-6.4888,-6.4888,-6.4888,-6.4888,-6.4888,-6.4888,-6.4888,-6.4888,0.0,0.0,0.0,0.0,0.0,0.0,0.0,0.0,0.0,0.0,0.0,0.0,0.0,0.0,0.0,0.0,0.0,0.0,0.0,0.0,-5.0011,-5.0011,-5.0011,-5.0011,-5.0011,-5.0011,-5.0011,-5.0011,-4.9376,-4.9018,-4.8813,-4.8862,-4.9691,-5.1094,-4.9819,-5.0029,-5.127,-5.0314,-5.026,-5.08,0.0,0.0,0.0,0.0,0.0,0.0,0.0,0.0,0.0,0.0,0.0,0.0,0.0,0.0,0.0,-5.2698,-5.2698,-5.2698,-5.2698,-5.2698,-5.2698,-5.2698,0.0,0.0,0.0,0.0,0.0,0.0,0.0,0.0,0.0,0.0,0.0,0.0,0.0,0.0,0.0,0.0,0.0,0.0,0.0,0.0,0.0,0.0,0.0,0.0,0.0,0.0,0.0,0.0,-6.4888,-6.4888,-6.4888,-6.4888,-6.4888,-6.4888,-6.4888,-6.4888,-6.4888,-6.4888,-6.4888,-6.4888,-6.4888,-6.4888,-6.4888,-6.4888,-6.4888,-6.4888,-6.4888,-6.4888,-6.4888,-6.4888,-6.4888,-6.4888,-6.4888,-6.4888,0.0,0.0,0.0,0.0,0.0,0.0,0.0,0.0,0.0,0.0,0.0,0.0,0.0,0.0,0.0,0.0,0.0,0.0,0.0,0.0,-5.0011,-5.0011,-5.0011,-5.0011,-5.0011,-5.0011,-5.0011,-5.0011,-4.9737,-4.9474,-4.9193,-5.0583,-5.0827,-5.005,-5.0624,-5.1015,-5.108,-5.0267,-4.9947,-5.005,-5.0603,0.0,0.0,0.0,0.0,0.0,0.0,0.0,0.0,0.0,0.0,0.0,0.0,0.0,-5.2698,-5.2698,-5.2698,-5.2698,-5.2698,-5.2698,-5.2698,-5.2698,-5.2698,0.0,0.0,0.0,0.0,0.0,0.0,0.0,0.0,0.0,0.0,0.0,0.0,0.0,0.0,0.0,0.0,0.0,0.0,0.0,0.0,0.0,0.0,0.0,0.0,0.0,0.0,0.0,-6.4888,-6.4888,-6.4888,-6.4888,-6.4888,-6.4888,-6.4888,-6.4888,-6.4888,-6.4888,-6.4888,-6.4888,-6.4888,-6.4888,-6.4888,-6.4888,-6.4888,-6.4888,-6.4888,-6.4888,-6.4888,-6.4888,-6.4888,-6.4888,-6.4888,-6.4888,0.0,0.0,0.0,0.0,0.0,0.0,0.0,0.0,0.0,0.0,0.0,0.0,0.0,0.0,0.0,0.0,0.0,0.0,0.0,-5.0011,-5.0218,-5.0666,-5.07,-5.0907,-5.1356,-5.0341,-5.0101,-5.07,-5.0879,-5.0386,-4.9404,-5.0652,-5.1321,-5.1379,-5.1165,-5.1365,-5.1806,-5.0995,-5.1177,-5.1977,-5.1224,-5.1741,0.0,0.0,0.0,0.0,0.0,0.0,0.0,0.0,-5.2698,-5.2698,0.0,0.0,-5.2698,-5.2698,-5.2698,-5.2698,-5.2698,-5.2698,-5.2698,-5.2698,0.0,0.0,0.0,0.0,0.0,0.0,0.0,0.0,0.0,0.0,0.0,0.0,0.0,0.0,0.0,0.0,0.0,0.0,0.0,0.0,0.0,0.0,0.0,0.0,0.0,0.0,0.0,0.0,-6.4888,-6.4888,-6.4888,-6.4888,-6.4888,-6.4888,-6.4888,-6.4888,-6.4888,-6.4888,-6.4888,-6.4888,-6.4888,-6.4888,-6.4888,-6.4888,-6.4888,-6.4888,-6.4888,-6.4888,-6.4888,-6.4888,-6.4888,-6.4888,-6.4888,-6.4888,0.0,0.0,0.0,0.0,0.0,0.0,0.0,0.0,0.0,0.0,0.0,0.0,0.0,0.0,0.0,0.0,0.0,0.0,-5.0321,-5.0355,-5.07,-5.1425,-5.1399,-5.1641,-5.2188,-5.0974,-5.0699,-5.1459,-5.1909,-5.1429,-5.0034,-5.131,-5.1918,-5.1915,-5.1878,-5.201,-5.2171,-5.1652,-5.2005,-5.2802,-5.1643,-5.2194,0.0,0.0,0.0,0.0,0.0,0.0,0.0,0.0,0.0,0.0,0.0,0.0,0.0,0.0,-5.2698,-5.2698,-5.2698,-5.2698,-5.2698,0.0,0.0,0.0,0.0,0.0,0.0,0.0,0.0,0.0,0.0,0.0,0.0,0.0,0.0,0.0,0.0,0.0,0.0,0.0,0.0,0.0,0.0,0.0,0.0,0.0,0.0,0.0,0.0,-6.4888,-6.4888,-6.4888,-6.4888,-6.4888,-6.4888,-6.4888,-6.4888,-6.4888,-6.4672,-6.4672,-6.4888,-6.4888,-6.4888,-6.4888,-6.4888,-6.4888,-6.4888,-6.4888,-6.4888,-6.4888,-6.4888,-6.4888,-6.4888,-6.4888,-6.4888,-6.4888,0.0,0.0,0.0,0.0,0.0,0.0,0.0,0.0,0.0,0.0,0.0,0.0,0.0,0.0,0.0,0.0,0.0,0.0,-5.108,-5.1114,-5.1429,-5.2153,-5.2066,-5.21,-5.2222,-5.1881,-5.1881,-5.2188,-5.2791,-5.243,-5.1113,-5.2876,-5.2767,-5.1182,-5.2799,-5.2955,-5.21,-5.21,-5.2052,-5.1893,-5.1754,-5.2219,-5.2986,0.0,0.0,0.0,0.0,0.0,0.0,0.0,-5.2698,0.0,0.0,0.0,0.0,0.0,-5.2698,-5.2698,-5.2698,-5.2698,0.0,0.0,0.0,0.0,0.0,0.0,0.0,0.0,0.0,0.0,0.0,0.0,0.0,0.0,0.0,0.0,0.0,0.0,0.0,0.0,0.0,0.0,0.0,0.0,0.0,0.0,0.0,0.0,0.0,-6.4888,-6.4888,-6.4888,-6.4888,-6.4888,-6.4888,-6.4888,-6.4888,-6.4857,-6.4149,-6.418,-6.4888,-6.4888,-6.4888,-6.4888,-6.4888,-6.4888,-6.4888,-6.4888,-6.4888,-6.4888,-6.4888,-6.4888,-6.4888,-6.4888,-6.4888,-6.4888,0.0,0.0,0.0,0.0,0.0,0.0,0.0,0.0,0.0,0.0,0.0,0.0,0.0,0.0,0.0,0.0,0.0,0.0,-5.1873,-5.1843,-5.2218,-5.3011,-5.2984,-5.3225,-5.3839,-5.3584,-5.2927,-5.1862,-5.2969,-5.2741,-5.1332,-5.2281,-5.2131,-5.1177,-5.2732,-5.2622,-5.1312,-5.2384,-5.2829,-5.2639,-5.1983,-5.2499,-5.3638,0.0,0.0,0.0,0.0,0.0,0.0,0.0,0.0,0.0,0.0,0.0,0.0,-5.2698,-5.2698,-5.2698,-5.2698,0.0,0.0,0.0,0.0,0.0,0.0,0.0,0.0,0.0,0.0,0.0,0.0,0.0,0.0,0.0,0.0,0.0,0.0,0.0,0.0,0.0,0.0,0.0,0.0,0.0,0.0,0.0,0.0,0.0,0.0,-6.4888,-6.4672,-6.4149,-6.4149,-6.3903,-6.3441,-6.3441,-6.3441,-6.3441,-6.3225,-6.3472,-6.4149,-6.4149,-6.4149,-6.418,-6.4672,-6.4888,-6.4888,-6.4888,-6.4888,-6.4888,-6.4888,-6.4888,-6.4888,-6.4888,-6.4888,-6.4888,0.0,0.0,0.0,0.0,0.0,0.0,0.0,0.0,0.0,0.0,-5.0252,0.0,0.0,0.0,0.0,0.0,0.0,0.0,0.0,-5.2701,-5.3046,-5.3804,-5.3776,-5.3888,-5.4303,-5.3815,-5.3213,-5.2472,-5.2977,-5.2732,-5.1769,-5.2428,-5.2122,-5.1103,-5.2988,-5.2838,-5.1299,-5.2545,-5.2994,-5.2852,-5.2304,-5.2653,-5.3477,0.0,0.0,0.0,0.0,0.0,0.0,0.0,0.0,0.0,0.0,0.0,0.0,-5.2698,-5.2698,-5.2698,-5.2698,0.0,0.0,0.0,0.0,0.0,0.0,0.0,0.0,0.0,0.0,0.0,0.0,0.0,0.0,0.0,0.0,0.0,0.0,0.0,0.0,0.0,0.0,0.0,0.0,0.0,0.0,0.0,0.0,0.0,0.0,-6.4057,-6.3872,-6.3441,-6.341,-6.3225,-6.2825,-6.2825,-6.2825,-6.2825,-6.2548,-6.2641,-6.3041,-6.3318,-6.341,-6.3441,-6.3872,-6.4057,-6.4087,-6.4364,-6.4457,-6.4487,-6.4795,-6.4888,-6.4888,-6.4888,-6.4888,-6.4888,0.0,0.0,0.0,0.0,0.0,0.0,0.0,0.0,0.0,0.0,-5.07,-5.1149,0.0,0.0,0.0,0.0,0.0,0.0,0.0,0.0,-5.3804,-5.4428,-5.4303,-5.4143,-5.398,-5.3179,-5.3109,-5.3786,-5.2939,-5.252,-5.2513,-5.3033,-5.2514,-5.1239,-5.3406,-5.3383,-5.1757,-5.2722,-5.3001,-5.2788,-5.2743,-5.2788,-5.3024,-5.375,0.0,0.0,0.0,0.0,0.0,0.0,0.0,0.0,0.0,0.0,0.0,-5.2698,-5.2698,-5.2698,0.0,0.0,0.0,0.0,0.0,0.0,0.0,0.0,0.0,0.0,0.0,0.0,0.0,0.0,0.0,0.0,0.0,0.0,0.0,0.0,0.0,0.0,0.0,0.0,0.0,0.0,0.0,0.0,0.0,0.0,0.0,-6.2825,-6.2794,-6.2733,-6.2733,-6.2702,-6.2641,-6.2641,-6.2641,-6.2641,-6.2025,-6.1717,-6.1748,-6.2425,-6.2764,-6.2825,-6.2825,-6.2825,-6.2856,-6.3472,-6.3749,-6.381,-6.4457,-6.4734,-6.4795,-6.4795,-6.4826,-6.4888,0.0,0.0,0.0,0.0,0.0,0.0,0.0,0.0,0.0,0.0,0.0,0.0,0.0,0.0,0.0,0.0,0.0,0.0,0.0,0.0,-5.4259,-5.4271,-5.4239,-5.4078,-5.3783,-5.4261,-5.45,-5.4398,-5.2998,-5.2961,-5.4088,-5.2902,-5.2507,-5.2738,-5.3811,-5.3346,-5.1832,-5.3913,-5.4399,-5.3664,-5.3011,-5.3521,-5.4694,-5.419,-5.3848,0.0,0.0,0.0,0.0,0.0,0.0,0.0,-5.2698,-5.2698,-5.2698,-5.2698,-5.2698,0.0,0.0,0.0,0.0,0.0,0.0,0.0,0.0,0.0,0.0,0.0,0.0,0.0,0.0,0.0,0.0,0.0,0.0,0.0,0.0,0.0,0.0,0.0,0.0,0.0,0.0,0.0,0.0,0.0,0.0,0.0,-6.2825,-6.2825,-6.2579,-6.2056,-6.2025,-6.1779,-6.1255,-6.1225,-6.1225,0.0,-6.1071,-6.1009,-6.104,-6.1717,-6.2302,-6.2825,-6.2825,-6.2825,-6.2825,-6.2979,-6.3041,-6.3041,-6.3195,-6.3595,-6.4057,-6.4057,-6.4426,-6.4888,0.0,0.0,0.0,0.0,0.0,0.0,0.0,0.0,0.0,0.0,0.0,0.0,0.0,0.0,0.0,0.0,0.0,0.0,0.0,0.0,-5.4993,-5.5172,-5.5139,-5.5074,-5.4805,-5.4801,-5.4899,-5.5141,-5.3533,-5.3132,-5.3934,-5.3406,-5.2901,-5.2501,-5.3665,-5.3428,-5.225,-5.3538,-5.3793,-5.3346,-5.2877,-5.3246,-5.4051,-5.4019,-5.375,-5.3434,-5.3879,0.0,0.0,0.0,0.0,0.0,0.0,0.0,-5.2698,-5.2698,-5.2698,-5.2698,0.0,0.0,0.0,0.0,0.0,0.0,0.0,0.0,0.0,0.0,0.0,0.0,0.0,0.0,0.0,0.0,0.0,0.0,0.0,0.0,0.0,0.0,0.0,0.0,0.0,0.0,0.0,0.0,0.0,-6.184,-6.184,-6.184,-6.1686,-6.1348,-6.1317,-6.1163,-6.0794,-6.0794,-6.0794,-6.0794,-6.0794,-6.0794,-6.0824,-6.1163,-6.1502,-6.184,-6.184,-6.184,-6.1871,-6.221,-6.2333,-6.2364,-6.2702,-6.3041,-6.3349,-6.3349,-6.3564,-6.3903,0.0,0.0,0.0,0.0,0.0,0.0,0.0,0.0,0.0,0.0,0.0,0.0,0.0,0.0,0.0,0.0,0.0,0.0,0.0,0.0,0.0,-5.6201,-5.6201,-5.603,-5.5718,-5.5216,-5.5174,-5.5673,-5.4571,-5.3838,-5.3563,-5.4089,-5.3611,-5.2393,-5.3809,-5.3965,-5.3157,-5.3157,-5.3246,-5.3334,-5.2877,-5.2966,-5.3434,-5.4008,-5.3664,-5.3024,-5.3922,-5.3565,-5.2698,-5.2698,0.0,0.0,0.0,0.0,-5.2698,-5.2698,-5.2698,-5.2698,0.0,0.0,0.0,0.0,0.0,0.0,0.0,0.0,0.0,0.0,0.0,0.0,0.0,0.0,0.0,0.0,0.0,0.0,0.0,0.0,0.0,0.0,0.0,0.0,0.0,0.0,0.0,0.0,0.0,-6.0794,-6.0794,-6.0794,-6.0794,-6.0794,-6.0794,-6.0794,-6.0794,-6.0794,-6.0794,-6.0794,-6.0794,-6.0794,-6.0794,-6.0794,-6.0794,-6.0794,-6.0794,-6.0794,-6.0824,-6.1409,-6.1625,-6.1686,-6.224,-6.2548,-6.2641,-6.2641,-6.2702,-6.2825,0.0,0.0,0.0,0.0,0.0,0.0,0.0,0.0,0.0,0.0,0.0,0.0,0.0,0.0,0.0,0.0,0.0,0.0,0.0,0.0,0.0,-5.6201,-5.6098,-5.5577,-5.4645,-5.6042,-5.6345,-5.5539,-5.6727,-5.6507,0.0,0.0,-5.4439,-5.4865,-5.5843,-5.5756,-5.4943,-5.4943,-5.5393,-5.5876,-5.3608,-5.4051,-5.5995,-5.5393,-5.4611,-5.3965,-5.4819,-5.4094,-5.2698,-5.2698,-5.2698,0.0,0.0,0.0,-5.2698,-5.2698,-5.2698,0.0,0.0,0.0,0.0,0.0,0.0,0.0,0.0,0.0,0.0,0.0,0.0,0.0,0.0,0.0,0.0,0.0,0.0,0.0,0.0,0.0,0.0,0.0,0.0,0.0,0.0,0.0,0.0,0.0,-6.0794,-6.0794,-6.0794,-6.0794,-6.0794,-6.0794,-6.0794,-6.0794,-6.0794,-6.0794,-6.0794,-6.0794,-6.0794,-6.0794,-6.0794,-6.0794,-6.0794,-6.0794,-6.0794,-6.0794,-6.0824,-6.0886,-6.0948,-6.0948,-6.104,-6.144,-6.1933,-6.1933,-6.2302,-6.2825,0.0,0.0,0.0,0.0,0.0,0.0,0.0,0.0,0.0,0.0,0.0,0.0,0.0,0.0,0.0,0.0,0.0,0.0,0.0,0.0,0.0,-5.715,-5.7219,-5.697,-5.6359,-5.7167,-5.7335,-5.6828,-5.6563,0.0,0.0,-5.519,-5.4736,0.0,-5.5474,-5.5393,-5.4569,-5.4569,-5.4819,-5.5026,-5.3346,-5.3695,-5.5067,-5.4179,-5.3608,-5.3302,-5.3738,-5.3346,-5.2698,-5.2698,-5.2698,-5.2698,-5.2698,0.0,0.0,0.0,-5.2698,0.0,0.0,0.0,0.0,0.0,0.0,0.0,0.0,0.0,0.0,0.0,0.0,0.0,0.0,0.0,0.0,0.0,0.0,0.0,0.0,0.0,0.0,0.0,0.0,0.0,0.0,0.0,0.0,0.0,-6.0794,-6.0794,-6.0794,-6.0794,-6.0794,-6.0794,-6.0794,-6.0794,-6.0794,-6.0794,-6.0794,-6.0794,-6.0794,-6.0794,-6.0794,-6.0794,-6.0794,-6.0794,-6.0794,-6.0794,-6.0794,-6.0794,-6.0794,-6.0794,-6.0794,-6.0978,-6.1255,-6.1255,-6.144,-6.1686,0.0,0.0,0.0,0.0,0.0,0.0,0.0,0.0,0.0,0.0,0.0,0.0,0.0,0.0,0.0,0.0,0.0,0.0,0.0,0.0,0.0,-5.8063,-5.8099,-5.7954,-5.7588,-5.7808,-5.7698,-5.7222,0.0,0.0,-5.6303,-5.6074,-5.5515,0.0,-5.5353,-5.5393,-5.4952,-5.4274,-5.4274,-5.4569,-5.3246,-5.3246,-5.3934,-5.3258,-5.2922,-5.2698,-5.2935,-5.2877,-5.2698,-5.2698,-5.2698,-5.2698,-5.2698,-5.2698,0.0,0.0,0.0,0.0,0.0,0.0,0.0,0.0,0.0,0.0,0.0,0.0,0.0,0.0,0.0,0.0,0.0,0.0,0.0,0.0,0.0,0.0,0.0,0.0,0.0,0.0,0.0,0.0,0.0,0.0,0.0,0.0,-6.0794,-6.0794,-6.0794,-6.0794,-6.0794,-6.0794,-6.0794,-6.0794,-6.0794,-6.0794,-6.0794,-6.0794,-6.0794,-6.0794,-6.0794,-6.0794,-6.0794,-6.0794,-6.0794,-6.0794,-6.0794,-6.0794,-6.0794,-6.0794,-6.0794,-6.0794,-6.0794,-6.0794,-6.0794,-6.0794,0.0,0.0,0.0,0.0,0.0,0.0,0.0,0.0,0.0,0.0,0.0,0.0,-5.6633,-5.6736,-5.7047,-5.7771,-5.7671,0.0,0.0,0.0,0.0,-5.8455,-5.8099,0.0,-5.6691,-5.748,-5.7072,0.0,0.0,0.0,-5.5393,-5.6996,-5.7293,-5.6459,-5.6498,-5.6958,-5.7517,0.0,0.0,0.0,-5.3738,-5.3246,-5.3976,-5.3934,-5.3434,-5.2788,-5.362,-5.339,-5.2698,-5.2698,-5.2698,-5.2698,-5.2698,-5.2698,-5.2698,0.0,0.0,0.0,0.0,0.0,0.0,0.0,0.0,0.0,0.0,0.0,0.0,0.0,0.0,0.0,0.0,0.0,0.0,0.0,0.0,0.0,0.0,0.0,0.0,0.0,0.0,0.0,0.0,0.0,0.0,0.0,0.0,-6.0794,-6.0794,-6.0794,-6.0794,-6.0794,-6.0794,-6.0794,-6.0794,-6.0794,-6.0794,-6.0794,-6.0794,-6.0794,-6.0794,-6.0794,-6.0794,-6.0794,-6.0794,-6.0794,-6.0794,-6.0794,-6.0794,-6.0794,-6.0794,-6.0794,-6.0794,-6.0794,-6.0794,-6.0794,0.0,0.0,0.0,0.0,0.0,0.0,0.0,0.0,0.0,0.0,0.0,0.0,0.0,-5.7529,-5.7805,-5.8564,-5.8462,0.0,0.0,0.0,0.0,-5.8312,-5.7517,-5.7181,-5.7443,-5.7218,0.0,0.0,0.0,-5.7034,-5.6958,-5.7034,-5.7218,-5.7443,-5.7443,-5.6996,-5.6192,-5.5836,0.0,0.0,0.0,-5.4094,-5.4736,-5.3577,-5.298,-5.2743,-5.3069,0.0,-5.2698,-5.2698,-5.2698,-5.2698,-5.2698,-5.2698,-5.2698,-5.2698,-5.2698,0.0,0.0,0.0,0.0,0.0,0.0,0.0,0.0,0.0,0.0,0.0,0.0,0.0,0.0,0.0,0.0,0.0,0.0,0.0,0.0,0.0,0.0,0.0,0.0,0.0,0.0,0.0,0.0,0.0,0.0,-6.0794,-6.0794,-6.0794,-6.0794,-6.0794,-6.0794,-6.0794,-6.0794,-6.0794,-6.0794,-6.0794,-6.0794,-6.0794,-6.0794,-6.0794,-6.0794,-6.0794,-6.0794,-6.0794,-6.0794,-6.0794,-6.0794,-6.0794,-6.0794,-6.0794,-6.0794,-6.0794,-6.0794,-6.0794,0.0,0.0,0.0,0.0,0.0,0.0,0.0,0.0,-5.6288,-5.7081,0.0,0.0,0.0,0.0,-5.8393,-5.8806,-5.8806,-5.8666,-5.8419,-5.8277,-5.8171,-5.8171,-5.7443,-5.7293,-5.7881,-5.7331,0.0,0.0,0.0,0.0,0.0,-5.7181,-5.7218,-5.748,-5.7772,-5.7293,0.0,0.0,0.0,-5.5198,0.0,0.0,-5.4274,0.0,0.0,0.0,0.0,0.0,0.0,-5.2698,-5.2698,-5.2698,-5.2698,-5.2698,-5.2698,-5.2698,-5.2698,0.0,0.0,0.0,0.0,0.0,0.0,0.0,0.0,0.0,0.0,0.0,0.0,0.0,0.0,0.0,0.0,0.0,0.0,0.0,0.0,0.0,0.0,0.0,0.0,0.0,0.0,0.0,0.0,0.0,0.0,0.0,-6.0794,-6.0794,-6.0794,-6.0794,-6.0794,-6.0794,-6.0794,-6.0794,-6.0794,-6.0794,-6.0794,-6.0794,-6.0794,-6.0794,-6.0794,-6.0794,-6.0794,-6.0794,-6.0794,-6.0794,-6.0794,-6.0794,-6.0794,-6.0794,-6.0794,-6.0794,-6.0794,-6.0794,0.0,0.0,0.0,0.0,0.0,0.0,0.0,0.0,-5.7116,-5.784,0.0,0.0,0.0,0.0,0.0,-5.8525,-5.8666,-5.8631,-5.8207,-5.8171,-5.8205,-5.8241,-5.7991,-5.7881,0.0,0.0,0.0,0.0,0.0,0.0,0.0,0.0,-5.7443,-5.6691,-5.7517,-5.7881,-5.7808,0.0,-5.5312,-5.5198,0.0,-5.3521,-5.2743,0.0,0.0,0.0,-5.276,-5.276,0.0,-5.276,0.0,-5.2729,-5.2729,-5.2698,-5.2698,-5.2698,-5.2698,-5.2698,0.0,0.0,0.0,0.0,0.0,0.0,0.0,0.0,0.0,0.0,0.0,0.0,0.0,0.0,0.0,0.0,0.0,0.0,0.0,0.0,0.0,0.0,0.0,0.0,0.0,0.0,0.0,0.0,-6.0794,-6.0794,-6.0794,-6.0794,-6.0794,-6.0794,-6.0794,-6.0794,-6.0794,-6.0794,-6.0794,-6.0794,-6.0794,-6.0794,-6.0794,-6.0794,-6.0794,-6.0794,-6.0794,-6.0794,-6.0794,-6.0794,-6.0794,-6.0794,-6.0794,-6.0794,-6.0794,-6.0794,-6.0794,-6.0794,0.0,0.0,0.0,0.0,0.0,-5.6978,-5.7529,-5.7598,-5.7874,0.0,0.0,0.0,-5.8978,-5.9012,-5.8875,-5.8525,-5.8561,-5.8525,-5.8419,-5.8135,-5.8099,-5.8419,-5.748,-5.7256,-5.7881,-5.7293,0.0,0.0,0.0,-5.7772,-5.7551,-5.7808,0.0,0.0,-5.7808,-5.7881,-5.7845,-5.6729,0.0,0.0,-5.4359,-5.3879,0.0,0.0,0.0,0.0,0.0,-5.4129,-5.4129,0.0,-5.3791,-5.3345,-5.2852,-5.2698,-5.2698,-5.2698,-5.2698,-5.2698,-5.2698,0.0,0.0,0.0,0.0,0.0,0.0,0.0,0.0,0.0,0.0,0.0,0.0,0.0,0.0,0.0,0.0,0.0,0.0,0.0,0.0,0.0,0.0,0.0,0.0,0.0,0.0,0.0,-6.0794,-6.0794,-6.0794,-6.0794,-6.0794,-6.0794,-6.0794,-6.0794,-6.0794,-6.0794,-6.0794,-6.0794,-6.0794,-6.0794,-6.0794,-6.0794,-6.0794,-6.0794,-6.0794,-6.0794,-6.0794,-6.0794,-6.0794,-6.0794,-6.0794,-6.0794,-6.0794,-6.0794,-6.0794,-6.0794,0.0,0.0,0.0,0.0,0.0,-5.7874,-5.8288,-5.8357,-5.853,0.0,0.0,0.0,-5.9012,-5.8944,-5.8806,-5.8525,-5.8561,-5.8561,-5.8384,-5.8135,-5.8099,-5.8384,-5.7591,-5.7368,-5.7881,-5.7406,-5.7406,-5.7881,-5.7881,-5.7881,-5.7881,-5.7881,-5.7698,-5.7368,0.0,0.0,0.0,0.0,0.0,0.0,-5.487,0.0,0.0,-5.3892,-5.3853,0.0,0.0,0.0,-5.4683,-5.4683,-5.4406,0.0,-5.3683,-5.3514,-5.3498,-5.3221,-5.3129,-5.3067,-5.279,-5.2914,-5.3221,0.0,0.0,0.0,0.0,0.0,0.0,0.0,0.0,0.0,0.0,0.0,0.0,0.0,0.0,0.0,0.0,0.0,0.0,0.0,0.0,0.0,0.0,0.0,0.0,-6.0794,-6.0794,-6.0794,-6.0794,-6.0794,-6.0794,-6.0794,-6.0794,-6.0794,-6.0794,-6.0794,-6.0794,-6.0794,-6.0794,-6.0794,-6.0794,-6.0794,-6.0794,-6.0794,-6.0794,-6.0794,-6.0794,-6.0794,-6.0794,-6.0794,-6.0794,-6.0794,-6.0794,-6.0794,-6.0794,-6.0794,0.0,0.0,-5.8012,-5.8012,-5.853,-5.8978,-5.9012,-5.8978,-5.8978,0.0,-5.8944,-5.8944,-5.9012,-5.8875,-5.8666,-5.8525,-5.8631,-5.8596,-5.8207,-5.8171,-5.8205,-5.8171,-5.7991,-5.7881,-5.7881,-5.7881,-5.7881,-5.7881,-5.7881,-5.7881,-5.7881,-5.7881,-5.748,-5.6768,0.0,0.0,0.0,0.0,0.0,-5.663,-5.5653,-5.5175,0.0,0.0,-5.4299,-5.4806,-5.5007,-5.5021,-5.5021,-5.4929,-5.4868,0.0,0.0,0.0,0.0,-5.3976,-5.3791,-5.3714,-5.3098,-5.3375,-5.3791,-5.3791,0.0,0.0,-5.5684,-5.6286,-5.681,0.0,0.0,0.0,0.0,0.0,0.0,0.0,0.0,0.0,0.0,0.0,0.0,0.0,0.0,0.0,0.0,-6.0794,-6.0794,-6.0794,-6.0794,-6.0794,-6.0794,-6.0794,-6.0794,-6.0794,-6.0794,-6.0794,-6.0794,-6.0794,-6.0794,-6.0794,-6.0794,-6.0794,-6.0794,-6.0794,-6.0794,-6.0794,-6.0794,-6.0794,-6.0794,-6.0794,-6.0794,-6.0794,-6.0794,-6.0794,-6.0794,-6.0794,-6.0794,-6.0794,0.0,-5.8702,-5.8806,-5.8806,-5.8806,-5.8875,-5.8978,-5.8909,-5.884,-5.884,-5.8701,-5.8701,-5.8978,-5.8736,-5.8525,-5.849,-5.8384,-5.8312,-5.8241,-5.8027,-5.8027,-5.8171,-5.7991,-5.7881,-5.7881,-5.7881,-5.7881,-5.7881,-5.7881,-5.7881,-5.7881,-5.7881,-5.7808,-5.7662,0.0,0.0,0.0,0.0,0.0,-5.7278,-5.5696,0.0,-5.5014,-5.5225,-5.5376,-5.5653,-5.6761,-5.7192,-5.71,-5.6546,-5.5992,-5.5407,0.0,0.0,0.0,-5.4529,-5.4468,-5.4468,-5.4345,-5.4375,-5.4468,-5.4468,0.0,0.0,-5.5684,-5.6286,-5.681,0.0,0.0,0.0,0.0,0.0,0.0,0.0,0.0,0.0,0.0,0.0,0.0,0.0,0.0,0.0,0.0,-6.0794,-6.0794,-6.0794,-6.0794,-6.0794,-6.0794,-6.0794,-6.0794,-6.0794,-6.0794,-6.0794,-6.0794,-6.0794,-6.0794,-6.0794,-6.0794,-6.0794,-6.0794,-6.0794,-6.0794,-6.0794,-6.0794,-6.0794,-6.0794,-6.0794,-6.0794,-6.0794,-6.0794,-6.0794,-6.0794,-6.0794,-6.0794,-6.0794,-5.8944,-5.9012,-5.9012,-5.9012,-5.8944,-5.8909,-5.8978,-5.8944,-5.8909,-5.8909,-5.8666,-5.8596,-5.8875,-5.8596,-5.8348,-5.8348,-5.8277,-5.8171,-5.8171,-5.7991,-5.7991,-5.8171,-5.7991,-5.7881,-5.7881,-5.7881,-5.7881,-5.7881,-5.7881,-5.7881,-5.7881,-5.7881,-5.7881,-5.7881,0.0,0.0,0.0,0.0,-5.8601,-5.8636,-5.6478,0.0,-5.6023,-5.6185,-5.6453,-5.6854,-5.79,-5.827,-5.8239,-5.7919,-5.7531,0.0,-5.6453,-5.6238,-5.6115,0.0,-5.5222,-5.513,0.0,0.0,0.0,-5.5222,0.0,0.0,0.0,-5.6563,0.0,0.0,0.0,0.0,0.0,0.0,0.0,0.0,0.0,0.0,0.0,0.0,0.0,0.0,0.0,0.0,0.0,-6.0794,-6.0794,-6.0794,-6.0794,-6.0794,-6.0794,-6.0794,-6.0794,-6.0794,-6.0794,-6.0794,-6.0794,-6.0794,-6.0794,-6.0794,-6.0794,-6.0794,-6.0794,-6.0794,-6.0794,-6.0794,-6.0794,-6.0794,-6.0794,-6.0794,-6.0794,-6.0794,-6.0794,-6.0794,-6.0794,-6.0794,-6.0794,-6.0794,-5.9012,-5.9012,-5.9012,-5.9012,-5.8978,-5.8978,-5.9012,-5.8978,-5.8944,-5.8944,-5.8666,-5.8525,-5.8701,-5.8384,-5.8135,-5.8205,-5.8135,-5.8135,-5.8135,-5.7991,-5.7954,-5.8169,-5.7991,-5.7881,-5.7881,-5.7881,-5.7881,-5.7881,-5.7881,-5.7881,-5.7881,-5.7881,-5.7983,0.0,0.0,0.0,0.0,0.0,0.0,-5.9801,0.0,-5.7162,-5.7449,-5.7307,-5.7572,-5.8104,-5.8731,-5.8978,-5.8978,-5.8978,-5.8885,-5.8701,-5.8146,-5.8011,0.0,0.0,0.0,0.0,0.0,0.0,0.0,0.0,0.0,-5.681,0.0,0.0,0.0,0.0,0.0,0.0,0.0,0.0,0.0,0.0,0.0,0.0,0.0,0.0,0.0,0.0,0.0,0.0,0.0,-6.0794,-6.0794,-6.0794,-6.0794,-6.0794,-6.0794,-6.0794,-6.0794,-6.0794,-6.0794,-6.0794,-6.0794,-6.0794,-6.0794,-6.0794,-6.0794,-6.0794,-6.0794,-6.0794,-6.0794,-6.0794,-6.0794,-6.0794,-6.0794,-6.0794,-6.0794,-6.0794,-6.0794,-6.0794,-6.0794,-6.0794,-6.0794,-6.0794,-5.9012,-5.9012,-5.9012,-5.9012,-5.8909,-5.8875,-5.8978,-5.8909,-5.8806,-5.8806,-5.849,-5.8312,-5.8525,-5.8205,-5.7991,-5.8171,-5.8027,-5.7918,-5.7918,-5.7918,-5.7918,-5.7918,-5.7918,-5.7881,-5.7881,-5.7881,-5.7881,-5.7881,-5.7881,-5.7881,-5.7881,-5.7881,-5.8254,0.0,-5.8896,0.0,0.0,0.0,-5.9825,0.0,-5.9231,-5.9164,0.0,-5.9029,-5.8806,-5.8762,-5.9439,-5.9686,-5.9686,0.0,-5.9285,-5.8762,0.0,-5.867,-5.8807,-5.9567,0.0,0.0,0.0,0.0,0.0,0.0,-5.6748,0.0,0.0,0.0,-5.681,-5.681,0.0,0.0,0.0,0.0,0.0,0.0,0.0,0.0,0.0,0.0,0.0,0.0,0.0,0.0,0.0,0.0,-6.0794,-6.0794,-6.0794,-6.0794,-6.0794,-6.0794,-6.0794,-6.0794,-6.0794,-6.0794,-6.0794,-6.0794,-6.0794,-6.0794,-6.0794,-6.0794,-6.0794,-6.0794,-6.0794,-6.0794,-6.0794,-6.0794,-6.0794,-6.0794,-6.0794,-6.0794,-6.0794,-6.0794,-6.0794,-6.0794,-6.0794,-6.0794,-5.9012,-5.9012,-5.9012,-5.9012,-5.8944,-5.8944,-5.8978,-5.8909,-5.8805,-5.8805,-5.8455,-5.8241,-5.8312,-5.8063,-5.8087,-5.8601,-5.8595,-5.8727,0.0,-5.9167,-5.9167,-5.9167,-5.9167,-5.9167,-5.9167,-5.9167,-5.9167,-5.9167,-5.9167,-5.9167,-5.9167,-5.9167,-5.9336,0.0,-5.9641,0.0,-6.0825,0.0,0.0,0.0,0.0,0.0,0.0,-6.004,-6.0066,-6.0889,-6.1171,-6.1265,-6.1265,0.0,-6.0656,0.0,0.0,0.0,0.0,0.0,0.0,0.0,0.0,0.0,0.0,0.0,0.0,0.0,-5.8079,0.0,-5.865,0.0,0.0,0.0,0.0,0.0,0.0,0.0,0.0,0.0,0.0,0.0,0.0,0.0,0.0,0.0,0.0,0.0,0.0,0.0,-6.0794,-6.0794,-6.0794,-6.0794,-6.0794,-6.0794,-6.0794,-6.0794,-6.0794,-6.0794,-6.0794,-6.0794,-6.0794,-6.0794,-6.0794,-6.0794,-6.0794,-6.0794,-6.0794,-6.0794,-6.0794,-6.0794,-6.0794,-6.0794,-6.0794,-6.0794,-6.0794,-6.0794,-6.0794,-6.0794,-5.9012,-5.9012,-5.9012,-5.9012,-5.9012,-5.9012,-5.9012,-5.8909,-5.8771,-5.8701,-5.8625,-5.8547,-5.8439,-5.8499,0.0,0.0,-5.9302,-5.9539,0.0,-6.0114,-6.0114,-6.0114,-6.0114,-6.0114,-6.0114,-6.0114,-6.0114,-6.0114,-6.0114,-6.0114,-6.0114,-6.0114,-6.0216,-6.0452,0.0,-6.1163,-6.1941,0.0,0.0,-6.2709,-6.3953,-6.387,-6.2731,-6.1283,-6.1696,-6.2949,-6.2575,-6.2638,-6.2838,-6.2538,-6.2164,0.0,-6.0978,0.0,0.0,0.0,0.0,0.0,-5.952,0.0,0.0,0.0,0.0,0.0,0.0,0.0,0.0,0.0,0.0,0.0,0.0,0.0,-5.8862,-5.916,0.0,-5.8862,0.0,0.0,0.0,0.0,0.0,0.0,0.0,0.0,0.0,-6.0794,-6.0794,-6.0794,-6.0794,-6.0794,-6.0794,-6.0794,-6.0794,-6.0794,-6.0794,-6.0794,-6.0794,-6.0794,-6.0794,-6.0794,-6.0794,-6.0794,-6.0794,-6.0794,-6.0794,-6.0794,-6.0794,-6.0794,-6.0794,-6.0794,-6.0794,-6.0794,-6.0794,-6.0794,-6.0794,-6.0794,-5.9012,-5.9012,-5.9012,0.0,0.0,0.0,-5.9012,0.0,0.0,0.0,0.0,0.0,0.0,0.0,0.0,0.0,0.0,-6.008,-6.0114,0.0,-6.0114,-6.0114,-6.0114,-6.0114,-6.0114,-6.0114,-6.0114,-6.0114,-6.0114,-6.0114,-6.0114,-6.0114,-6.052,-6.1298,-6.2009,-6.2753,-6.3497,-6.4241,-6.438,-6.4123,-6.42,-6.3849,-6.3268,0.0,-6.3864,-6.4642,-6.3298,0.0,0.0,-6.3127,-6.3464,0.0,0.0,0.0,0.0,0.0,0.0,0.0,0.0,0.0,0.0,-5.8947,0.0,0.0,0.0,0.0,-5.8812,0.0,0.0,0.0,-5.8793,-5.8793,-5.9111,-6.0122,-5.9425,0.0,0.0,0.0,0.0,0.0,0.0,0.0,0.0,0.0,0.0,-6.0794,-6.0794,-6.0794,-6.0794,-6.0794,-6.0794,-6.0794,-6.0794,-6.0794,-6.0794,-6.0794,-6.0794,-6.0794,-6.0794,-6.0794,-6.0794,-6.0794,-6.0794,-6.0794,-6.0794,-6.0794,-6.0794,-6.0794,-6.0794,-6.0794,-6.0794,-6.0794,-6.0794,-6.0794,-6.0794,-6.0794,-5.9012,-5.9012,0.0,0.0,0.0,0.0,0.0,-5.9147,0.0,0.0,0.0,0.0,0.0,-6.0757,-6.1298,0.0,0.0,-6.2584,-6.3057,-6.3091,0.0,-6.2381,-6.2347,-6.211,-6.1637,-6.1603,-6.1603,-6.1603,-6.1603,-6.1603,-6.1637,-6.211,-6.2516,-6.2787,0.0,-6.4005,0.0,0.0,0.0,0.0,0.0,-6.6272,-6.5866,0.0,-6.4228,-6.453,-6.4784,-6.4628,0.0,-6.4697,-6.4169,-6.3316,-6.3047,-6.372,-6.4534,-6.4261,-6.4461,-6.4722,0.0,0.0,-6.2967,-6.2053,0.0,0.0,0.0,0.0,0.0,0.0,0.0,0.0,-6.0116,-6.0116,-6.0442,-6.1477,-6.133,-6.132,0.0,0.0,0.0,0.0,0.0,0.0,0.0,0.0,0.0,-6.0794,-6.0794,-6.0794,-6.0794,-6.0794,-6.0794,-6.0794,-6.0794,-6.0794,-6.0794,-6.0794,-6.0794,-6.0794,-6.0794,-6.0794,-6.0794,-6.0794,-6.0794,-6.0794,-6.0794,-6.0794,-6.0794,-6.0794,-6.0794,-6.0794,-6.0794,-6.0794,-6.0794,-6.0794,-6.0794,-6.0794,-5.9012,0.0,0.0,0.0,0.0,0.0,0.0,0.0,0.0,0.0,-6.0642,0.0,-6.2009,0.0,-6.2854,0.0,-6.3903,-6.4106,-6.458,-6.4613,0.0,-6.3903,-6.3903,-6.3666,-6.3193,-6.3159,-6.3159,-6.3159,-6.3159,-6.3159,-6.3193,-6.3666,-6.3903,-6.3937,0.0,0.0,0.0,0.0,-6.6372,0.0,0.0,-6.8232,0.0,0.0,-6.6106,-6.5913,0.0,-6.6482,-6.6266,-6.6581,-6.6067,-6.5223,-6.4919,-6.5331,-6.5767,-6.5112,-6.5148,-6.5346,-6.4948,-6.453,0.0,-6.3355,-6.3779,0.0,-6.1939,0.0,-6.2717,0.0,0.0,0.0,0.0,-6.0794,-6.1124,-6.2121,-6.1972,-6.1964,0.0,-6.2061,-6.1599,0.0,0.0,0.0,0.0,0.0,-6.0794,-6.0794,-6.0794,-6.0794,0.0,0.0,-6.0794,-6.0794,-6.0794,-6.0794,-6.0794,-6.0794,-6.0794,-6.0794,-6.0794,-6.0794,-6.0794,-6.0794,-6.0794,-6.0794,-6.0794,-6.0794,-6.0794,-6.0794,-6.0794,-6.0794,-6.0794,-6.0794,-6.0794,-6.0794,-6.0794,-6.0794,0.0,0.0,0.0,0.0,-5.9598,0.0,0.0,0.0,-6.0975,0.0,-6.228,-6.3017,-6.3599,-6.4309,-6.4749,-6.4816,-6.4816,-6.4816,-6.4816,-6.4816,0.0,0.0,-6.4715,-6.4681,-6.4613,-6.4613,-6.4613,-6.458,-6.4613,-6.4613,-6.4613,-6.4647,-6.4647,-6.4681,-6.5459,0.0,-6.5831,-6.732,-6.7996,-6.8132,-6.9654,-6.9614,-6.8738,-6.9481,-6.9315,-6.8597,-6.8291,-6.8765,-6.9475,-6.8519,-6.8814,-6.9519,-6.8777,-6.8625,-6.8319,-6.6565,-6.5393,-6.4449,-6.3419,-6.307,-6.307,-6.2963,-6.2932,0.0,0.0,0.0,-6.1893,0.0,0.0,0.0,0.0,-6.0886,-6.1186,-6.2184,-6.1582,-6.1328,-6.227,-6.2418,-6.2418,-6.2319,0.0,0.0,0.0,-6.0794,-6.0794,-6.0794,-6.0794,0.0,0.0,0.0,-6.0794,-6.0794,-6.0794,-6.0794,-6.0794,-6.0794,-6.0794,-6.0794,-6.0794,-6.0794,-6.0794,-6.0794,-6.0794,-6.0794,-6.0794,-6.0794,-6.0794,-6.0794,-6.0794,-6.0794,-6.0794,-6.0794,-6.0794,-6.0794,-6.0794,-6.0794,-6.0703,-6.0703,-6.0703,0.0,-6.084,-6.0835,0.0,0.0,0.0,0.0,-6.3306,-6.4553,-6.5831,-6.6136,-6.6711,-6.7861,-6.7929,0.0,0.0,0.0,0.0,-6.6305,-6.6237,-6.573,-6.4613,-6.4613,-6.4661,-6.4822,-6.4661,-6.4661,-6.4822,-6.5237,-6.5425,-6.5459,0.0,0.0,-6.6643,-6.8132,-6.9113,-6.9688,-7.0635,-7.0385,0.0,0.0,-7.0289,-6.9434,-6.9313,-6.8911,-6.8568,-6.9138,-6.8944,-6.8519,-6.8274,-6.8779,-6.932,-6.8884,-6.9088,-6.9277,-6.8209,-6.7525,-6.6744,-6.5164,-6.4906,-6.4647,-6.3167,-6.3276,0.0,0.0,0.0,0.0,-6.2302,-6.1902,-6.1898,-6.2877,-6.3677,-6.3984,-6.3466,-6.4077,0.0,-6.2516,0.0,0.0,-6.0897,-6.0794,-6.0794,-6.0794,-6.0794,0.0,0.0,0.0,0.0,-6.0794,-6.0794,-6.0794,-6.0794,-6.0794,-6.0794,-6.0794,-6.0794,-6.0794,-6.0794,-6.0794,-6.0794,-6.0794,-6.0794,-6.0794,-6.0794,-6.0794,-6.0794,-6.0794,-6.0794,-6.0794,-6.0794,-6.0794,-6.0794,-6.0886,-6.1289,0.0,0.0,-6.2289,0.0,0.0,-6.1876,0.0,0.0,-6.4282,-6.5053,0.0,-6.7658,-6.7827,-6.8166,-6.9011,-6.9113,0.0,-6.9113,0.0,0.0,-6.7861,-6.7827,-6.7421,-6.6576,-6.6576,0.0,-6.6241,-6.6076,-6.5948,-6.5725,-6.6008,-6.6339,0.0,0.0,-6.7557,0.0,-6.9079,-6.9992,-7.0737,-7.1142,0.0,0.0,-7.1052,-7.0916,-7.0389,-7.0389,-6.9982,-6.9604,-7.0203,-6.9982,-6.9508,-6.9508,-6.9604,-6.9713,-6.9713,-6.9794,-6.9746,-6.9187,-6.8698,-6.8079,-6.6938,-6.6396,-6.5823,-6.4642,-6.4212,-6.3888,-6.3364,-6.301,-6.2825,-6.2825,-6.2517,-6.2359,-6.2591,-6.3626,-6.4106,-6.3292,0.0,0.0,0.0,-6.2972,0.0,-6.2171,-6.1328,-6.0794,-6.0794,-6.0794,0.0,0.0,0.0,0.0,-6.0794,-6.0794,-6.0794,-6.0794,-6.0794,-6.0794,-6.0794,-6.0794,-6.0794,-6.0794,-6.0794,-6.0794,-6.0794,-6.0794,-6.0794,-6.0794,-6.0794,-6.0978,-6.1255,-6.1563,-6.1686,-6.1686,-6.1686,-6.1502,-6.1348,0.0,0.0,0.0,0.0,0.0,0.0,0.0,-6.4477,0.0,-6.6779,0.0,-6.7658,-6.9079,-6.9248,-6.9282,-6.9383,0.0,-6.9383,-6.9383,-6.9383,-6.935,-6.9248,-6.9248,-6.9214,-6.9113,-6.9113,-6.8784,-6.815,-6.8005,-6.7633,-6.7032,-6.6846,0.0,0.0,0.0,0.0,0.0,-6.9958,-7.0635,0.0,-7.1312,-7.1312,-7.1312,-7.1312,-7.1312,-7.1312,-7.1312,-7.1312,-7.1312,-7.1312,-7.1312,-7.1312,-7.1312,-7.0654,-6.9935,-6.9935,-6.9235,-6.8502,-6.8321,-6.8271,-6.8221,-6.7921,-6.7189,-6.6438,-6.6332,-6.5071,-6.3964,-6.3964,-6.3502,-6.3102,-6.3102,-6.301,-6.2786,-6.2236,-6.2766,-6.3091,0.0,0.0,0.0,0.0,0.0,0.0,-6.3609,-6.2022,-6.1,0.0,0.0,0.0,0.0,0.0,0.0,-6.0794,-6.0794,-6.0794,-6.0794,-6.0794,-6.0794,-6.0794,-6.0794,-6.0794,-6.0794,-6.0886,-6.0917,-6.0948,-6.1009,-6.1071,-6.1071,-6.1071,-6.1409,-6.1994,-6.2579,-6.2825,-6.2825,-6.2918,-6.2579,-6.2148,0.0,0.0,0.0,0.0,0.0,-6.7038,-6.6758,-6.6691,-6.6962,-6.7633,-6.8301,-6.9045,-6.9891,-6.9992,-7.0263,-7.0872,-7.0939,0.0,0.0,0.0,0.0,-7.0026,-6.9992,-6.9722,-6.9113,-6.9113,-6.9184,-6.9399,-6.837,-6.804,-6.8239,-6.7251,0.0,0.0,0.0,0.0,-7.0906,-7.0398,0.0,-7.1312,-7.1312,-7.1312,-7.1312,-7.1312,-7.1312,-7.1312,-7.1312,-7.1312,-7.1312,-7.1312,-7.1312,-7.1312,-7.1312,-7.1176,-7.1007,-7.1007,-7.0916,-7.0561,-6.9666,-6.9427,-6.8993,-6.724,-6.6649,-6.6258,-6.5406,-6.4961,-6.4703,-6.4703,-6.4611,-6.4518,-6.4518,-6.4057,-6.3733,-6.39,-6.3558,-6.3249,0.0,0.0,0.0,0.0,0.0,-6.2534,0.0,0.0,0.0,0.0,0.0,0.0,0.0,0.0,0.0,0.0,-6.0794,0.0,0.0,0.0,-6.0794,-6.0794,-6.0794,-6.0794,-6.0824,-6.1379,-6.1625,-6.1656,-6.221,-6.2456,-6.2456,-6.2456,-6.2548,-6.2641,-6.2764,-6.2825,-6.2887,-6.3441,-6.3564,-6.3502,0.0,0.0,0.0,0.0,0.0,0.0,0.0,-6.8838,-6.8802,-6.9089,-6.9417,-6.9958,-7.0703,-7.077,-7.0906,-7.1278,-7.1312,-7.1312,-7.1312,-7.1312,-7.1142,-7.0804,-7.077,-7.0601,-7.0263,-7.0263,-7.0148,-6.9968,-6.9465,-6.9178,-6.8982,-6.8557,0.0,0.0,0.0,-7.0531,0.0,0.0,0.0,-7.1312,-7.1312,-7.1312,-7.1312,-7.1312,-7.1312,-7.1312,-7.1312,-7.1312,-7.1312,-7.1312,-7.1312,-7.1312,-7.1312,-7.1312,-7.1312,-7.1312,-7.1312,-7.1222,-7.0654,-7.0561,-7.0296,-6.9268,-6.8601,-6.8021,-6.7497,-6.6544,-6.5754,-6.5754,-6.5297,-6.4888,-6.4888,-6.4611,-6.4499,-6.4882,0.0,0.0,0.0,0.0,0.0,0.0,0.0,0.0,0.0,0.0,0.0,0.0,0.0,0.0,0.0,0.0,0.0,0.0,0.0,0.0,0.0,0.0,0.0,-6.0794,-6.1163,-6.1317,-6.1348,-6.2025,-6.2333,-6.2364,-6.2671,-6.2825,-6.2856,-6.3195,-6.3349,-6.3379,-6.3749,-6.3903,-6.3933,-6.4272,-6.4364,-6.4364,0.0,-6.8108,0.0,0.0,-6.9499,0.0,-7.0454,-7.0429,-7.0432,-7.0432,-7.0432,-7.0635,-7.1244,-7.1312,-7.1312,-7.1312,-7.1312,-7.1312,-7.1312,-7.1312,-7.1312,-7.1312,-7.1312,-7.1312,-7.1312,-7.1312,-7.1007,-7.0487,-7.0449,-7.0104,-6.9476,-6.9561,-7.0047,0.0,0.0,0.0,0.0,0.0,-7.1312,-7.1312,-7.1312,-7.1312,-7.1312,-7.1312,-7.1312,-7.1312,-7.1312,-7.1312,-7.1312,-7.1312,-7.1312,-7.1312,-7.1312,-7.1312,-7.1312,-7.1312,-7.1312,-7.1312,-7.1312,-7.1312,-7.1267,-7.1007,-7.0343,-6.9618,-6.9427,-6.8021,-6.6826,-6.6826,-6.5991,-6.5242,-6.5242,-6.5053,-6.5165,-6.592,0.0,0.0,0.0,0.0,0.0,0.0,0.0,0.0,-6.4833,0.0,0.0,0.0,0.0,0.0,0.0,0.0,0.0,0.0,0.0,-6.0794,-6.0794,0.0,-6.1009,-6.1009,-6.1686,-6.2025,-6.2056,-6.2733,-6.3041,-6.3041,-6.3195,-6.3256,-6.3287,-6.3841,-6.4057,-6.4118,-6.4672,-6.4888,-6.4888,-6.4888,-6.4888,-6.4888,0.0,0.0,0.0,0.0,0.0,0.0,-7.0478,-7.0904,-7.121,-7.121,-7.121,-7.1244,-7.1312,-7.1312,-7.1312,-7.1312,-7.1312,-7.1312,-7.1312,-7.1312,-7.1312,-7.1312,-7.1312,-7.1312,-7.1312,-7.1312,-7.1334,0.0,0.0,-7.0052,-6.9688,-6.9338,-6.9572,0.0,0.0,0.0,0.0,-7.1278,-7.1312,-7.1312,-7.1312,-7.1312,-7.1312,-7.1312,-7.1312,-7.1312,-7.1312,-7.1312,-7.1312,-7.1312,-7.1312,-7.1312,-7.1312,-7.1312,-7.1312,-7.1312,-7.1312,-7.1312,-7.1312,-7.1312,-7.1052,-7.0076,-6.976,-6.9427,-6.847,-6.8072,-6.7921,-6.7921,-6.7086,-6.6332,-6.6332,-6.5538,-6.5538,-6.7553,0.0,0.0,0.0,0.0,-6.4015,-6.2968,0.0,0.0,0.0,-6.424,0.0,0.0,0.0,0.0,0.0,0.0,0.0,-6.0794,0.0,-6.0794,-6.0794,-6.1409,-6.1717,-6.1717,-6.2394,-6.2733,-6.2733,-6.341,-6.3749,-6.3779,-6.4426,-6.4703,-6.4703,-6.4764,-6.4795,-6.4795,-6.4857,-6.4888,-6.4888,-6.4888,-6.4888,-6.4888,0.0,0.0,0.0,0.0,0.0,0.0,0.0,-7.1153,-7.1312,-7.1312,-7.1312,-7.1312,-7.1312,-7.1312,-7.1312,-7.1312,-7.1312,-7.1312,-7.1312,-7.1312,-7.1312,-7.1312,-7.1312,-7.1312,-7.1312,-7.1312,-7.1356,0.0,0.0,-7.1231,-7.1097,-7.1054,-7.1017,0.0,0.0,-7.1412,-7.1312,-7.1312,-7.1312,-7.1312,-7.1312,-7.1312,-7.1312,-7.1312,-7.1312,-7.1312,-7.1312,-7.1312,-7.1312,-7.1312,-7.1312,-7.1312,-7.1312,-7.1312,-7.1312,-7.1312,-7.1312,-7.1312,-7.1312,-7.1312,-7.1222,-7.0745,-7.0654,-7.0561,-7.011,-6.9523,-6.909,-6.909,-6.8172,-6.7446,-6.7446,-6.6596,-6.6332,-6.7852,0.0,0.0,0.0,0.0,0.0,-6.4581,0.0,0.0,0.0,0.0,0.0,0.0,0.0,0.0,0.0,0.0,0.0,-6.0794,0.0,-6.1409,-6.1409,-6.2086,-6.2425,-6.2425,-6.3102,-6.341,-6.3441,-6.4149,-6.4457,-6.4487,-6.4764,-6.4888,-6.4888,-6.4888,-6.4888,-6.4888,-6.4888,-6.4888,-6.4888,-6.4888,-6.4888,-6.4888,-7.1572,0.0,-7.1678,0.0,-7.1766,-7.1712,-7.1356,-7.1312,-7.1312,-7.1367,-7.1367,-7.1356,-7.1312,-7.1312,-7.1312,-7.1312,-7.1312,-7.1312,-7.1312,-7.1312,-7.1312,-7.1312,-7.1312,0.0,-7.1312,-7.1312,-7.1312,-7.1312,-7.1624,0.0,0.0,-7.1687,-7.1659,0.0,-7.1546,-7.1412,-7.1312,-7.1312,-7.1312,-7.1312,-7.1312,-7.1312,-7.1312,-7.1312,-7.1312,-7.1312,-7.1312,-7.1312,-7.1312,-7.1312,-7.1312,-7.1312,-7.1312,-7.1312,-7.1312,-7.1312,-7.1312,-7.1312,-7.1312,-7.1312,-7.1312,-7.1312,-7.1312,-7.1312,-7.1312,-7.0699,-7.0076,-6.9794,-6.909,-6.847,-6.8172,-6.7497,-6.724,-6.7971,0.0,0.0,0.0,-6.8072,0.0,0.0,-6.6928,-6.6969,-6.588,-6.6062,0.0,0.0,0.0,0.0,0.0,0.0,0.0,0.0,0.0,0.0,-6.2117,-6.2764,-6.3102,-6.3133,-6.381,-6.4149,-6.4149,-6.4672,-6.4888,-6.4888,-6.4888,-6.4888,-6.4888,-6.4888,-6.4888,-6.4888,-6.4888,-6.4888,-6.4888,-6.4888,-6.4888,-6.4888,-7.2072,-7.1985,-7.1854,-7.1401,-7.1312,-7.1312,-7.1312,-7.1312,-7.1367,-7.1556,-7.16,-7.1512,-7.1312,-7.1312,-7.1312,-7.1312,-7.1312,-7.1312,-7.1312,-7.1312,-7.1312,0.0,0.0,-7.1312,-7.1312,-7.1312,-7.1312,-7.1312,0.0,0.0,-7.0512,0.0,-7.0789,-7.1312,-7.1312,-7.1312,-7.1312,-7.1312,-7.1312,-7.1312,-7.1312,-7.1312,-7.1312,-7.1312,-7.1312,-7.1312,-7.1312,-7.1312,-7.1312,-7.1312,-7.1312,-7.1312,-7.1312,-7.1312,-7.1312,-7.1312,-7.1312,-7.1312,-7.1312,-7.1312,-7.1312,-7.1312,-7.1312,-7.1312,-7.1312,-7.1312,-7.0961,-6.9935,-6.9666,-6.9379,-6.8304,-6.8072,-6.8072,-6.8072,-6.8072,0.0,0.0,-6.8072,0.0,-6.8072,-6.8072,-6.7411,-6.5667,-6.6387,0.0,0.0,0.0,0.0,0.0,0.0,0.0,-6.2794,-6.2794,0.0,-6.2794,-6.3472,-6.381,-6.3841,-6.4549,-6.4888,-6.4888,-6.4888,-6.4888,-6.4888,-6.4888,-6.4888,-6.4888,-6.4888,-6.4888,-6.4888,-6.4888,-6.4888,-6.4888,-6.4888,-6.4888,-6.4888,-7.2288,-7.2373,-7.2331,-7.1854,-7.1898,-7.1942,-7.1766,-7.1766,-7.181,-7.1854,-7.1898,-7.1854,-7.1766,-7.1766,-7.1678,0.0,-7.1467,-7.159,0.0,-7.1491,-7.1356,-7.1501,-7.1367,-7.1312,-7.1312,-7.1312,-7.1312,-7.1312,0.0,0.0,0.0,-7.126,-7.1264,-7.1312,-7.1312,-7.1312,-7.1312,-7.1312,-7.1312,-7.1312,-7.1312,-7.1312,-7.1312,-7.1312,-7.1312,-7.1312,-7.1312,-7.1312,-7.1312,-7.1312,-7.1312,-7.1312,-7.1312,-7.1312,-7.1312,-7.1312,-7.1312,-7.1312,-7.1312,-7.1312,-7.1312,-7.1312,-7.1312,-7.1312,-7.1312,-7.1312,-7.1222,-7.087,-7.0791,-7.0699,-7.0343,-6.9699,-6.9187,-6.9187,-6.8568,0.0,-6.909,0.0,-6.9187,-6.9187,-6.9841,-6.9775,-6.847,-6.7996,0.0,0.0,0.0,0.0,0.0,0.0,0.0,0.0,-6.3256,0.0,-6.3502,-6.421,-6.4549,-6.4549,-6.4795,-6.4888,-6.4888,-6.4888,-6.4888,-6.4888,-6.4888,-6.4888,-6.4888,-6.4888,-6.4888,-6.4888,-6.4888,-6.4888,-6.4888,-6.4888,-6.4888,-6.4888,-7.2373,-7.2459,-7.2416,-7.2072,-7.2115,-7.2159,-7.2029,-7.1985,-7.2131,-7.2526,-7.256,-7.2663,-7.2937,-7.2784,0.0,-7.181,-7.1732,-7.181,-7.1985,-7.1756,-7.159,-7.1732,-7.1634,-7.1535,-7.1412,-7.1412,0.0,-7.1312,-7.1412,-7.1501,-7.1501,-7.1501,-7.1412,-7.1312,-7.1312,-7.1312,-7.1312,-7.1312,-7.1312,-7.1312,-7.1312,-7.1312,-7.1312,-7.1312,-7.1312,-7.1312,-7.1312,-7.1312,-7.1312,-7.1312,-7.1312,-7.1312,-7.1312,-7.1312,-7.1312,-7.1312,-7.1312,-7.1312,-7.1312,-7.1312,-7.1312,-7.1312,-7.1312,-7.1312,-7.1312,-7.1312,-7.1312,-7.1312,-7.1312,-7.1312,-7.1312,-7.0745,-7.0203,-6.9794,-6.9138,-6.8765,-6.909,0.0,-6.9713,0.0,0.0,-7.087,0.0,-6.909,-6.8814,0.0,0.0,0.0,0.0,0.0,-6.3595,-6.3595,-6.3995,-6.4241,-6.4241,-6.4672,-6.4888,-6.4888,-6.4888,-6.4888,-6.4888,-6.4888,-6.4888,-6.4888,-6.4888,-6.4888,-6.4888,-6.4888,-6.4888,-6.4888,-6.4888,-6.4888,-6.4888,-6.4888,-6.4888,-6.4888,-7.2373,-7.2331,-7.2288,0.0,-7.2029,-7.2063,-7.2097,-7.2097,-7.2492,-7.3463,-7.361,-7.3885,-7.4572,-7.4162,-7.3396,-7.2311,0.0,0.0,-7.2029,-7.1985,-7.1985,-7.2029,-7.1985,-7.1898,-7.1644,-7.1644,-7.1546,-7.1312,-7.1312,-7.1312,-7.1312,-7.1312,-7.1312,-7.1312,-7.1312,-7.1312,-7.1312,-7.1312,-7.1312,-7.1312,-7.1312,-7.1312,-7.1312,-7.1312,-7.1312,-7.1312,-7.1312,-7.1312,-7.1312,-7.1312,-7.1312,-7.1312,-7.1312,-7.1312,-7.1312,-7.1312,-7.1312,-7.1312,-7.1312,-7.1312,-7.1312,-7.1312,-7.1312,-7.1312,-7.1312,-7.1312,-7.1312,-7.1312,-7.1312,-7.1312,-7.1312,-7.1312,-7.0961,-6.9982,-6.9713,-6.9379,-6.842,-6.9138,-6.9713,0.0,0.0,0.0,-6.9935,-6.9713,-6.9331,0.0,0.0,0.0,0.0,0.0,-6.4998,-6.4888,-6.4888,-6.4888,-6.4888,-6.4888,-6.4888,-6.4888,-6.4888,-6.4888,-6.4888,-6.4888,-6.4888,-6.4888,-6.4888,-6.4888,-6.4888,-6.4888,-6.4888,-6.4888,-6.4888,-6.4888,-6.4888,-6.4888,-6.4888,-6.4888,0.0,0.0,-7.2544,-7.2288,-7.2416,-7.275,-7.3301,-7.3404,-7.368,-7.4481,-7.4584,-7.4653,-7.4825,-7.4731,-7.4515,-7.4256,-7.2983,-7.2331,-7.2501,-7.2202,-7.2072,-7.2245,-7.2072,-7.1985,-7.1898,-7.1898,-7.181,-7.1512,-7.1512,-7.1457,-7.1312,-7.1312,-7.1312,-7.1312,-7.1312,-7.1312,-7.1312,-7.1312,-7.1312,-7.1312,-7.1312,-7.1312,-7.1312,-7.1312,-7.1312,-7.1312,-7.1312,-7.1312,-7.1312,-7.1312,-7.1312,-7.1312,-7.1312,-7.1312,-7.1312,-7.1312,-7.1312,-7.1312,-7.1312,-7.1312,-7.1312,-7.1312,-7.1312,-7.1312,-7.1312,-7.1312,-7.1312,-7.1312,-7.1312,-7.1312,-7.1312,-7.1312,-7.1222,-7.0961,-7.025,-6.9888,-7.0436,-7.0029,-6.9982,0.0,-7.1176,-7.1222,-7.0961,-7.017,-6.9935,0.0,0.0,0.0,-6.8911,-6.7137,-6.5754,-6.4943,-6.4888,-6.4888,-6.4888,-6.4888,-6.4888,-6.4888,-6.4888,-6.4888,-6.4888,-6.4888,-6.4888,-6.4888,-6.4888,-6.4888,-6.4888,-6.4888,-6.4888,-6.4888,-6.4888,-6.4888,-6.4888,-6.4888,-6.4888,-6.4888,-7.2501,-7.2586,-7.2628,-7.2501,-7.2862,-7.3326,-7.374,-7.4085,-7.4602,-7.5317,-7.5464,-7.5558,-7.5903,-7.5627,-7.5464,-7.5464,-7.4265,-7.3439,-7.3222,-7.2975,-7.2717,-7.2501,-7.2373,-7.2245,-7.2159,-7.2115,-7.2029,-7.1776,-7.1776,-7.1722,-7.1624,-7.1624,-7.1546,-7.1457,-7.158,-7.1491,-7.1312,-7.1367,-7.1367,-7.1312,-7.1312,-7.1312,-7.1312,-7.1312,-7.1312,-7.1312,-7.1312,-7.1312,-7.1312,-7.1312,-7.1312,-7.1312,-7.1312,-7.1312,-7.1312,-7.1312,-7.1312,-7.1312,-7.1312,-7.1312,-7.1312,-7.1312,-7.1312,-7.1312,-7.1312,-7.1312,-7.1312,-7.1312,-7.1312,-7.1312,-7.1312,-7.1312,-7.1312,-7.1312,-7.0791,-7.0436,-7.0561,-7.0482,-7.0436,-7.0561,-7.1007,-7.1312,-7.1312,-7.0745,-7.0654,-7.1267,-7.0203,0.0,-6.8993,-6.7871,-6.6753,-6.5646,-6.5163,-6.4888,-6.4888,-6.4888,-6.4888,-6.4888,-6.4888,-6.4888,-6.4888,-6.4888,-6.4888,-6.4888,-6.4888,-6.4888,-6.4888,-6.4888,-6.4888,-6.4888,-6.4888,-6.4888,-6.4888,-6.4888,-6.4888,-6.4888,-7.2713,-7.2713,-7.2713,-7.2713,-7.3291,-7.3809,-7.3947,-7.4602,-7.5352,-7.6189,-7.6292,-7.6533,-7.7154,-7.6671,-7.6292,-7.6292,-7.5627,-7.4912,-7.4016,-7.3947,-7.3636,-7.292,-7.2885,-7.2689,-7.2373,-7.2373,-7.2245,-7.2029,-7.2029,-7.2029,-7.1985,-7.1985,-7.1898,-7.1688,-7.1898,-7.1766,-7.1356,-7.1512,-7.1501,-7.1312,-7.1312,-7.1312,-7.1312,-7.1312,-7.1312,-7.1312,-7.1312,-7.1312,-7.1312,-7.1312,-7.1312,-7.1312,-7.1312,-7.1312,-7.1312,-7.1312,-7.1312,-7.1312,-7.1312,-7.1312,-7.1312,-7.1312,-7.1312,-7.1312,-7.1312,-7.1312,-7.1312,-7.1312,-7.1312,-7.1312,-7.1312,-7.1312,-7.1312,-7.1312,-7.1312,-7.0961,-7.0076,0.0,-7.0961,-7.0029,-7.0745,-7.1312,-7.1312,-7.1312,-7.1312,-7.1312,-7.1312,-7.0515,-6.8699,-6.8304,-6.7701,-6.6806,-6.5538,-6.4888,-6.4888,-6.4888,-6.4888,-6.4888,-6.4888,-6.4888,-6.4888,-6.4888,-6.4888,-6.4888,-6.4888,-6.4888,-6.4888,-6.4888,-6.4888,-6.4888,-6.4888,-6.4888,-6.4888,-6.4888,-6.4888,-6.4888,-7.2713,-7.2713,-7.2713,-7.2713,-7.3291,-7.4016,-7.4636,-7.543,-7.6189,-7.6947,-7.7051,-7.7085,-7.7223,-7.712,-7.7051,-7.7051,-7.6947,-7.6258,-7.48,-7.4697,-7.443,-7.3636,-7.3602,-7.3326,-7.2628,-7.2628,-7.2501,-7.2245,-7.2245,-7.2159,-7.1985,-7.1985,-7.1985,-7.1942,-7.1985,-7.1854,-7.1556,-7.16,-7.1501,-7.1312,-7.1312,-7.1312,-7.1312,-7.1312,-7.1312,-7.1312,-7.1312,-7.1312,-7.1312,-7.1312,-7.1312,-7.1312,-7.1312,-7.1312,-7.1312,-7.1312,-7.1312,-7.1312,-7.1312,-7.1312,-7.1312,-7.1312,-7.1312,-7.1312,-7.1312,-7.1312,-7.1312,-7.1312,-7.1312,-7.1312,-7.1312,-7.1312,-7.1312,-7.1312,-7.1312,-7.1267,-7.1052,0.0,-7.1222,-7.1052,-7.1222,-7.1312,-7.1312,-7.1312,-7.1312,-7.1312,-7.1312,-7.1143,-7.0825,-6.909,-6.8021,-6.782,-6.5938,-6.4888,-6.4888,-6.4888,-6.4888,-6.4888,-6.4888,-6.4888,-6.4888,-6.4888,-6.4888,-6.4888,-6.4888,-6.4888,-6.4888,-6.4888,-6.4888,-6.4888,-6.4888,-6.4888,-6.4888,-6.4888,-6.4888,-6.4888,-7.2713,-7.2713,-7.2713,-7.2713,-7.3291,-7.405,-7.4766,-7.5558,-7.6361,-7.7075,-7.7223,-7.7223,-7.7223,-7.7223,-7.7223,-7.7223,-7.7223,-7.6913,-7.6179,-7.5775,-7.5016,-7.3843,-7.3774,-7.3429,-7.2747,-7.2713,-7.2628,-7.2501,-7.2501,-7.2459,-7.2373,-7.2373,-7.2288,-7.2159,-7.2331,-7.2159,-7.181,-7.181,-7.1678,-7.1457,-7.1356,-7.1312,-7.1312,-7.1312,-7.1312,-7.1312,-7.1312,-7.1312,-7.1312,-7.1312,-7.1312,-7.1312,-7.1312,-7.1312,-7.1312,-7.1312,-7.1312,-7.1312,-7.1312,-7.1312,-7.1312,-7.1312,-7.1312,-7.1312,-7.1312,-7.1312,-7.1312,-7.1312,-7.1312,-7.1312,-7.1312,-7.1312,-7.1312,-7.1312,-7.1312,-7.1312,-7.1312,-7.1312,-7.1312,-7.1312,-7.1312,-7.1312,-7.1312,-7.1312,-7.1312,-7.1312,-7.1312,-7.0825,-6.9651,-6.865,-6.7599,-6.6385,-6.5406,-6.4888,-6.4888,-6.4888,-6.4888,-6.4888,-6.4888,-6.4888,-6.4888,-6.4888,-6.4888,-6.4888,-6.4888,-6.4888,-6.4888,-6.4888,-6.4888,-6.4888,-6.4888,-6.4888,-6.4888,-6.4888,-6.4888,-6.4888,-7.2713,-7.2713,-7.2713,-7.2713,-7.3291,-7.3981,-7.4568,-7.5326,-7.612,-7.6878,-7.6947,-7.7016,-7.7189,-7.7223,-7.7154,-7.6982,-7.6947,-7.6878,-7.6661,-7.6154,-7.5292,-7.4119,-7.3705,-7.3257,-7.2705,-7.2713,-7.2713,-7.2713,-7.2713,-7.2713,-7.2713,-7.2713,-7.2586,-7.2416,-7.2586,-7.2459,-7.2072,-7.2072,-7.1942,-7.1688,-7.1501,-7.1446,-7.1401,-7.1401,-7.1356,-7.1312,-7.1312,-7.1312,-7.1312,-7.1312,-7.1312,-7.1312,-7.1312,-7.1312,-7.1312,-7.1312,-7.1312,-7.1312,-7.1312,-7.1312,-7.1312,-7.1312,-7.1312,-7.1312,-7.1312,-7.1312,-7.1312,-7.1312,-7.1312,-7.1312,-7.1312,-7.1312,-7.1312,-7.1312,0.0,-7.1312,-7.1312,-7.1312,-7.1312,-7.1312,-7.1312,-7.1312,-7.1356,-7.1401,-7.1401,-7.1401,-7.1446,-7.0745,-6.9009,-6.8519,-6.7292,-6.5132,-6.4943,-6.4943,-6.4998,-6.4998,-6.5053,-6.5108,-6.5108,-6.5053,-6.4998,-6.4998,-6.4943,-6.4888,-6.4888,-6.4888,-6.4888,-6.4888,-6.4888,-6.4888,-6.4888,-6.4888,-6.4888,-6.4888,-6.4888,-6.4888,-7.2713,-7.2713,-7.2713,-7.2713,-7.3291,-7.3809,-7.3843,-7.4533,-7.5248,-7.6085,-7.6189,-7.6464,-7.7154,-7.7223,-7.6947,-7.6258,-7.6189,-7.5834,-7.511,-7.5007,-7.4938,-7.48,-7.3498,-7.2782,-7.2713,-7.2713,-7.2713,-7.2713,-7.2713,-7.2713,-7.2713,-7.2713,-7.2671,-7.2671,-7.2671,-7.2544,-7.2288,-7.2288,-7.2159,-7.1942,-7.1942,-7.181,-7.1556,-7.1556,-7.1457,-7.1312,-7.1312,-7.1312,-7.1312,-7.1312,-7.1312,-7.1312,-7.1312,-7.1312,-7.1312,-7.1312,-7.1312,-7.1312,-7.1312,-7.1312,-7.1312,-7.1312,-7.1312,-7.1312,-7.1312,-7.1312,-7.1312,-7.1312,-7.1312,-7.1312,-7.1312,-7.1312,-7.1312,-7.1312,0.0,0.0,-7.1312,-7.1312,-7.1312,-7.1312,-7.1312,-7.1367,-7.1556,-7.1556,-7.1556,-7.1556,-7.181,-7.1766,-7.1344,-6.976,-6.782,-6.57,-6.5132,-6.4998,-6.5242,-6.5242,-6.5406,-6.5646,-6.5646,-6.5483,-6.5242,-6.5242,-6.5132,-6.4888,-6.4888,-6.4888,-6.4888,-6.4888,-6.4888,-6.4888,-6.4888,-6.4888,-6.4888,-6.4888,-6.4888,-6.4888,-7.2713,-7.2713,-7.2713,-7.2713,-7.2912,-7.3257,-7.3705,-7.4016,-7.4499,-7.5248,-7.5352,-7.5455,-7.5731,-7.5765,-7.5627,-7.5352,-7.5352,-7.5214,-7.4903,-7.4499,-7.4223,-7.4223,-7.3222,-7.2713,-7.2713,-7.2713,-7.2713,-7.2713,-7.2713,-7.2713,-7.2713,-7.2713,-7.2713,-7.2713,-7.2713,-7.2628,-7.2544,-7.2373,-7.2245,-7.2159,-7.2029,-7.1942,-7.1854,-7.1854,-7.1722,-7.1501,-7.1501,-7.1412,-7.1312,-7.1312,-7.1312,-7.1312,-7.1312,-7.1312,-7.1312,-7.1312,-7.1312,-7.1312,-7.1312,-7.1312,-7.1312,-7.1312,-7.1312,-7.1312,-7.1312,-7.1312,-7.1312,-7.1312,-7.1312,-7.1312,-7.1312,-7.1312,-7.1312,-7.1312,0.0,-7.1312,-7.1312,-7.1312,-7.1312,-7.1312,-7.1412,-7.1546,-7.16,-7.1732,-7.1854,-7.1854,-7.1942,-7.1644,-7.0906,-6.9585,-6.8139,-6.669,-6.6459,-6.6067,-6.5538,-6.5538,-6.5592,-6.57,-6.57,-6.5646,-6.5538,-6.5538,-6.5483,-6.5406,-6.5406,-6.5297,-6.5163,-6.5163,-6.5053,-6.4888,-6.4888,-6.4888,-6.4888,-6.4888,-6.4888,-6.4888,-7.2713,-7.2713,-7.2713,-7.2713,-7.2713,-7.2885,-7.336,-7.3429,-7.3705,-7.4464,-7.4568,-7.4628,-7.4869,-7.4903,-7.48,-7.4602,-7.4568,-7.4464,-7.4223,-7.374,-7.3429,-7.3429,-7.2946,-7.2713,-7.2713,-7.2713,-7.2713,-7.2713,-7.2713,-7.2713,-7.2713,-7.2713,-7.2713,-7.2713,-7.2713,-7.2713,-7.2671,-7.2501,-7.2416,-7.2416,-7.2288,-7.2159,-7.2072,-7.2072,-7.1942,-7.1732,-7.1732,-7.1634,-7.1535,-7.1412,-7.1367,-7.1367,-7.1312,-7.1312,-7.1312,-7.1312,-7.1312,-7.1312,-7.1312,-7.1312,-7.1312,-7.1312,-7.1312,-7.1312,-7.1312,-7.1312,-7.1312,-7.1312,-7.1312,-7.1312,-7.1312,-7.1312,-7.1312,-7.1312,-7.1312,-7.1312,-7.1312,-7.1356,-7.1367,-7.1367,-7.159,-7.1732,-7.182,-7.1985,-7.2072,-7.2072,-7.2159,-7.1776,-7.069,-6.9963,-6.8927,-6.7535,-6.7484,-6.7034,-6.5969,-6.5893,-6.5893,-6.5969,-6.5969,-6.5915,-6.5893,-6.5893,-6.5808,-6.57,-6.57,-6.5592,-6.546,-6.546,-6.5297,-6.5132,-6.5132,-6.5108,-6.5053,-6.5108,-6.5108,-6.5053,-7.2713,-7.2713,-7.2713,-7.2713,-7.2713,-7.2713,-7.2713,-7.2713,-7.2989,-7.3671,-7.3774,-7.405,-7.48,-7.4869,-7.4602,-7.3843,-7.3774,-7.3464,-7.2782,-7.2713,-7.2713,-7.2713,-7.2713,-7.2713,-7.2713,-7.2713,-7.2713,-7.2713,-7.2713,-7.2713,-7.2713,-7.2713,-7.2713,-7.2713,-7.2713,-7.2713,-7.2713,-7.2713,-7.2713,-7.2713,-7.2713,-7.2544,-7.2331,-7.2331,-7.2202,-7.1985,-7.1985,-7.1985,-7.1942,-7.1688,-7.16,-7.1556,-7.1401,-7.1312,-7.1312,-7.1312,-7.1312,-7.1312,-7.1312,-7.1312,-7.1312,-7.1312,-7.1312,-7.1312,-7.1312,-7.1312,-7.1312,-7.1312,-7.1312,-7.1312,-7.1312,-7.1312,-7.1312,-7.1312,-7.1312,-7.1312,-7.1312,-7.1501,-7.16,-7.16,-7.1854,-7.2072,-7.2288,-7.2331,-7.2331,-7.2331,-7.2544,-7.2253,-7.13,-7.121,-7.0276,-6.8172,-6.8122,-6.7631,-6.6586,-6.6352,-6.6352,-6.6617,-6.6617,-6.6459,-6.6192,-6.6192,-6.6032,-6.57,-6.57,-6.57,-6.57,-6.57,-6.57,-6.57,-6.57,-6.5538,-6.5351,-6.5592,-6.5538,-6.5297,-7.2713,-7.2713,-7.2713,-7.2713,-7.2713,-7.2713,-7.2713,-7.2713,-7.2782,-7.3023,-7.3015,-7.3084,-7.3326,-7.336,-7.3257,-7.3058,-7.3015,-7.2912,-7.2705,-7.2713,-7.2713,-7.2713,-7.2713,-7.2713,-7.2713,-7.2713,-7.2713,-7.2713,-7.2713,-7.2713,-7.2713,-7.2713,-7.2713,-7.2713,-7.2713,-7.2713,-7.2713,-7.2713,-7.2713,-7.2713,-7.2713,-7.2628,-7.2586,-7.2586,-7.2416,-7.2202,-7.2202,-7.2115,-7.1985,-7.1898,-7.1898,-7.1854,-7.181,-7.1766,-7.1722,-7.159,-7.1634,-7.1756,-7.1401,-7.1412,-7.1501,-7.1356,-7.1312,-7.1312,-7.1312,-7.1312,-7.1312,-7.1312,-7.1312,-7.1312,-7.1312,-7.1312,-7.1356,-7.1501,-7.1546,-7.159,-7.1766,-7.1854,-7.1898,-7.1898,-7.2072,-7.2245,-7.2288,-7.2459,-7.2586,-7.2586,-7.2628,-7.2586,-7.2253,-7.2253,-7.162,-7.0322,-7.0276,-6.9442,-6.7682,-6.6869,-6.6512,-6.6617,-6.6617,-6.6565,-6.6459,-6.6459,-6.6459,-6.6321,-6.6321,-6.6214,-6.6085,-6.6085,-6.5893,-6.57,-6.57,-6.5646,-6.5592,-6.57,-6.5646,-6.5592,-7.2713,-7.2713,-7.2713,-7.2713,-7.2713,-7.2713,-7.2713,-7.2713,-7.2713,-7.2713,-7.2713,-7.2713,-7.2713,-7.2713,-7.2713,-7.2713,-7.2713,-7.2713,-7.2713,-7.2713,-7.2713,-7.2713,-7.2713,-7.2713,-7.2713,-7.2713,-7.2713,-7.2713,-7.2713,-7.2713,-7.2713,-7.2713,-7.2713,-7.2713,-7.2713,-7.2713,-7.2713,-7.2713,-7.2713,-7.2713,-7.2713,-7.2713,-7.2713,-7.2713,-7.2586,-7.2459,-7.2459,-7.2373,-7.2245,-7.2159,-7.2072,-7.1985,-7.1985,-7.1985,-7.1942,-7.181,-7.1898,-7.1942,-7.1634,-7.1678,-7.1722,-7.159,-7.1535,-7.1457,-7.158,-7.158,-7.158,-7.158,-7.158,-7.158,-7.158,-7.158,-7.159,-7.1766,-7.1732,-7.181,-7.1985,-7.2072,-7.2115,-7.2115,-7.2331,-7.2459,-7.2459,-7.2586,-7.2713,-7.2713,-7.2713,-7.2713,-7.2713,-7.2713,-7.2253,-7.1255,-7.121,-7.0415,-6.8716,-6.7682,-6.6974,-6.6617,-6.6617,-6.6617,-6.6617,-6.6617,-6.6617,-6.6617,-6.6617,-6.6512,-6.6352,-6.6352,-6.6214,-6.6023,-6.6023,-6.6,-6.5893,-6.6054,-6.6,-6.5893,-7.2713,-7.2713,-7.2713,-7.2713,-7.2713,-7.2713,-7.2713,-7.2713,-7.2713,-7.2713,-7.2713,-7.2713,-7.2713,-7.2713,-7.2713,-7.2713,-7.2713,-7.2713,-7.2713,-7.2713,-7.2713,-7.2713,-7.2713,-7.2713,-7.2713,-7.2713,-7.2713,-7.2713,-7.2713,-7.2713,-7.2713,-7.2713,-7.2713,-7.2713,-7.2713,-7.2713,-7.2713,-7.2713,-7.2713,-7.2713,-7.2713,-7.2713,-7.2713,-7.2713,-7.2713,-7.2713,-7.2713,-7.2713,-7.2671,-7.2416,-7.2202,-7.2072,-7.2072,-7.2072,-7.2029,-7.2029,-7.2029,-7.2029,-7.1985,-7.1985,-7.2029,-7.2029,-7.182,-7.1732,-7.1942,-7.1985,-7.1985,-7.1985,-7.1985,-7.1985,-7.1985,-7.1985,-7.1985,-7.2029,-7.2029,-7.2029,-7.2029,-7.2202,-7.2331,-7.2331,-7.2544,-7.2713,-7.2713,-7.2713,-7.2713,-7.2713,-7.2713,-7.2713,-7.2713,-7.2713,-7.2253,-7.1389,-7.1344,-7.0827,-6.9741,-6.8863,-6.7802,-6.6744,-6.6638,-6.6617,-6.6617,-6.6617,-6.6617,-6.6617,-6.6617,-6.6617,-6.6617,-6.6617,-6.6617,-6.6617,-6.6617,-6.6459,-6.6246,-6.6512,-6.6459,-6.6277,-7.2713,-7.2713,-7.2713,-7.2713,-7.2713,-7.2713,-7.2713,-7.2713,-7.2713,-7.2713,-7.2713,-7.2713,-7.2713,-7.2713,-7.2713,-7.2713,-7.2713,-7.2713,-7.2713,-7.2713,-7.2713,-7.2713,-7.2713,-7.2713,-7.2713,-7.2713,-7.2713,-7.2713,-7.2713,-7.2713,-7.2713,-7.2713,-7.2713,-7.2713,-7.2713,-7.2713,-7.2713,-7.2713,-7.2713,-7.2713,-7.2713,-7.2713,-7.2713,-7.2713,-7.2713,-7.2713,-7.2713,-7.2713,-7.2671,-7.2628,-7.2586,-7.2544,-7.2544,-7.2544,-7.2501,-7.2288,-7.2373,-7.2459,-7.2072,-7.2115,-7.2245,-7.2245,-7.2202,-7.2115,-7.2029,-7.1985,-7.1985,-7.1985,-7.1985,-7.1985,-7.1985,-7.1985,-7.2029,-7.2202,-7.2245,-7.2331,-7.2501,-7.2586,-7.2628,-7.2628,-7.2671,-7.2713,-7.2713,-7.2713,-7.2713,-7.2713,-7.2713,-7.2713,-7.2713,-7.2713,-7.2586,-7.2382,-7.2382,-7.1873,-7.086,-7.0645,-6.9585,-6.7751,-6.6974,-6.6617,-6.6617,-6.6617,-6.6617,-6.6617,-6.6617,-6.6617,-6.6617,-6.6617,-6.6617,-6.6617,-6.6617,-6.6565,-6.6512,-6.6565,-6.6565,-6.6512,-7.2713,-7.2713,-7.2713,-7.2713,-7.2713,-7.2713,-7.2713,-7.2713,-7.2713,-7.2713,-7.2713,-7.2713,-7.2713,-7.2713,-7.2713,-7.2713,-7.2713,-7.2713,-7.2713,-7.2713,-7.2713,-7.2713,-7.2713,-7.2713,-7.2713,-7.2713,-7.2713,-7.2713,-7.2713,-7.2713,-7.2713,-7.2713,-7.2713,-7.2713,-7.2713,-7.2713,-7.2713,-7.2713,-7.2713,-7.2713,-7.2713,-7.2713,-7.2713,-7.2713,-7.2713,-7.2713,-7.2713,-7.2713,-7.2713,-7.2713,-7.2713,-7.2713,-7.2713,-7.2713,-7.2671,-7.2544,-7.2586,-7.2628,-7.2373,-7.2416,-7.2501,-7.2501,-7.2501,-7.2459,-7.2373,-7.2331,-7.2331,-7.2331,-7.2331,-7.2331,-7.2331,-7.2331,-7.2373,-7.2459,-7.2501,-7.2544,-7.2671,-7.2713,-7.2713,-7.2713,-7.2713,-7.2713,-7.2713,-7.2713,-7.2713,-7.2713,-7.2713,-7.2713,-7.2713,-7.2713,-7.2713,-7.2713,-7.2713,-7.2459,-7.1951,-7.1433,-7.0645,-6.9537,-6.8054,-6.7078,-6.6617,-6.6617,-6.6617,-6.6617,-6.6617,-6.6617,-6.6617,-6.6617,-6.6617,-6.6617,-6.6617,-6.6617,-6.6617,-6.6617,-6.6617,-6.6617,-7.2713,-7.2713,-7.2713,-7.2713,-7.2713,-7.2713,-7.2713,-7.2713,-7.2713,-7.2713,-7.2713,-7.2713,-7.2713,-7.2713,-7.2713,-7.2713,-7.2713,-7.2713,-7.2713,-7.2713,-7.2713,-7.2713,-7.2713,-7.2713,-7.2713,-7.2713,-7.2713,-7.2713,-7.2713,-7.2713,-7.2713,-7.2713,-7.2713,-7.2713,-7.2713,-7.2713,-7.2713,-7.2713,-7.2713,-7.2713,-7.2713,-7.2713,-7.2713,-7.2713,-7.2713,-7.2713,-7.2713,-7.2713,-7.2713,-7.2713,-7.2713,-7.2713,-7.2713,-7.2713,-7.2713,-7.2713,-7.2713,-7.2713,-7.2713,-7.2713,-7.2713,-7.2713,-7.2713,-7.2713,-7.2713,-7.2713,-7.2713,-7.2713,-7.2713,-7.2713,-7.2713,-7.2713,-7.2713,-7.2713,-7.2713,-7.2713,-7.2713,-7.2713,-7.2713,-7.2713,-7.2713,-7.2713,-7.2713,-7.2713,-7.2713,-7.2713,-7.2713,-7.2713,-7.2713,-7.2713,-7.2713,-7.2713,-7.2713,-7.2713,-7.2713,-7.1873,-7.1389,-7.121,-6.9442,-6.8104,-6.713,-6.6921,-6.6849,-6.6849,-6.6638,-6.6617,-6.6617,-6.6617,-6.6617,-6.6617,-6.6617,-6.6617,-6.6617,-6.6617,-6.6617,-6.6617,-7.2713,-7.2713,-7.2713,-7.2713,-7.2713,-7.2713,-7.2713,-7.2713,-7.2713,-7.2713,-7.2713,-7.2713,-7.2713,-7.2713,-7.2713,-7.2713,-7.2713,-7.2713,-7.2713,-7.2713,-7.2713,-7.2713,-7.2713,-7.2713,-7.2713,-7.2713,-7.2713,-7.2713,-7.2713,-7.2713,-7.2713,-7.2713,-7.2713,-7.2713,-7.2713,-7.2713,-7.2713,-7.2713,-7.2713,-7.2713,-7.2713,-7.2713,-7.2713,-7.2713,-7.2713,-7.2713,-7.2713,-7.2713,-7.2713,-7.2713,-7.2713,-7.2713,-7.2713,-7.2713,-7.2713,-7.2713,-7.2713,-7.2713,-7.2713,-7.2713,-7.2713,-7.2713,-7.2713,-7.2713,-7.2713,-7.2713,-7.2713,-7.2713,-7.2713,-7.2713,-7.2713,-7.2713,-7.2713,-7.2713,-7.2713,-7.2713,-7.2713,-7.2713,-7.2713,-7.2713,-7.2713,-7.2713,-7.2713,-7.2713,-7.2713,-7.2713,-7.2713,-7.2713,-7.2713,-7.2713,-7.2713,-7.2713,-7.2713,-7.2713,-7.2713,-7.2586,-7.2081,-7.121,-7.0906,-7.023,-6.9169,-6.8271,-6.7903,-6.7852,-6.6974,-6.6617,-6.6617,-6.6617,-6.6617,-6.6617,-6.6617,-6.6617,-6.6617,-6.6617,-6.6617,-6.6617,-7.2713,-7.2713,-7.2713,-7.2713,-7.2713,-7.2713,-7.2713,-7.2713,-7.2713,-7.2713,-7.2713,-7.2713,-7.2713,-7.2713,-7.2713,-7.2713,-7.2713,-7.2713,-7.2713,-7.2713,-7.2713,-7.2713,-7.2713,-7.2713,-7.2713,-7.2713,-7.2713,-7.2713,-7.2713,-7.2713,-7.2713,-7.2713,-7.2713,-7.2713,-7.2713,-7.2713,-7.2713,-7.2713,-7.2713,-7.2713,-7.2713,-7.2713,-7.2713,-7.2713,-7.2713,-7.2713,-7.2713,-7.2713,-7.2713,-7.2713,-7.2713,-7.2713,-7.2713,-7.2713,-7.2713,-7.2713,-7.2713,-7.2713,-7.2713,-7.2713,-7.2713,-7.2713,-7.2713,-7.2713,-7.2713,-7.2713,-7.2713,-7.2713,-7.2713,-7.2713,-7.2713,-7.2713,-7.2713,-7.2713,-7.2713,-7.2713,-7.2713,-7.2713,-7.2713,-7.2713,-7.2713,-7.2713,-7.2713,-7.2713,-7.2713,-7.2713,-7.2713,-7.2713,-7.2713,-7.2713,-7.2713,-7.2713,-7.2713,-7.2713,-7.2713,-7.2713,-7.2501,-7.2038,-7.2038,-7.1187,-6.9599,-6.9121,-6.8927,-6.8879,-6.847,-6.8304,-6.8304,-6.8304,-6.7953,-6.7427,-6.7427,-6.7078,-6.6617,-6.6617,-6.6617,-6.6617]},{"header":{"parameterUnit":"m.s-1","parameterCategory":1,"la1":30.6,"la2":28.766,"lo1":-90.7593,"lo2":-88.6598,"dy":0.0162,"dx":0.0183,"nx":116,"ny":114,"refTime":"2023-06-15T00:00:00:Z","depth":0,"parameterNumber":3,"parameterNumberName":"V-component_of_WINDS"},"data":[0.0,0.0,0.0,0.0,0.0,0.0,0.0,0.0,0.0,0.0,0.0,0.0,0.0,0.0,0.0,0.0,0.0,0.0,0.0,0.0,0.0,0.0,0.0,0.0,0.0,0.0,0.0,0.0,0.0,0.0,0.0,0.0,0.0,0.0,0.0,0.0,0.0,0.0,0.0,0.0,0.0,0.0,0.0,0.0,0.0,0.0,0.0,0.0,0.0,0.0,0.0,0.0,0.0,0.0,0.0,0.0,0.0,0.0,0.0,0.0,0.0,0.0,0.0,0.0,0.0,0.0,0.0,0.0,0.0,0.0,0.0,0.0,0.0,0.0,0.0,0.0,0.0,0.0,0.0,0.0,0.0,0.0,0.0,0.0,0.0,0.0,0.0,0.0,0.0,0.0,0.0,0.0,0.0,0.0,0.0,0.0,0.0,0.0,0.0,0.0,0.0,0.0,0.0,0.0,0.0,0.0,0.0,0.0,0.0,0.0,0.0,0.0,0.0,0.0,0.0,0.0,0.0,0.0,0.0,0.0,0.0,0.0,0.0,0.0,0.0,0.0,0.0,0.0,0.0,0.0,0.0,0.0,0.0,0.0,0.0,0.0,0.0,0.0,0.0,0.0,0.0,0.0,0.0,0.0,0.0,0.0,0.0,0.0,0.0,0.0,0.0,0.0,0.0,0.0,0.0,0.0,0.0,0.0,0.0,0.0,0.0,0.0,0.0,0.0,0.0,0.0,0.0,0.0,0.0,0.0,0.0,0.0,0.0,0.0,0.0,0.0,0.0,0.0,0.0,0.0,0.0,0.0,0.0,0.0,0.0,0.0,0.0,0.0,0.0,0.0,0.0,0.0,0.0,0.0,0.0,0.0,0.0,0.0,0.0,0.0,0.0,0.0,0.0,0.0,0.0,0.0,0.0,0.0,0.0,0.0,0.0,0.0,0.0,0.0,0.0,0.0,0.0,0.0,0.0,0.0,0.0,0.0,0.0,0.0,0.0,0.0,0.0,0.0,0.0,0.0,0.0,0.0,0.0,0.0,0.0,0.0,0.0,0.0,0.0,0.0,0.0,0.0,0.0,0.0,0.0,0.0,0.0,0.0,0.0,0.0,0.0,0.0,0.0,0.0,0.0,0.0,0.0,0.0,0.0,0.0,0.0,0.0,0.0,0.0,0.0,0.0,0.0,0.0,0.0,0.0,0.0,0.0,0.0,0.0,0.0,0.0,0.0,0.0,0.0,0.0,0.0,0.0,0.0,0.0,0.0,0.0,0.0,0.0,0.0,0.0,0.0,0.0,0.0,0.0,0.0,0.0,0.0,0.0,0.0,0.0,0.0,0.0,0.0,0.0,0.0,0.0,0.0,0.0,0.0,0.0,0.0,0.0,0.0,0.0,0.0,0.0,0.0,0.0,0.0,0.0,0.0,0.0,0.0,0.0,0.0,0.0,0.0,0.0,0.0,0.0,0.0,0.0,0.0,0.0,0.0,0.0,0.0,0.0,0.0,0.0,0.0,0.0,0.0,0.0,0.0,0.0,0.0,0.0,0.0,0.0,0.0,0.0,0.0,0.0,0.0,0.0,0.0,0.0,0.0,0.0,0.0,0.0,0.0,0.0,0.0,0.0,0.0,0.0,0.0,0.0,0.0,0.0,0.0,0.0,0.0,0.0,0.0,0.0,0.0,0.0,0.0,0.0,0.0,0.0,0.0,0.0,0.0,0.0,0.0,0.0,0.0,0.0,0.0,0.0,0.0,0.0,0.0,0.0,0.0,0.0,0.0,0.0,0.0,0.0,0.0,0.0,0.0,0.0,0.0,0.0,0.0,0.0,0.0,0.0,0.0,0.0,0.0,0.0,0.0,0.0,0.0,0.0,0.0,0.0,0.0,0.0,0.0,0.0,0.0,0.0,0.0,0.0,0.0,0.0,0.0,0.0,0.0,0.0,0.0,0.0,0.0,0.0,0.0,0.0,0.0,0.0,0.0,0.0,0.0,0.0,0.0,0.0,0.0,0.0,0.0,0.0,0.0,0.0,0.0,0.0,0.0,0.0,0.0,0.0,0.0,0.0,0.0,0.0,0.0,0.0,0.0,0.0,0.0,0.0,0.0,0.0,0.0,0.0,0.0,0.0,0.0,0.0,0.0,0.0,0.0,0.0,0.0,0.0,0.0,0.0,0.0,0.0,0.0,0.0,0.0,0.0,0.0,0.0,0.0,0.0,0.0,0.0,0.0,0.0,0.0,0.0,0.0,0.0,0.0,0.0,0.0,0.0,0.0,0.0,0.0,0.0,0.0,0.0,0.0,0.0,0.0,0.0,0.0,0.0,0.0,0.0,0.0,0.0,0.0,0.0,0.0,0.0,0.0,0.0,0.0,0.0,0.0,0.0,0.0,0.0,0.0,0.0,0.0,0.0,0.0,0.0,0.0,0.0,0.0,0.0,0.0,0.0,0.0,0.0,0.0,0.0,0.0,0.0,0.0,0.0,0.0,0.0,0.0,0.0,0.0,0.0,0.0,0.0,0.0,0.0,0.0,0.0,0.0,0.0,0.0,0.0,0.0,0.0,0.0,0.0,0.0,0.0,0.0,0.0,0.0,0.0,0.0,0.0,0.0,0.0,0.0,0.0,0.0,0.0,0.0,0.0,0.0,0.0,0.0,0.0,0.0,0.0,0.0,0.0,0.0,0.0,0.0,0.0,0.0,0.0,0.0,0.0,0.0,0.0,0.0,0.0,0.0,0.0,0.0,0.0,0.0,0.0,0.0,0.0,0.0,0.0,0.0,0.0,0.0,0.0,0.0,0.0,0.0,0.0,0.0,0.0,0.0,0.0,0.0,0.0,0.0,0.0,0.0,0.0,0.0,0.0,0.0,0.0,0.0,0.0,0.0,0.0,0.0,0.0,0.0,0.0,0.0,0.0,0.0,0.0,0.0,0.0,0.0,0.0,0.0,0.0,0.0,0.0,0.0,0.0,0.0,0.0,0.0,0.0,0.0,0.0,0.0,0.0,0.0,0.0,0.0,0.0,0.0,0.0,0.0,0.0,0.0,0.0,0.0,0.0,0.0,0.0,0.0,0.0,0.0,0.0,0.0,0.0,0.0,0.0,0.0,0.0,0.0,0.0,0.0,0.0,0.0,0.0,0.0,0.0,0.0,0.0,0.0,0.0,0.0,0.0,0.0,0.0,0.0,0.0,0.0,0.0,0.0,0.0,0.0,0.0,0.0,0.0,0.0,0.0,0.0,0.0,0.0,0.0,0.0,0.0,0.0,0.0,0.0,0.0,0.0,0.0,0.0,0.0,0.0,0.0,0.0,0.0,0.0,0.0,0.0,0.0,0.0,0.0,0.0,0.0,0.0,0.0,0.0,0.0,0.0,0.0,0.0,0.0,0.0,0.0,0.0,0.0,0.0,0.0,0.0,0.0,0.0,0.0,0.0,0.0,0.0,0.0,0.0,0.0,0.0,0.0,0.0,0.0,0.0,0.0,0.0,0.0,0.0,0.0,0.0,0.0,0.0,0.0,0.0,0.0,0.0,0.0,0.0,0.0,0.0,0.0,0.0,0.0,0.0,0.0,0.0,0.0,0.0,0.0,0.0,0.0,0.0,0.0,0.0,0.0,0.0,0.0,0.0,0.0,0.0,0.0,0.0,0.0,0.0,0.0,0.0,0.0,0.0,0.0,0.0,0.0,0.0,0.0,0.0,0.0,0.0,0.0,0.0,0.0,0.0,0.0,0.0,0.0,0.0,0.0,0.0,0.0,0.0,0.0,0.0,0.0,0.0,0.0,0.0,0.0,0.0,0.0,0.0,0.0,0.0,0.0,0.0,0.0,0.0,0.0,0.0,0.0,0.0,0.0,0.0,0.0,0.0,0.0,0.0,0.0,0.0,0.0,0.0,0.0,0.0,0.0,0.0,0.0,0.0,0.0,0.0,0.0,0.0,0.0,0.0,0.0,0.0,0.0,0.0,0.0,0.0,0.0,0.0,0.0,0.0,0.0,0.0,0.0,0.0,0.0,0.0,0.0,0.0,0.0,0.0,0.0,0.0,0.0,0.0,0.0,0.0,0.0,0.0,0.0,0.0,0.0,0.0,0.0,0.0,0.0,0.0,0.0,0.0,0.0,0.0,0.0,0.0,0.0,0.0,0.0,0.0,0.0,0.0,0.0,0.0,0.0,0.0,0.0,0.0,0.0,0.0,0.0,0.0,0.0,0.0,0.0,0.0,0.0,0.0,0.0,0.0,0.0,0.0,0.0,0.0,0.0,0.0,0.0,0.0,0.0,0.0,0.0,0.0,0.0,0.0,0.0,0.0,0.0,0.0,0.0,0.0,0.0,0.0,0.0,0.0,0.0,0.0,0.0,0.0,0.0,0.0,0.0,0.0,0.0,0.0,0.0,0.0,0.0,0.0,0.0,0.0,0.0,0.0,0.0,0.0,0.0,0.0,0.0,0.0,0.0,0.0,0.0,0.0,0.0,0.0,0.0,0.0,0.0,0.0,0.0,0.0,0.0,0.0,0.0,0.0,0.0,0.0,0.0,0.0,0.0,0.0,0.0,0.0,0.0,0.0,0.0,0.0,0.0,0.0,0.0,0.0,0.0,0.0,0.0,0.0,0.0,0.0,0.0,0.0,0.0,0.0,0.0,0.0,0.0,0.0,0.0,0.0,0.0,0.0,0.0,0.0,0.0,0.0,0.0,0.0,0.0,0.0,0.0,0.0,0.0,0.0,0.0,0.0,0.0,0.0,0.0,0.0,0.0,0.0,0.0,0.0,0.0,0.0,0.0,0.0,0.0,0.0,0.0,0.0,0.0,0.0,0.0,0.0,0.0,0.0,0.0,0.0,0.0,0.0,0.0,0.0,0.0,0.0,0.0,0.0,0.0,0.0,0.0,0.0,0.0,0.0,0.0,0.0,0.0,0.0,0.0,0.0,0.0,0.0,0.0,0.0,0.0,0.0,0.0,0.0,0.0,0.0,0.0,0.0,0.0,0.0,0.0,0.0,0.0,0.0,0.0,0.0,0.0,0.0,0.0,0.0,0.0,0.0,0.0,0.0,0.0,0.0,0.0,0.0,0.0,0.0,0.0,0.0,0.0,0.0,0.0,0.0,0.0,0.0,0.0,0.0,0.0,0.0,0.0,0.0,0.0,0.0,0.0,0.0,0.0,0.0,0.0,0.0,0.0,0.0,0.0,0.0,0.0,0.0,0.0,0.0,0.0,0.0,0.0,0.0,0.0,0.0,0.0,0.0,0.0,0.0,0.0,0.0,0.0,0.0,0.0,0.0,0.0,0.0,0.0,0.0,0.0,0.0,0.0,0.0,0.0,0.0,0.0,0.0,0.0,0.0,0.0,0.0,0.0,0.0,0.0,0.0,0.0,0.0,0.0,0.0,0.0,0.0,0.0,0.0,0.0,0.0,0.0,0.0,0.0,0.0,0.0,0.0,0.0,0.0,0.0,0.0,0.0,0.0,0.0,0.0,0.0,0.0,0.0,0.0,0.0,0.0,0.0,0.0,0.0,0.0,0.0,0.0,0.0,0.0,0.0,0.0,0.0,0.0,0.0,0.0,0.0,0.0,0.0,0.0,0.0,0.0,0.0,0.0,0.0,0.0,0.0,0.0,0.0,0.0,0.0,0.0,0.0,0.0,0.0,0.0,0.0,0.0,0.0,0.0,0.0,0.0,0.0,0.0,0.0,0.0,0.0,0.0,0.0,0.0,0.0,0.0,0.0,0.0,0.0,0.0,0.0,0.0,0.0,0.0,0.0,0.0,0.0,0.0,0.0,0.0,0.0,0.0,0.0,0.0,0.0,0.0,0.0,0.0,0.0,0.0,0.0,0.0,0.0,0.0,0.0,0.0,0.0,0.0,0.0,0.0,0.0,0.0,0.0,0.0,0.0,0.0,0.0,0.0,0.0,0.0,0.0,0.0,0.0,0.0,0.0,0.0,0.0,0.0,0.0,0.0,0.0,0.0,0.0,0.0,0.0,0.0,0.0,0.0,0.0,0.0,0.0,0.0,0.0,0.0,0.0,0.0,0.0,0.0,0.0,0.0,0.0,0.0,0.0,0.0,0.0,0.0,0.0,0.0,0.0,0.0,0.0,0.0,0.0,-3.9056,0.0,0.0,0.0,0.0,0.0,0.0,0.0,0.0,0.0,0.0,0.0,0.0,0.0,0.0,0.0,0.0,0.0,0.0,0.0,0.0,0.0,0.0,0.0,0.0,0.0,0.0,0.0,0.0,0.0,0.0,0.0,0.0,0.0,0.0,0.0,0.0,0.0,0.0,0.0,0.0,0.0,0.0,0.0,0.0,0.0,0.0,0.0,0.0,0.0,0.0,0.0,0.0,0.0,0.0,0.0,0.0,0.0,0.0,0.0,0.0,0.0,0.0,0.0,0.0,0.0,0.0,0.0,0.0,0.0,0.0,0.0,0.0,0.0,0.0,0.0,0.0,0.0,0.0,0.0,0.0,0.0,0.0,0.0,0.0,0.0,0.0,0.0,0.0,0.0,0.0,0.0,0.0,0.0,0.0,0.0,0.0,0.0,0.0,0.0,0.0,0.0,0.0,0.0,0.0,0.0,0.0,0.0,0.0,0.0,0.0,0.0,0.0,0.0,0.0,0.0,0.0,-4.033,0.0,0.0,0.0,0.0,0.0,0.0,0.0,0.0,0.0,0.0,0.0,0.0,0.0,0.0,0.0,0.0,0.0,0.0,0.0,0.0,0.0,0.0,0.0,0.0,0.0,0.0,0.0,0.0,0.0,0.0,0.0,0.0,0.0,0.0,0.0,0.0,0.0,0.0,0.0,0.0,0.0,0.0,0.0,0.0,0.0,0.0,0.0,0.0,0.0,0.0,0.0,0.0,0.0,0.0,0.0,0.0,0.0,0.0,0.0,0.0,0.0,0.0,0.0,0.0,0.0,0.0,0.0,0.0,0.0,0.0,0.0,0.0,0.0,0.0,0.0,0.0,0.0,0.0,0.0,0.0,0.0,0.0,0.0,0.0,0.0,0.0,0.0,0.0,0.0,0.0,0.0,0.0,0.0,0.0,0.0,0.0,0.0,0.0,0.0,0.0,0.0,0.0,0.0,0.0,0.0,0.0,0.0,0.0,-3.9826,-3.9874,-3.9898,-4.0531,-4.0749,-4.0612,-4.1647,-4.1339,-4.0238,-4.0293,0.0,0.0,0.0,0.0,0.0,0.0,0.0,0.0,0.0,0.0,0.0,0.0,0.0,0.0,0.0,0.0,0.0,0.0,0.0,0.0,0.0,0.0,0.0,0.0,0.0,0.0,0.0,0.0,0.0,0.0,0.0,0.0,0.0,0.0,0.0,0.0,0.0,0.0,-3.1717,-3.1717,-3.1958,-3.237,-3.1934,0.0,0.0,0.0,0.0,0.0,0.0,0.0,0.0,0.0,0.0,0.0,0.0,0.0,0.0,0.0,0.0,0.0,0.0,0.0,0.0,0.0,0.0,0.0,0.0,0.0,0.0,0.0,0.0,0.0,0.0,0.0,0.0,0.0,0.0,0.0,0.0,0.0,0.0,0.0,0.0,0.0,0.0,0.0,-3.823,-3.9747,0.0,0.0,0.0,0.0,0.0,0.0,0.0,0.0,0.0,0.0,0.0,0.0,0.0,-4.0666,-4.0001,-4.0209,-4.0282,-4.0306,-4.0763,-4.098,-4.1037,-4.2114,-4.2051,-4.1191,-4.2593,0.0,-4.1094,-4.1274,0.0,0.0,0.0,0.0,0.0,0.0,0.0,0.0,0.0,0.0,0.0,0.0,0.0,0.0,0.0,0.0,0.0,0.0,0.0,0.0,0.0,0.0,0.0,0.0,0.0,0.0,0.0,0.0,0.0,0.0,0.0,0.0,0.0,0.0,0.0,0.0,-3.1597,-3.1862,-3.213,-3.213,-3.2418,-3.2923,-3.2683,-3.2707,-3.2971,-3.3236,0.0,0.0,0.0,0.0,0.0,0.0,0.0,0.0,0.0,0.0,0.0,0.0,0.0,0.0,0.0,0.0,0.0,0.0,0.0,0.0,0.0,0.0,0.0,0.0,0.0,0.0,0.0,0.0,0.0,0.0,0.0,0.0,0.0,0.0,0.0,0.0,0.0,0.0,0.0,-3.7655,-3.8489,-3.908,-3.8979,-3.8667,0.0,0.0,0.0,0.0,0.0,0.0,0.0,0.0,0.0,-4.2674,-4.1622,-4.1084,-4.1205,-4.1112,-4.0982,-4.0836,-4.1076,-4.1172,-4.1254,-4.2037,-4.1955,-4.1254,-4.2234,-4.207,-4.123,-4.1492,-4.1549,-4.1459,0.0,0.0,0.0,0.0,-4.1172,-4.1172,0.0,0.0,0.0,0.0,0.0,0.0,0.0,0.0,0.0,0.0,0.0,0.0,0.0,0.0,0.0,-2.8715,0.0,0.0,0.0,0.0,0.0,0.0,0.0,0.0,0.0,0.0,0.0,0.0,-3.191,-3.2154,-3.2707,-3.2707,-3.2971,-3.3477,-3.3477,-3.3477,-3.3501,-3.3838,-3.4078,0.0,0.0,0.0,0.0,0.0,0.0,0.0,0.0,0.0,0.0,0.0,0.0,0.0,0.0,0.0,0.0,0.0,0.0,0.0,0.0,0.0,0.0,0.0,0.0,0.0,0.0,0.0,0.0,0.0,0.0,0.0,0.0,0.0,0.0,0.0,0.0,0.0,0.0,-3.8902,-3.9298,-3.9532,-4.0242,-4.0385,0.0,0.0,0.0,0.0,0.0,0.0,-4.3807,-4.2033,-4.1882,-4.3883,-4.2434,-4.1977,-4.2623,-4.2119,-4.1789,-4.1581,-4.1581,-4.1581,-4.1605,-4.199,-4.2024,-4.1605,-4.2014,-4.2,-4.1615,-4.1613,-4.1549,-4.1492,-4.1344,-4.123,-4.1172,-4.1172,-4.1172,-4.1172,0.0,0.0,0.0,0.0,0.0,0.0,0.0,0.0,0.0,0.0,0.0,0.0,0.0,0.0,-2.9268,-2.9268,-2.9749,-3.0254,0.0,0.0,0.0,0.0,0.0,0.0,0.0,0.0,0.0,-3.2466,-3.2466,-3.2731,-3.326,-3.326,-3.3525,-3.3958,-3.3958,-3.3958,-3.3958,-3.3982,-3.427,-3.4751,0.0,0.0,0.0,0.0,0.0,0.0,0.0,0.0,0.0,0.0,0.0,0.0,0.0,0.0,0.0,0.0,0.0,0.0,0.0,0.0,0.0,0.0,0.0,0.0,0.0,0.0,0.0,0.0,0.0,0.0,0.0,0.0,0.0,0.0,0.0,0.0,0.0,0.0,0.0,-4.3143,-4.409,0.0,0.0,0.0,0.0,-4.2984,-4.2928,-4.3239,-4.3804,-4.3665,-4.4157,-4.5342,-4.4506,-4.4055,-4.408,-4.3164,-4.2747,-4.2747,-4.2747,-4.2747,-4.2747,-4.2771,-4.2771,-4.2747,-4.2771,-4.2771,-4.2651,-4.1929,-4.1435,-4.123,-4.1492,-4.1459,-4.1172,-4.1172,-4.1172,-4.1172,0.0,0.0,0.0,0.0,0.0,0.0,0.0,0.0,0.0,0.0,0.0,0.0,0.0,-2.9196,-2.9436,-2.9773,-3.0302,-3.0706,-3.0898,0.0,0.0,0.0,0.0,0.0,0.0,0.0,-3.2298,-3.2491,-3.2851,-3.3284,-3.3765,-3.3765,-3.4006,-3.4486,-3.4486,-3.4486,-3.4486,-3.4486,-3.4607,-3.4775,-3.4775,-3.4775,0.0,0.0,0.0,0.0,0.0,0.0,0.0,0.0,0.0,0.0,0.0,0.0,0.0,0.0,0.0,0.0,0.0,0.0,0.0,0.0,0.0,0.0,0.0,0.0,0.0,0.0,0.0,0.0,0.0,0.0,0.0,0.0,0.0,0.0,0.0,0.0,0.0,-4.3771,-4.4776,0.0,-4.3546,-4.4173,-4.4724,-4.4864,-4.4383,-4.4861,-4.6677,-4.4723,-4.4459,-4.6566,-4.482,-4.4144,-4.4751,-4.3989,-4.3446,-4.3241,-4.3601,-4.3794,-4.3794,-4.413,-4.4106,-4.3794,-4.4154,-4.4106,-4.3746,-4.3482,-4.2927,-4.2265,-4.23,-4.23,-4.2265,-4.2265,-4.2265,-4.2265,0.0,0.0,0.0,0.0,0.0,0.0,0.0,0.0,0.0,0.0,0.0,-2.8907,-2.9268,-2.9605,-2.9965,-3.0326,-3.0874,-3.1187,-3.1187,0.0,0.0,0.0,0.0,0.0,0.0,-3.2322,-3.2683,-3.302,-3.338,-3.3885,-3.451,-3.451,-3.4847,-3.5352,-3.5352,-3.5352,-3.5352,-3.516,-3.4943,-3.4775,-3.4775,-3.4775,-3.4775,0.0,0.0,0.0,0.0,0.0,0.0,0.0,0.0,0.0,0.0,0.0,0.0,0.0,0.0,0.0,0.0,0.0,0.0,0.0,0.0,0.0,0.0,0.0,0.0,0.0,0.0,0.0,0.0,0.0,0.0,0.0,0.0,0.0,0.0,0.0,-4.4447,-4.3957,-4.5258,-4.5678,-4.4256,-4.5644,-4.6535,-4.6221,-4.5741,-4.5954,-4.692,-4.4894,-4.4662,-4.6799,-4.5045,-4.4621,-4.5716,-4.4975,-4.4532,-4.4323,-4.4645,-4.4813,-4.4837,-4.5237,-4.5213,-4.4837,-4.5261,-4.5149,-4.4813,-4.4813,-4.4467,-4.3794,-4.3433,-4.3289,-4.3289,-4.3289,-4.3289,-4.3289,0.0,0.0,0.0,0.0,0.0,0.0,0.0,0.0,0.0,0.0,-2.8979,-2.9316,-2.934,-3.0254,-3.0922,-3.0946,-3.1404,-3.1717,-3.1717,-3.1717,0.0,0.0,0.0,0.0,-3.2491,-3.2539,-3.3044,-3.3982,-3.403,-3.4558,-3.5617,-3.5641,-3.5905,-3.6411,-3.6411,-3.6411,-3.6362,-3.5857,-3.5352,-3.4823,-3.4799,-3.4775,-3.4775,0.0,0.0,0.0,0.0,0.0,0.0,0.0,0.0,0.0,0.0,0.0,0.0,0.0,0.0,0.0,0.0,0.0,0.0,0.0,0.0,0.0,0.0,0.0,0.0,0.0,0.0,0.0,0.0,0.0,0.0,0.0,0.0,0.0,-4.4532,-4.4303,-4.4162,-4.3993,-4.5837,-4.6924,-4.6345,-4.8302,-4.8786,-4.6813,-4.6975,-4.6262,-4.4378,-4.4252,-4.4886,-4.621,-4.5363,-4.554,-4.6895,-4.628,-4.5958,-4.5982,-4.5982,-4.6006,-4.603,-4.603,-4.603,-4.603,-4.603,-4.603,-4.603,-4.603,-4.603,-4.591,-4.4765,-4.4333,-4.4333,-4.4333,-4.4333,-4.4333,0.0,0.0,0.0,0.0,0.0,0.0,0.0,0.0,0.0,0.0,-2.922,-2.9581,-3.0392,-3.0711,-3.1067,-3.1452,-3.1621,-3.1717,-3.1717,0.0,0.0,0.0,0.0,0.0,-3.2491,-3.3236,-3.3718,-3.3982,-3.4751,-3.5328,-3.5617,-3.6002,-3.6266,-3.6411,-3.6411,-3.6411,-3.6386,-3.6242,-3.6098,-3.5905,-3.5087,-3.4775,-3.4775,0.0,0.0,0.0,0.0,0.0,0.0,0.0,0.0,0.0,0.0,0.0,0.0,0.0,0.0,0.0,0.0,0.0,0.0,0.0,0.0,0.0,0.0,0.0,0.0,0.0,0.0,0.0,0.0,0.0,0.0,0.0,0.0,-4.6868,-4.6223,-4.6862,-4.7608,-4.8034,-4.8213,-4.7854,-4.6705,-4.6759,-4.6533,-4.5745,-4.5387,-4.543,-4.5867,-4.5657,-4.6129,-4.7338,-4.645,-4.6472,-4.7507,-4.6841,-4.668,-4.7064,-4.7449,-4.7834,-4.8219,-4.8219,-4.8219,-4.8219,-4.8219,-4.8219,-4.8219,-4.8219,-4.8219,-4.8026,-4.6199,-4.5501,-4.5501,-4.5501,-4.5501,-4.5477,0.0,0.0,0.0,0.0,0.0,0.0,0.0,0.0,0.0,0.0,-2.9484,-2.9941,-3.0826,-3.1115,-3.138,-3.1693,-3.1717,-3.1717,-3.1717,0.0,0.0,0.0,0.0,-3.2611,-3.2827,-3.3574,-3.4102,-3.4318,-3.5159,-3.5737,-3.5954,-3.6483,-3.6867,-3.706,-3.706,-3.706,-3.706,-3.6819,-3.6747,-3.6675,-3.5833,-3.5352,-3.516,-3.516,-3.516,-3.5135,-3.54,-3.5689,-3.5954,-3.5954,0.0,0.0,0.0,0.0,0.0,0.0,0.0,0.0,0.0,0.0,0.0,0.0,0.0,0.0,0.0,0.0,0.0,0.0,0.0,0.0,0.0,0.0,0.0,0.0,-4.7308,-4.8468,-4.8432,-4.8233,-4.8044,-4.7921,-4.772,-4.7217,-4.6398,-4.6537,-4.6415,-4.5839,-4.5833,-4.6049,-4.6475,-4.6327,-4.6644,-4.7541,-4.7085,-4.7264,-4.8041,-4.7821,-4.7858,-4.8171,-4.8483,-4.8772,-4.9084,-4.9084,-4.9084,-4.9084,-4.9084,-4.9084,-4.9084,-4.9084,-4.9084,0.0,0.0,0.0,0.0,0.0,-4.7257,-4.7233,0.0,0.0,0.0,0.0,0.0,0.0,0.0,0.0,0.0,0.0,0.0,-3.0374,-3.0946,-3.1428,-3.1717,-3.1717,-3.1717,-3.1717,0.0,0.0,0.0,-3.1789,-3.2298,-3.2827,-3.3356,-3.3861,-3.4342,-3.4871,-3.5449,-3.5978,-3.6507,-3.7036,-3.7541,-3.7974,-3.7974,-3.7974,-3.795,-3.7493,-3.7276,-3.7228,-3.6699,-3.617,-3.5713,-3.5713,-3.5713,-3.5761,-3.6242,-3.6435,-3.6483,-3.6483,0.0,0.0,0.0,0.0,0.0,0.0,0.0,0.0,0.0,0.0,0.0,0.0,0.0,0.0,0.0,0.0,0.0,0.0,0.0,0.0,0.0,0.0,0.0,0.0,-4.8888,-5.0017,-5.0535,-4.8754,-4.7056,-4.6051,-4.5935,-4.5928,-4.5871,-4.6929,-4.727,-4.6471,-4.7207,-4.7332,-4.6494,0.0,0.0,0.0,0.0,-4.7906,-4.8387,-4.8844,-4.9109,-4.9157,-4.9229,-4.9301,-4.9349,-4.9421,-4.9445,-4.9445,-4.9445,-4.9445,-4.9445,-4.9445,-4.9397,-4.9325,-4.9157,-4.9084,-4.9084,-4.9084,-4.9084,-4.9084,0.0,0.0,0.0,0.0,0.0,0.0,0.0,0.0,0.0,-2.96,-3.01,-3.0711,-3.1456,-3.1645,-3.1717,-3.1717,-3.1717,-3.1717,0.0,0.0,-3.191,-3.2322,-3.2851,-3.338,-3.3838,-3.4366,-3.4895,-3.5473,-3.6002,-3.6531,-3.706,-3.7589,-3.7878,-3.7974,-3.7974,-3.7974,-3.7974,-3.7878,-3.7829,-3.7781,-3.7252,-3.6723,-3.6266,-3.6266,-3.6266,-3.6266,-3.6362,-3.6675,-3.7036,-3.7036,-3.7324,-3.7685,-3.7685,0.0,0.0,0.0,0.0,0.0,0.0,0.0,0.0,0.0,0.0,0.0,0.0,0.0,0.0,0.0,0.0,0.0,0.0,0.0,0.0,-4.8176,-4.9544,-5.0385,-5.0091,-4.9249,-4.86,-4.8567,-4.7698,-4.688,-4.6408,-4.6559,-4.6461,-4.6017,-4.6591,-4.6827,-4.6624,-4.7419,-4.8016,-4.8112,-4.8575,-4.882,-4.8916,-4.9036,-4.9301,-4.971,0.0,0.0,-5.1032,-5.1465,-5.1658,-5.1658,-5.1658,-5.1658,-5.1658,-5.1658,-5.1417,-5.0888,-4.9589,-4.9084,-4.9084,-4.9084,-4.9084,-4.9084,0.0,0.0,0.0,0.0,0.0,0.0,0.0,0.0,0.0,0.0,-3.0114,-3.0767,-3.1424,-3.1629,-3.1717,-3.1717,-3.1717,0.0,0.0,-3.1717,-3.1958,-3.2491,-3.2996,-3.3525,-3.3982,-3.451,-3.5039,-3.5617,-3.6146,-3.6675,-3.7204,-3.7733,-3.7974,-3.7974,-3.7974,-3.7974,-3.7974,-3.7974,-3.7974,-3.795,-3.7685,-3.7421,-3.7156,-3.6892,-3.6795,-3.6843,-3.7108,-3.7372,-3.7589,-3.7589,-3.7757,-3.7974,-3.7974,-3.7974,-3.7974,0.0,0.0,0.0,0.0,0.0,0.0,0.0,0.0,0.0,0.0,0.0,0.0,0.0,0.0,-4.3526,0.0,0.0,-4.8247,-4.9405,-4.995,-5.0337,-5.0474,-4.9139,-4.8262,-4.842,-4.7464,-4.6692,-4.6476,-4.6538,-4.6448,-4.6319,-4.68,-4.7233,-4.7497,-4.8002,-4.8411,-4.8676,-4.9205,-4.9614,-4.9902,-5.0143,-5.0551,-5.1081,-5.1345,-5.1489,-5.1489,-5.1778,-5.173,-5.1489,-5.1489,-5.1489,-5.1489,-5.1489,-5.1345,-5.1008,-5.0215,-4.9902,-4.9902,-4.9902,-4.9902,-4.9902,0.0,0.0,0.0,0.0,0.0,0.0,0.0,0.0,0.0,0.0,0.0,-3.0798,-3.1181,-3.154,-3.1717,0.0,0.0,0.0,0.0,-3.1717,-3.2006,-3.2635,-3.3068,-3.3573,-3.4126,-3.4558,-3.5039,-3.5617,-3.6146,-3.6675,-3.7204,-3.7733,-3.7974,-3.7974,-3.7974,-3.7974,-3.7974,-3.7974,-3.7974,-3.7974,-3.7974,-3.7974,-3.7926,-3.7517,-3.7348,-3.7397,-3.7829,-3.7974,-3.7974,-3.7974,-3.7974,-3.7974,-3.7974,-3.7974,-3.7998,-3.8118,-3.8142,0.0,0.0,0.0,0.0,0.0,0.0,0.0,0.0,0.0,-4.123,-4.1492,-4.2407,-4.3716,-4.5207,-4.6835,-4.8458,-4.9956,-4.9844,-4.9881,-5.0685,-4.9001,-4.7692,-4.788,-4.6945,-4.6357,-4.6479,-4.6689,-4.6872,-4.6872,-4.7353,-4.7834,-4.8267,-4.8483,-4.8844,-4.9373,-4.9902,-5.0455,-5.1008,-5.1345,-5.1706,-5.2139,-5.2139,-5.1898,-5.1489,-5.1586,-5.1417,-5.1008,-5.1008,-5.1008,-5.1008,-5.0912,-5.0864,-5.084,-5.0744,-5.0696,-5.0696,-5.0696,-5.0696,-5.0696,0.0,0.0,0.0,0.0,0.0,0.0,0.0,0.0,0.0,0.0,0.0,0.0,0.0,0.0,0.0,0.0,0.0,0.0,0.0,-3.1717,-3.2175,-3.3164,-3.326,-3.3741,-3.4679,-3.4751,-3.5039,-3.5617,-3.6146,-3.6675,-3.7204,-3.7733,-3.7974,-3.7974,-3.7974,-3.7974,-3.7974,-3.7974,-3.7974,-3.7974,-3.7974,-3.7974,-3.7974,-3.7926,-3.7902,-3.7902,-3.795,-3.7974,-3.7974,-3.7974,-3.7974,-3.7974,-3.7974,-3.7974,-3.807,-3.8575,0.0,-3.8839,-3.9369,-3.985,0.0,-4.0956,-4.11,-4.1124,0.0,0.0,-4.1516,-4.2519,-4.283,-4.3513,-4.538,-4.5975,-4.6565,-4.8047,-4.8635,-4.9137,-4.9778,-4.9098,-4.861,-4.8835,-4.7788,-4.6948,-4.6672,-4.7112,-4.7425,-4.7425,-4.7906,-4.8219,-4.8291,-4.9181,-4.995,-5.0503,-5.1032,-5.1562,-5.2091,-5.1706,-5.1513,-5.1586,-5.1586,-5.1537,-5.1513,-5.197,-5.2163,-5.2115,-5.2115,-5.2115,-5.2067,-5.1586,-5.1393,-5.1345,-5.0888,-5.0696,-5.0696,-5.0696,-5.0696,-5.0696,0.0,0.0,0.0,0.0,0.0,0.0,0.0,0.0,0.0,0.0,0.0,0.0,0.0,0.0,0.0,0.0,0.0,0.0,-3.1717,-3.1961,-3.2491,-3.326,-3.3573,-3.4078,-3.4751,-3.4775,-3.5039,-3.5617,-3.5833,-3.6218,-3.6747,-3.7276,-3.7517,-3.7541,-3.7853,-3.7974,-3.7974,-3.7974,-3.7974,-3.7974,-3.7974,-3.7974,-3.7974,-3.7974,-3.7974,-3.7974,-3.7974,-3.7974,0.0,0.0,-3.7974,-3.7974,-3.7974,-3.819,-3.8503,-3.8743,-3.9032,0.0,-3.9922,0.0,0.0,0.0,-4.1172,-4.1172,-4.1172,-4.1172,-4.1344,-4.1834,-4.2824,-4.3863,-4.4652,-4.6058,-4.7277,0.0,-4.8142,-4.8425,-4.8816,-4.8269,-4.7926,-4.8084,-4.7661,-4.7292,-4.7161,-4.7377,-4.7617,-4.793,-4.8171,-4.8555,-4.9181,-4.9926,-5.06,-5.1153,-5.1682,-5.2067,-5.2283,-5.2067,-5.1946,-5.1946,-5.1946,-5.1778,-5.1489,-5.173,-5.1658,-5.1369,-5.1369,-5.1369,-5.1345,-5.1129,-5.1032,-5.1008,-5.0792,-5.0696,-5.0696,-5.0696,-5.0696,-5.0696,0.0,0.0,0.0,0.0,0.0,0.0,0.0,0.0,0.0,0.0,0.0,0.0,0.0,0.0,0.0,0.0,0.0,0.0,0.0,-3.2178,-3.2731,-3.326,-3.3765,0.0,-3.4775,-3.4775,-3.4967,-3.54,-3.5545,-3.5809,-3.6194,-3.6723,-3.6964,-3.6988,-3.7372,-3.7637,-3.7757,-3.7757,-3.7853,-3.7974,-3.7974,-3.7974,-3.7974,-3.7974,-3.7974,-3.7974,-3.7974,-3.7974,0.0,0.0,-3.8094,-3.8214,-3.8214,-3.8599,-3.9056,-3.9224,-3.9633,-4.0138,-4.0499,0.0,0.0,-4.1172,-4.1172,-4.1172,-4.1172,-4.1172,-4.122,-4.1365,-4.2577,-4.3619,-4.3861,-4.5464,0.0,-4.6985,-4.7223,-4.738,-4.7508,-4.7405,-4.7327,-4.7449,-4.7497,-4.7569,-4.7714,-4.7714,-4.7882,-4.8267,-4.8555,-4.906,-4.983,-5.0527,-5.1105,-5.1489,-5.1994,-5.2283,-5.2283,-5.2139,-5.2067,-5.2067,-5.1922,-5.1634,-5.1273,-5.1273,-5.1056,-5.0696,-5.0696,-5.0696,-5.0696,-5.0696,-5.0696,-5.0696,-5.0696,-5.0696,-5.0696,-5.0696,-5.0696,-5.0696,0.0,0.0,0.0,0.0,0.0,0.0,0.0,0.0,0.0,0.0,0.0,0.0,0.0,0.0,0.0,0.0,0.0,0.0,0.0,-3.2178,-3.2731,-3.326,-3.3765,-3.4246,-3.4775,-3.4775,-3.4799,-3.4799,-3.5376,-3.5617,-3.5641,-3.617,-3.6435,-3.6435,-3.6435,-3.6747,-3.7204,-3.7204,-3.7517,-3.7974,-3.7974,-3.7974,-3.7974,-3.7974,-3.7974,-3.7974,-3.7974,0.0,0.0,0.0,-3.8359,-3.8791,-3.8791,-3.9152,0.0,-4.0186,-4.0715,0.0,0.0,0.0,-4.1172,-4.1172,-4.1172,-4.1172,-4.1172,-4.1172,-4.1317,-4.1846,-4.2024,-4.2338,-4.3325,-4.3602,-4.3795,-4.435,-4.5252,-4.5974,-4.5974,-4.6824,-4.7473,-4.7497,-4.7497,-4.7714,0.0,-4.8267,-4.8267,-4.8291,-4.9229,-4.983,-4.9878,-5.0888,-5.1465,-5.1489,-5.1994,-5.2283,-5.2283,-5.1778,-5.1513,-5.1513,-5.1008,-5.0744,-5.072,-5.072,-5.072,-5.0696,-5.0696,-5.0696,-5.0696,-5.0696,-5.0696,-5.0696,-5.0696,-5.0696,-5.0696,-5.0696,-5.0696,-5.0696,0.0,0.0,0.0,0.0,0.0,0.0,0.0,0.0,0.0,0.0,0.0,0.0,0.0,0.0,0.0,0.0,0.0,0.0,0.0,-3.2081,-3.3092,-3.3284,-3.4102,-3.4607,-3.4775,-3.4775,-3.4775,-3.4775,-3.4967,-3.5039,-3.5112,-3.5641,-3.5881,-3.5905,-3.6242,-3.6699,-3.7204,-3.7204,-3.7493,-3.7974,-3.7974,-3.7974,-3.7974,-3.7974,-3.7974,-3.7974,0.0,0.0,0.0,0.0,0.0,0.0,-3.8815,0.0,0.0,-4.0763,-4.1052,-4.1172,0.0,0.0,-4.1172,-4.1172,-4.1172,-4.1172,-4.1172,-4.1172,-4.1341,-4.187,-4.2313,-4.2711,-4.3385,-4.3818,-4.4069,-4.4261,-4.5173,-4.5934,-4.5934,-4.6824,-4.7497,-4.7497,-4.781,0.0,0.0,0.0,0.0,-4.9277,-4.9662,-5.0191,-5.0912,-5.1297,-5.1658,-5.1994,-5.2187,-5.2115,-5.1754,-5.1586,-5.1321,-5.096,-5.0792,-5.0696,-5.0696,-5.0696,-5.0696,-5.0696,-5.0696,-5.0696,-5.0696,-5.0696,-5.0696,-5.0696,-5.0696,-5.0696,-5.0696,-5.0696,-5.0696,-5.0696,0.0,0.0,0.0,0.0,0.0,0.0,0.0,0.0,0.0,0.0,0.0,0.0,0.0,0.0,0.0,0.0,0.0,0.0,0.0,0.0,-3.2697,-3.3284,-3.4102,-3.4583,-3.4823,-3.4775,-3.4775,-3.4775,-3.4775,-3.4775,-3.4799,-3.5184,-3.5328,-3.5352,-3.5689,-3.6146,-3.6651,-3.6819,-3.7204,-3.7709,-3.7902,-3.7974,-3.7974,-3.7974,-3.7974,0.0,0.0,0.0,0.0,0.0,0.0,0.0,0.0,-3.997,-4.0739,-4.1076,-4.1172,-4.1172,0.0,-4.1172,-4.1172,-4.1172,-4.1172,-4.1172,-4.1172,-4.1172,-4.1341,-4.187,-4.2458,-4.2904,-4.3409,-4.3962,-4.4285,-4.4285,-4.5173,-4.5934,-4.5934,-4.6824,-4.7497,-4.7497,-4.7954,0.0,0.0,0.0,0.0,-4.983,-5.0046,-5.0479,-5.1177,-5.1393,-5.1562,-5.1706,-5.1898,-5.1754,-5.1225,-5.1201,-5.1032,-5.0696,-5.0696,-5.0696,-5.0696,-5.0696,-5.0696,-5.0696,-5.0696,-5.0696,-5.0696,-5.0696,-5.0696,-5.0696,-5.0696,-5.0696,-5.0696,-5.0696,-5.0696,-5.0696,0.0,0.0,0.0,0.0,0.0,0.0,0.0,0.0,0.0,0.0,0.0,0.0,0.0,0.0,0.0,0.0,0.0,0.0,0.0,0.0,0.0,-3.3074,-3.3671,-3.4246,-3.4726,-3.4775,-3.4775,-3.4775,-3.4775,-3.4775,-3.4775,-3.4775,-3.4775,-3.4775,-3.4775,-3.5112,-3.5641,-3.617,-3.6723,-3.7252,-3.7757,-3.7974,-3.7974,-3.7974,0.0,0.0,0.0,0.0,0.0,0.0,0.0,0.0,0.0,0.0,-4.1172,-4.1172,-4.1172,-4.1172,-4.1172,-4.1172,-4.1172,-4.1172,-4.1172,-4.1172,-4.1172,-4.1172,-4.1341,-4.187,-4.2375,-4.288,0.0,0.0,-4.4237,-4.4237,-4.5149,-4.5934,-4.5934,-4.6824,-4.7521,0.0,0.0,0.0,0.0,0.0,0.0,-4.995,0.0,-5.072,-5.0744,-5.1201,-5.1225,-5.0768,-5.1201,-5.1201,-5.072,-5.0696,-5.0696,-5.0696,-5.0696,-5.0696,-5.0696,-5.0696,-5.0696,-5.0696,-5.0696,-5.0696,-5.0696,-5.0696,-5.0696,-5.0696,-5.0696,-5.0696,-5.0696,-5.0696,-5.0696,-5.0696,0.0,0.0,0.0,0.0,0.0,0.0,0.0,0.0,0.0,0.0,0.0,0.0,0.0,0.0,0.0,0.0,0.0,0.0,0.0,0.0,0.0,0.0,0.0,0.0,0.0,0.0,0.0,0.0,0.0,-3.4775,-3.4775,-3.4775,-3.4775,0.0,-3.4775,-3.5112,-3.5641,-3.617,-3.6723,-3.7252,0.0,-3.7974,-3.7974,0.0,0.0,0.0,0.0,0.0,0.0,0.0,0.0,0.0,0.0,0.0,-4.1172,-4.1172,0.0,-4.1172,-4.1172,-4.1172,-4.1172,-4.1172,-4.1172,-4.1172,-4.1172,-4.1172,-4.1341,-4.187,-4.2086,-4.2327,0.0,0.0,0.0,-4.3721,-4.4972,0.0,-4.5934,-4.6824,0.0,0.0,0.0,-4.9084,-4.9614,-5.0167,0.0,0.0,-5.084,-5.0864,-5.1273,-5.1056,-5.1032,-5.1273,-5.1032,-5.084,-5.0696,-5.0696,-5.0696,-5.0696,-5.0696,-5.0696,-5.0696,-5.0696,-5.0696,-5.0696,-5.0696,-5.0696,-5.0696,-5.0696,-5.0696,-5.0696,-5.0696,-5.0696,-5.0696,-5.0696,-5.0696,-5.0696,0.0,0.0,0.0,0.0,0.0,0.0,0.0,0.0,0.0,0.0,0.0,0.0,0.0,0.0,0.0,0.0,0.0,0.0,0.0,0.0,0.0,0.0,0.0,0.0,0.0,0.0,0.0,0.0,0.0,0.0,0.0,-3.4775,-3.4775,-3.4775,-3.4775,-3.4943,-3.5255,0.0,0.0,0.0,0.0,0.0,0.0,0.0,0.0,0.0,0.0,0.0,0.0,0.0,0.0,-4.0787,-4.11,-4.1172,-4.1172,-4.1172,0.0,-4.1172,-4.1172,-4.1341,-4.1485,-4.1244,-4.1365,-4.1461,-4.1244,-4.1172,-4.1268,-4.1557,-4.1822,0.0,0.0,0.0,0.0,0.0,0.0,0.0,-4.5934,-4.6824,-4.769,0.0,-4.8748,0.0,-4.9875,-5.0576,-5.1081,0.0,-5.0864,-5.0936,-5.1465,-5.0984,-5.084,-5.1129,-5.0864,-5.0696,-5.0696,-5.0696,-5.0696,-5.0696,-5.0696,-5.0696,-5.0696,-5.0696,-5.0696,-5.0696,0.0,-5.0696,-5.0696,-5.0696,-5.0696,-5.0696,-5.0696,-5.0696,-5.0696,-5.0696,-5.0696,-5.0696,0.0,0.0,0.0,0.0,0.0,0.0,0.0,0.0,0.0,0.0,0.0,0.0,0.0,0.0,0.0,0.0,0.0,0.0,0.0,0.0,0.0,0.0,0.0,0.0,0.0,0.0,0.0,0.0,0.0,0.0,0.0,0.0,0.0,0.0,0.0,0.0,0.0,0.0,0.0,0.0,0.0,0.0,0.0,0.0,0.0,0.0,0.0,0.0,0.0,0.0,-4.0306,-4.1172,-4.1172,-4.1172,-4.1172,-4.1172,-4.1172,-4.1196,-4.1268,-4.1629,-4.187,-4.1413,-4.1629,-4.1822,-4.1293,-4.1172,-4.1172,-4.1172,0.0,0.0,-4.2024,0.0,-4.3433,-4.3505,0.0,-4.5838,-4.591,-4.6776,-4.7642,-4.8315,-4.8796,-4.9349,-5.0022,-5.0864,-5.1249,-5.0936,-5.0792,-5.0912,-5.1369,-5.096,-5.0696,-5.0696,-5.0696,-5.0696,-5.0696,-5.0696,-5.0696,-5.0696,-5.0696,-5.0696,-5.0696,-5.0696,-5.0696,-5.0696,-5.0696,-5.0696,-5.0696,-5.0696,-5.0696,-5.0696,-5.0696,-5.0696,-5.0696,-5.0696,-5.0696,-5.0696,0.0,0.0,0.0,0.0,0.0,0.0,0.0,0.0,0.0,0.0,-2.4202,-2.4202,0.0,0.0,0.0,0.0,0.0,0.0,0.0,0.0,0.0,0.0,0.0,0.0,0.0,0.0,0.0,0.0,0.0,0.0,0.0,0.0,0.0,0.0,0.0,0.0,0.0,0.0,0.0,0.0,0.0,0.0,0.0,0.0,0.0,0.0,0.0,0.0,0.0,0.0,-4.0306,-4.1172,-4.1172,-4.1172,-4.1172,-4.1172,-4.1172,-4.1268,-4.1725,-4.1894,-4.2,-4.187,-4.1894,-4.1822,-4.1293,-4.1172,0.0,0.0,0.0,-4.1461,-4.1894,-4.2471,0.0,-4.3433,0.0,0.0,0.0,0.0,-4.7377,0.0,0.0,0.0,0.0,0.0,0.0,0.0,0.0,-5.0744,-5.084,-5.0744,-5.0696,-5.0696,-5.0696,-5.0696,-5.0696,-5.0696,-5.0696,-5.0696,-5.0696,-5.0696,-5.0696,-5.0696,-5.0696,-5.0696,-5.0696,0.0,-5.0696,-5.0696,-5.0696,-5.0696,-5.0696,-5.0696,-5.0696,-5.0696,-5.0696,-5.0696,0.0,0.0,0.0,0.0,0.0,0.0,0.0,-2.4202,-2.4202,-2.4202,-2.4202,-2.4202,-2.4202,-2.4202,-2.4202,0.0,0.0,0.0,0.0,0.0,0.0,0.0,0.0,0.0,0.0,0.0,0.0,0.0,0.0,0.0,0.0,0.0,0.0,0.0,0.0,0.0,0.0,0.0,0.0,0.0,0.0,0.0,0.0,0.0,0.0,0.0,0.0,0.0,0.0,0.0,-4.0547,-4.1172,-4.1172,-4.1172,-4.1172,-4.1172,-4.1172,-4.1293,-4.1822,-4.1966,-4.1966,-4.1966,-4.1966,-4.1822,-4.1293,0.0,0.0,0.0,0.0,-4.1677,-4.1918,0.0,0.0,0.0,0.0,0.0,0.0,0.0,0.0,0.0,0.0,0.0,0.0,0.0,0.0,0.0,0.0,-5.1105,-5.1105,-5.0864,-5.0696,-5.0696,-5.0696,-5.0696,-5.0696,-5.0696,-5.0696,-5.0696,-5.0696,-5.0696,-5.0696,-5.0696,-5.0696,-5.0696,-5.0696,0.0,-5.0696,-5.0696,-5.0696,-5.0696,-5.0696,-5.0696,-5.0696,-5.0696,-5.0696,-5.0696,0.0,0.0,0.0,0.0,0.0,0.0,0.0,-2.4202,-2.4202,-2.4202,-2.4202,-2.4202,-2.4202,-2.4202,-2.4202,0.0,0.0,0.0,0.0,0.0,0.0,0.0,0.0,0.0,0.0,0.0,0.0,0.0,0.0,0.0,0.0,0.0,0.0,0.0,0.0,0.0,0.0,0.0,0.0,0.0,0.0,0.0,0.0,0.0,0.0,0.0,0.0,0.0,0.0,0.0,-4.0739,-4.1172,-4.1172,-4.1172,-4.1172,-4.1172,-4.1172,-4.1293,-4.1822,-4.1966,-4.1966,-4.1966,-4.1966,-4.1822,-4.1293,-4.1172,0.0,0.0,0.0,0.0,0.0,0.0,0.0,0.0,0.0,0.0,0.0,0.0,0.0,0.0,0.0,0.0,0.0,0.0,0.0,0.0,0.0,0.0,-5.1321,-5.0936,-5.0696,-5.0696,-5.0696,-5.0696,-5.0696,-5.0696,-5.0696,-5.0696,-5.0696,-5.0696,-5.0696,-5.0696,-5.0696,-5.0696,-5.0696,0.0,0.0,-5.0696,-5.0696,-5.0696,-5.0696,-5.0696,-5.0696,-5.0696,-5.0696,-5.0696,0.0,0.0,0.0,0.0,0.0,0.0,0.0,-2.4202,-2.4202,-2.4202,-2.4202,-2.4202,-2.4202,-2.4202,-2.4202,0.0,0.0,0.0,0.0,0.0,0.0,0.0,0.0,0.0,0.0,0.0,0.0,0.0,0.0,0.0,0.0,0.0,0.0,0.0,0.0,0.0,0.0,0.0,0.0,0.0,0.0,0.0,0.0,0.0,0.0,0.0,0.0,0.0,0.0,0.0,0.0,-4.1172,-4.1172,-4.1172,-4.1172,-4.1172,0.0,0.0,-4.1822,-4.1966,-4.1966,-4.1966,-4.1966,-4.1822,-4.1293,0.0,0.0,0.0,0.0,-4.211,0.0,0.0,0.0,0.0,0.0,0.0,0.0,0.0,0.0,0.0,0.0,0.0,0.0,0.0,0.0,0.0,0.0,0.0,-5.0768,-5.072,-5.0696,-5.0696,-5.0696,-5.0696,-5.0696,-5.0696,-5.0696,-5.0696,-5.0696,-5.0696,-5.0696,-5.0696,-5.0696,-5.0696,-5.0696,0.0,0.0,-5.0696,-5.0696,-5.0696,-5.0696,-5.0696,-5.0696,-5.0696,-5.0696,-5.0696,0.0,0.0,0.0,0.0,0.0,0.0,-2.4202,-2.4202,-2.4202,-2.4202,-2.4202,-2.4202,-2.4202,-2.4202,-2.4202,-2.4202,0.0,0.0,0.0,0.0,0.0,0.0,0.0,0.0,0.0,0.0,0.0,0.0,0.0,0.0,0.0,0.0,0.0,0.0,0.0,0.0,0.0,0.0,0.0,0.0,0.0,0.0,0.0,0.0,0.0,0.0,0.0,0.0,0.0,0.0,0.0,0.0,-4.1172,-4.1172,0.0,0.0,-4.1172,-4.1293,-4.1822,-4.1749,-4.1581,-4.1894,-4.1725,-4.1437,-4.122,0.0,0.0,-4.1581,-4.2086,-4.2615,-4.312,0.0,0.0,0.0,0.0,0.0,0.0,0.0,0.0,0.0,0.0,0.0,0.0,0.0,0.0,0.0,0.0,0.0,-5.0696,-5.0696,-5.0696,-5.0696,-5.0696,-5.0696,-5.0696,-5.0696,-5.0696,-5.0696,-5.0696,-5.0696,-5.0696,-5.0696,-5.0696,-5.0696,-5.0696,0.0,0.0,-5.0696,-5.0696,-5.0696,-5.0696,-5.0696,-5.0696,-5.0696,-5.0696,-5.0696,0.0,0.0,0.0,0.0,0.0,-2.4202,-2.4202,-2.4202,-2.4202,-2.4202,-2.4202,-2.4202,-2.4202,-2.4202,-2.4202,-2.4202,-2.4202,0.0,0.0,0.0,0.0,0.0,0.0,0.0,0.0,0.0,-2.7799,-2.726,-2.7368,0.0,0.0,0.0,0.0,0.0,0.0,0.0,0.0,0.0,0.0,0.0,0.0,0.0,0.0,0.0,0.0,0.0,0.0,0.0,0.0,0.0,0.0,0.0,0.0,0.0,0.0,0.0,-4.1172,-4.1268,-4.1629,-4.1461,-4.1268,-4.1653,-4.1461,-4.1172,0.0,0.0,0.0,-4.187,-4.2458,-4.2904,-4.3409,0.0,0.0,0.0,0.0,0.0,0.0,0.0,0.0,0.0,0.0,0.0,0.0,0.0,0.0,0.0,0.0,0.0,0.0,-5.0696,-5.0696,-5.0696,-5.0696,-5.0696,-5.0696,-5.0696,-5.0696,-5.0696,-5.0696,-5.0696,-5.0696,-5.0696,-5.0696,-5.0696,-5.0696,0.0,0.0,-5.0696,-5.0696,-5.0696,-5.0696,-5.0696,-5.0696,-5.0696,-5.0696,-5.0696,0.0,0.0,0.0,0.0,0.0,0.0,-2.4202,-2.4202,-2.4202,-2.4202,-2.4202,-2.4202,-2.4202,-2.4202,-2.4202,-2.4202,-2.4202,0.0,0.0,0.0,0.0,0.0,0.0,0.0,0.0,0.0,-2.6736,-2.6989,-2.726,-2.7994,-2.9144,-3.0557,0.0,0.0,0.0,0.0,0.0,0.0,0.0,0.0,0.0,0.0,0.0,0.0,0.0,0.0,0.0,0.0,0.0,0.0,0.0,0.0,0.0,0.0,0.0,0.0,-4.1172,-4.1172,-4.1196,-4.1196,-4.1172,-4.1196,-4.1196,-4.1172,0.0,0.0,0.0,-4.187,-4.2458,-4.2904,-4.3409,-4.3962,0.0,0.0,0.0,0.0,0.0,0.0,0.0,0.0,0.0,0.0,0.0,0.0,0.0,0.0,0.0,0.0,0.0,-5.0696,-5.0696,-5.0696,-5.0696,-5.0696,-5.0696,-5.0696,-5.0696,-5.0696,-5.0696,-5.0696,-5.0696,-5.0696,-5.0696,0.0,0.0,0.0,0.0,-5.0696,-5.0696,-5.0696,-5.0696,-5.0696,-5.0696,-5.0696,-5.0696,-5.0696,0.0,0.0,0.0,0.0,0.0,0.0,0.0,-2.4202,-2.4202,-2.4202,-2.4202,-2.4202,-2.4202,-2.4202,-2.4202,-2.4202,-2.4202,0.0,0.0,0.0,0.0,0.0,0.0,0.0,0.0,0.0,-2.7457,-2.6989,-2.726,-2.7584,-2.7994,-3.0193,-3.1124,-3.1051,0.0,0.0,0.0,0.0,0.0,0.0,0.0,0.0,0.0,0.0,0.0,0.0,0.0,0.0,0.0,0.0,0.0,0.0,0.0,0.0,0.0,0.0,0.0,0.0,-4.1172,-4.1172,-4.1172,-4.1172,-4.1172,-4.1172,-4.1172,0.0,-4.1437,-4.2386,-4.2699,-4.3024,-4.3853,-4.4165,0.0,0.0,0.0,0.0,0.0,0.0,0.0,0.0,0.0,0.0,0.0,0.0,0.0,0.0,0.0,0.0,0.0,-5.0696,-5.0696,-5.0696,-5.0696,-5.0696,-5.0696,-5.0696,-5.0696,-5.0696,-5.0696,-5.0696,-5.0696,-5.0696,-5.0696,0.0,0.0,0.0,0.0,-5.0696,-5.0696,-5.0696,-5.0696,-5.0696,-5.0696,-5.0696,-5.0696,-5.0696,0.0,0.0,0.0,0.0,0.0,0.0,0.0,-2.4202,-2.4202,-2.4202,-2.4202,-2.4202,-2.4202,-2.4202,-2.4257,-2.4422,-2.444,0.0,0.0,0.0,0.0,0.0,0.0,0.0,-2.6826,-2.7349,-2.7349,-2.6845,-2.7206,-2.7368,-2.7422,-2.988,-3.066,-3.0037,-3.2951,0.0,0.0,0.0,0.0,0.0,0.0,0.0,-3.7974,0.0,0.0,0.0,0.0,0.0,0.0,0.0,0.0,0.0,0.0,0.0,0.0,0.0,-4.1172,0.0,0.0,-4.1172,-4.1172,-4.1172,-4.1172,0.0,0.0,0.0,-4.1485,-4.2602,-4.2819,-4.3096,-4.4093,-4.4285,0.0,0.0,0.0,0.0,0.0,0.0,0.0,0.0,0.0,0.0,0.0,0.0,0.0,0.0,0.0,0.0,0.0,-5.0696,-5.0696,-5.0696,-5.0696,-5.0696,-5.0696,-5.0696,-5.0696,-5.0696,-5.0696,-5.0696,-5.0696,-5.0696,-5.0696,0.0,0.0,0.0,0.0,-5.0696,-5.0696,-5.0696,-5.0696,-5.0696,-5.0696,-5.0696,-5.0696,-5.0696,0.0,0.0,0.0,0.0,0.0,0.0,0.0,-2.4202,-2.4202,-2.4202,-2.4202,-2.4202,-2.4202,-2.4238,-2.4404,-2.4739,0.0,0.0,0.0,0.0,0.0,0.0,0.0,0.0,-2.6591,-2.6591,-2.6591,-2.6591,-2.7116,-2.7368,-2.7422,-2.9691,-3.0401,-2.9932,-3.2823,-3.2695,0.0,0.0,0.0,0.0,0.0,0.0,0.0,0.0,0.0,0.0,0.0,0.0,0.0,0.0,0.0,0.0,0.0,0.0,0.0,0.0,0.0,0.0,0.0,0.0,0.0,0.0,0.0,0.0,0.0,0.0,0.0,-4.2602,-4.2819,-4.3096,-4.4093,0.0,0.0,0.0,0.0,0.0,0.0,0.0,0.0,0.0,0.0,0.0,0.0,0.0,0.0,0.0,0.0,0.0,0.0,-5.0696,-5.0696,-5.0696,-5.0696,-5.0696,-5.0696,-5.0696,-5.0696,-5.0696,-5.0696,-5.0696,-5.0696,-5.0696,-5.0696,0.0,0.0,0.0,0.0,-5.0696,-5.0696,-5.0696,-5.0696,-5.0696,-5.0696,-5.0696,-5.0696,-5.0696,0.0,0.0,0.0,0.0,0.0,0.0,0.0,0.0,0.0,0.0,-2.4202,-2.4202,-2.4202,-2.4496,-2.4716,0.0,0.0,0.0,0.0,0.0,0.0,0.0,0.0,0.0,-2.6591,-2.6591,-2.6591,-2.6591,-2.6954,-2.7206,-2.7422,-2.944,-2.9775,-2.8794,-3.2471,-3.4176,0.0,0.0,0.0,0.0,0.0,0.0,0.0,0.0,0.0,0.0,-3.9417,-3.9946,0.0,0.0,0.0,0.0,0.0,0.0,0.0,0.0,-4.1172,-4.1172,-4.1172,0.0,-4.1172,-4.1172,-4.1172,-4.1172,0.0,0.0,0.0,0.0,0.0,0.0,0.0,0.0,0.0,0.0,0.0,0.0,0.0,0.0,0.0,0.0,0.0,0.0,0.0,0.0,0.0,0.0,0.0,0.0,0.0,-5.0696,-5.0696,-5.0696,-5.0696,-5.0696,-5.0696,-5.0696,-5.0696,-5.0696,-5.0696,-5.0696,-5.0696,-5.0696,-5.0696,0.0,0.0,0.0,-5.0696,-5.0696,-5.0696,-5.0696,-5.0696,-5.0696,-5.0696,-5.0696,-5.0696,-5.0696,0.0,0.0,0.0,0.0,0.0,0.0,0.0,0.0,0.0,0.0,0.0,0.0,0.0,0.0,0.0,0.0,0.0,0.0,0.0,0.0,0.0,0.0,0.0,-2.6591,-2.6591,-2.6591,-2.6591,-2.6591,-2.6899,-2.7368,-2.8014,-2.9197,-2.9408,-2.8973,-3.1465,-3.3464,0.0,0.0,0.0,0.0,-3.7853,0.0,0.0,0.0,0.0,0.0,-3.9777,-4.0306,0.0,-4.1076,-4.1172,-4.1172,0.0,0.0,0.0,0.0,-4.1172,-4.1172,-4.1172,-4.1172,-4.1172,-4.1172,-4.1172,-4.1172,0.0,0.0,0.0,0.0,0.0,0.0,0.0,0.0,0.0,0.0,0.0,0.0,0.0,0.0,0.0,0.0,0.0,0.0,0.0,0.0,0.0,0.0,0.0,0.0,0.0,-5.0696,-5.0696,-5.0696,-5.0696,-5.0696,-5.0696,-5.0696,-5.0696,-5.0696,-5.0696,-5.0696,-5.0696,-5.0696,-5.0696,0.0,0.0,0.0,-5.0696,-5.0696,-5.0696,-5.0696,-5.0696,-5.0696,-5.0696,-5.0696,-5.0696,-5.0696,0.0,0.0,0.0,0.0,0.0,0.0,0.0,0.0,0.0,0.0,0.0,0.0,0.0,0.0,0.0,0.0,0.0,0.0,0.0,0.0,0.0,0.0,-2.6591,-2.6591,-2.6591,-2.6591,-2.6591,-2.6591,-2.6845,-2.7476,-2.8528,-2.888,-2.9448,-3.0161,-3.0831,-3.2497,0.0,0.0,0.0,0.0,-3.7814,0.0,0.0,0.0,0.0,0.0,0.0,0.0,0.0,-4.1172,-4.1172,-4.1172,-4.1172,0.0,0.0,0.0,0.0,0.0,-4.1172,-4.1172,-4.1172,-4.1172,-4.1172,-4.1172,0.0,0.0,0.0,0.0,0.0,0.0,0.0,0.0,0.0,0.0,0.0,0.0,0.0,0.0,0.0,0.0,0.0,0.0,0.0,0.0,0.0,0.0,0.0,0.0,0.0,-5.0696,-5.0696,-5.0696,-5.0696,-5.0696,-5.0696,-5.0696,-5.0696,-5.0696,-5.0696,-5.0696,-5.0696,-5.0696,-5.0696,-5.0696,0.0,0.0,-5.0696,-5.0696,-5.0696,-5.0696,-5.0696,-5.0696,-5.0696,-5.0696,-5.0696,-5.0696,0.0,0.0,0.0,0.0,0.0,0.0,0.0,0.0,0.0,0.0,0.0,0.0,0.0,0.0,0.0,0.0,0.0,0.0,0.0,0.0,0.0,-2.6591,-2.6591,-2.6591,-2.6591,-2.6591,-2.6591,-2.6591,-2.6646,-2.6954,-2.7638,-2.8422,-3.0297,-3.2996,-3.2836,-3.4276,-3.6824,-3.7403,-3.7796,-3.7921,-3.6881,0.0,0.0,0.0,0.0,0.0,0.0,0.0,0.0,-4.1172,-4.1172,-4.1172,-4.1172,0.0,0.0,0.0,0.0,0.0,-4.1172,-4.1172,-4.1172,-4.1172,-4.1172,-4.1172,0.0,0.0,0.0,0.0,0.0,0.0,0.0,0.0,0.0,0.0,0.0,0.0,0.0,0.0,0.0,0.0,0.0,0.0,0.0,0.0,0.0,0.0,0.0,0.0,0.0,-5.0696,-5.0696,-5.0696,-5.0696,-5.0696,-5.0696,-5.0696,-5.0696,-5.0696,-5.0696,-5.0696,-5.0696,-5.0696,-5.0696,-5.0696,0.0,-5.0696,-5.0696,-5.0696,-5.0696,-5.0696,-5.0696,-5.0696,-5.0696,-5.0696,-5.0696,-5.0696,0.0,0.0,0.0,0.0,0.0,0.0,0.0,0.0,0.0,0.0,0.0,0.0,0.0,0.0,0.0,0.0,0.0,0.0,0.0,0.0,-2.6591,-2.6591,-2.6591,-2.6591,-2.6591,-2.6591,-2.6591,-2.6591,-2.7206,-2.7672,-2.8121,-2.9758,-3.0745,-3.1258,-3.3479,-3.437,-3.4292,-3.6218,-3.6665,-3.6045,0.0,0.0,0.0,0.0,0.0,0.0,0.0,0.0,0.0,0.0,-4.1172,-4.1172,-4.1172,0.0,0.0,0.0,0.0,0.0,-4.1172,-4.1172,-4.1172,-4.1172,-4.1172,-4.1172,0.0,0.0,0.0,0.0,0.0,0.0,0.0,0.0,0.0,0.0,0.0,0.0,0.0,0.0,0.0,0.0,0.0,0.0,0.0,0.0,0.0,0.0,0.0,0.0,0.0,0.0,-5.0696,-5.0696,-5.0696,-5.0696,-5.0696,-5.0696,-5.0696,-5.0696,-5.0696,-5.0696,-5.0696,-5.0696,-5.0696,-5.0696,0.0,-5.0696,-5.0696,-5.0696,-5.0696,-5.0696,-5.0696,-5.0696,-5.0696,-5.0696,-5.0696,-5.0696,0.0,0.0,0.0,0.0,0.0,0.0,0.0,0.0,0.0,0.0,0.0,0.0,0.0,0.0,0.0,0.0,0.0,0.0,0.0,0.0,-2.6591,-2.6591,-2.6591,-2.6591,-2.6591,-2.6591,-2.6591,-2.6591,-2.7511,-2.8301,-2.9113,-3.0606,-3.09,-3.0322,-3.3367,-3.3825,-3.2427,-3.5067,-3.5685,-3.4914,0.0,0.0,0.0,0.0,0.0,0.0,0.0,0.0,0.0,0.0,0.0,0.0,0.0,0.0,0.0,-4.1172,-4.1172,-4.1172,-4.1172,-4.1172,-4.1172,-4.1172,0.0,0.0,0.0,0.0,0.0,0.0,0.0,0.0,0.0,0.0,0.0,0.0,0.0,0.0,0.0,0.0,0.0,0.0,0.0,0.0,0.0,0.0,0.0,0.0,0.0,0.0,0.0,0.0,-5.0696,-5.0696,-5.0696,-5.0696,-5.0696,-5.0696,-5.0696,-5.0696,-5.0696,-5.0696,-5.0696,-5.0696,-5.0696,-5.0696,-5.0696,-5.0696,-5.0696,-5.0696,-5.0696,-5.0696,-5.0696,-5.0696,-5.0696,-5.0696,-5.0696,-5.0696,0.0,0.0,0.0,0.0,0.0,0.0,0.0,0.0,0.0,0.0,0.0,0.0,0.0,0.0,0.0,0.0,0.0,0.0,0.0,0.0,-2.6591,-2.6591,-2.6591,-2.6591,-2.6591,-2.6591,-2.6591,-2.6591,-2.6935,-2.8134,-3.0146,-2.9573,-3.0767,-3.3443,-3.264,-3.2971,-3.4292,-3.5608,-3.6122,-3.6114,-3.6681,0.0,0.0,0.0,0.0,0.0,0.0,0.0,0.0,0.0,0.0,0.0,0.0,0.0,-4.1172,-4.1172,-4.1172,-4.1172,-4.1172,-4.1172,-4.1172,-4.1172,-4.1172,0.0,0.0,0.0,0.0,0.0,0.0,0.0,0.0,0.0,0.0,0.0,0.0,0.0,0.0,0.0,0.0,0.0,0.0,0.0,0.0,0.0,0.0,0.0,0.0,0.0,0.0,0.0,-5.0696,-5.0696,-5.0696,-5.0696,-5.0696,-5.0696,-5.0696,-5.0696,-5.0696,-5.0696,-5.0696,-5.0696,-5.0696,-5.0696,-5.0696,-5.0696,-5.0696,-5.0696,-5.0696,-5.0696,-5.0696,-5.0696,-5.0696,-5.0696,-5.0696,-5.0696,0.0,0.0,0.0,0.0,0.0,0.0,0.0,0.0,0.0,0.0,0.0,0.0,0.0,0.0,0.0,0.0,0.0,0.0,0.0,-2.6591,-2.6701,-2.694,-2.6958,-2.7068,-2.7306,-2.7049,-2.692,-2.6958,-2.7697,-2.9754,-3.2933,-3.1574,-3.1681,-3.3127,-3.3386,-3.3436,-3.3402,-3.4558,-3.4845,-3.4566,-3.6285,-3.6906,0.0,0.0,0.0,0.0,0.0,0.0,0.0,0.0,-4.1172,-4.1172,0.0,0.0,-4.1172,-4.1172,-4.1172,-4.1172,-4.1172,-4.1172,-4.1172,-4.1172,0.0,0.0,0.0,0.0,0.0,0.0,0.0,0.0,0.0,0.0,0.0,0.0,0.0,0.0,0.0,0.0,0.0,0.0,0.0,0.0,0.0,0.0,0.0,0.0,0.0,0.0,0.0,0.0,-5.0696,-5.0696,-5.0696,-5.0696,-5.0696,-5.0696,-5.0696,-5.0696,-5.0696,-5.0696,-5.0696,-5.0696,-5.0696,-5.0696,-5.0696,-5.0696,-5.0696,-5.0696,-5.0696,-5.0696,-5.0696,-5.0696,-5.0696,-5.0696,-5.0696,-5.0696,0.0,0.0,0.0,0.0,0.0,0.0,0.0,0.0,0.0,0.0,0.0,0.0,0.0,0.0,0.0,0.0,0.0,0.0,-2.6756,-2.6774,-2.6958,-2.7343,-2.7474,-2.7602,-2.7822,-2.7605,-2.7456,-2.7361,-2.8257,-3.0446,-3.3748,-3.2218,-3.2128,-3.3233,-3.3289,-3.3374,-3.3557,-3.435,-3.4666,-3.4949,-3.7177,-3.7748,0.0,0.0,0.0,0.0,0.0,0.0,0.0,0.0,0.0,0.0,0.0,0.0,0.0,0.0,-4.1172,-4.1172,-4.1172,-4.1172,-4.1172,0.0,0.0,0.0,0.0,0.0,0.0,0.0,0.0,0.0,0.0,0.0,0.0,0.0,0.0,0.0,0.0,0.0,0.0,0.0,0.0,0.0,0.0,0.0,0.0,0.0,0.0,0.0,0.0,-5.0696,-5.0696,-5.0696,-5.0696,-5.0696,-5.0696,-5.0696,-5.0696,-5.0696,-5.0527,-5.0527,-5.0696,-5.0696,-5.0696,-5.0696,-5.0696,-5.0696,-5.0696,-5.0696,-5.0696,-5.0696,-5.0696,-5.0696,-5.0696,-5.0696,-5.0696,-5.0696,0.0,0.0,0.0,0.0,0.0,0.0,0.0,0.0,0.0,0.0,0.0,0.0,0.0,0.0,0.0,0.0,0.0,0.0,-2.716,-2.7178,-2.7417,-2.7803,-2.8049,-2.8068,-2.784,-2.8389,-2.8389,-2.7822,-2.8514,-2.989,-3.2016,-3.0914,-3.1862,-3.428,-3.196,-3.253,-3.5225,-3.5225,-3.6194,-3.7963,-3.9712,-3.9618,-3.8585,0.0,0.0,0.0,0.0,0.0,0.0,0.0,-4.1172,0.0,0.0,0.0,0.0,0.0,-4.1172,-4.1172,-4.1172,-4.1172,0.0,0.0,0.0,0.0,0.0,0.0,0.0,0.0,0.0,0.0,0.0,0.0,0.0,0.0,0.0,0.0,0.0,0.0,0.0,0.0,0.0,0.0,0.0,0.0,0.0,0.0,0.0,0.0,0.0,-5.0696,-5.0696,-5.0696,-5.0696,-5.0696,-5.0696,-5.0696,-5.0696,-5.0672,-5.0119,-5.0143,-5.0696,-5.0696,-5.0696,-5.0696,-5.0696,-5.0696,-5.0696,-5.0696,-5.0696,-5.0696,-5.0696,-5.0696,-5.0696,-5.0696,-5.0696,-5.0696,0.0,0.0,0.0,0.0,0.0,0.0,0.0,0.0,0.0,0.0,0.0,0.0,0.0,0.0,0.0,0.0,0.0,0.0,-2.7581,-2.7638,-2.7765,-2.8187,-2.8321,-2.8449,-2.8627,-2.9018,-2.9565,-3.0094,-2.9969,-3.1144,-3.3415,-3.2431,-3.2892,-3.4357,-3.3111,-3.401,-3.6432,-3.5918,-3.6649,-3.8332,-3.9798,-3.9831,-3.915,0.0,0.0,0.0,0.0,0.0,0.0,0.0,0.0,0.0,0.0,0.0,0.0,-4.1172,-4.1172,-4.1172,-4.1172,0.0,0.0,0.0,0.0,0.0,0.0,0.0,0.0,0.0,0.0,0.0,0.0,0.0,0.0,0.0,0.0,0.0,0.0,0.0,0.0,0.0,0.0,0.0,0.0,0.0,0.0,0.0,0.0,0.0,0.0,-5.0696,-5.0527,-5.0119,-5.0119,-4.9926,-4.9565,-4.9565,-4.9565,-4.9565,-4.9397,-4.9589,-5.0119,-5.0119,-5.0119,-5.0143,-5.0527,-5.0696,-5.0696,-5.0696,-5.0696,-5.0696,-5.0696,-5.0696,-5.0696,-5.0696,-5.0696,-5.0696,0.0,0.0,0.0,0.0,0.0,0.0,0.0,0.0,0.0,0.0,-2.6719,0.0,0.0,0.0,0.0,0.0,0.0,0.0,0.0,-2.8022,-2.8205,-2.8608,-2.8744,-2.9031,-2.9331,-3.0138,-3.0645,-3.0831,-3.105,-3.192,-3.3459,-3.308,-3.3848,-3.5369,-3.4164,-3.5388,-3.8307,-3.7393,-3.7975,-3.9556,-4.0407,-4.0402,-4.0024,0.0,0.0,0.0,0.0,0.0,0.0,0.0,0.0,0.0,0.0,0.0,0.0,-4.1172,-4.1172,-4.1172,-4.1172,0.0,0.0,0.0,0.0,0.0,0.0,0.0,0.0,0.0,0.0,0.0,0.0,0.0,0.0,0.0,0.0,0.0,0.0,0.0,0.0,0.0,0.0,0.0,0.0,0.0,0.0,0.0,0.0,0.0,0.0,-5.0046,-4.9902,-4.9565,-4.9541,-4.9397,-4.9084,-4.9084,-4.9084,-4.9084,-4.8868,-4.894,-4.9253,-4.9469,-4.9541,-4.9565,-4.9902,-5.0046,-5.007,-5.0287,-5.0359,-5.0383,-5.0624,-5.0696,-5.0696,-5.0696,-5.0696,-5.0696,0.0,0.0,0.0,0.0,0.0,0.0,0.0,0.0,0.0,0.0,-2.6958,-2.7196,0.0,0.0,0.0,0.0,0.0,0.0,0.0,0.0,-2.8608,-2.9016,-2.9331,-2.9627,-2.9922,-3.1325,-3.1518,-3.0508,-3.1652,-3.2342,-3.2576,-3.3219,-3.4676,-3.6802,-3.5098,-3.6603,-4.0346,-3.9012,-3.9488,-4.1057,-4.1115,-4.1057,-4.0687,-3.9592,0.0,0.0,0.0,0.0,0.0,0.0,0.0,0.0,0.0,0.0,0.0,-4.1172,-4.1172,-4.1172,0.0,0.0,0.0,0.0,0.0,0.0,0.0,0.0,0.0,0.0,0.0,0.0,0.0,0.0,0.0,0.0,0.0,0.0,0.0,0.0,0.0,0.0,0.0,0.0,0.0,0.0,0.0,0.0,0.0,0.0,0.0,-4.9084,-4.906,-4.9012,-4.9012,-4.8988,-4.894,-4.894,-4.894,-4.894,-4.8459,-4.8219,-4.8243,-4.8772,-4.9036,-4.9084,-4.9084,-4.9084,-4.9109,-4.9589,-4.9806,-4.9854,-5.0359,-5.0576,-5.0624,-5.0624,-5.0648,-5.0696,0.0,0.0,0.0,0.0,0.0,0.0,0.0,0.0,0.0,0.0,0.0,0.0,0.0,0.0,0.0,0.0,0.0,0.0,0.0,0.0,-2.9002,-2.939,-2.945,-2.9745,-3.0274,-3.0699,-3.107,-3.1249,-3.216,-3.2296,-3.1781,-3.3865,-3.525,-3.6161,-3.604,-3.7614,-4.0314,-3.8367,-3.8357,-3.9709,-4.0769,-3.9966,-3.8209,-3.8921,-3.9393,0.0,0.0,0.0,0.0,0.0,0.0,0.0,-4.1172,-4.1172,-4.1172,-4.1172,-4.1172,0.0,0.0,0.0,0.0,0.0,0.0,0.0,0.0,0.0,0.0,0.0,0.0,0.0,0.0,0.0,0.0,0.0,0.0,0.0,0.0,0.0,0.0,0.0,0.0,0.0,0.0,0.0,0.0,0.0,0.0,0.0,-4.9084,-4.9084,-4.8892,-4.8483,-4.8459,-4.8267,-4.7858,-4.7834,-4.7834,0.0,-4.7714,-4.7666,-4.769,-4.8219,-4.8676,-4.9084,-4.9084,-4.9084,-4.9084,-4.9205,-4.9253,-4.9253,-4.9373,-4.9686,-5.0046,-5.0046,-5.0335,-5.0696,0.0,0.0,0.0,0.0,0.0,0.0,0.0,0.0,0.0,0.0,0.0,0.0,0.0,0.0,0.0,0.0,0.0,0.0,0.0,0.0,-2.9781,-3.0268,-3.0329,-3.0528,-3.1007,-3.1799,-3.2097,-3.1836,-3.3451,-3.4012,-3.362,-3.5098,-3.6614,-3.8057,-3.7839,-3.8907,-4.0731,-3.9616,-3.9533,-4.0199,-4.0942,-4.0397,-3.918,-3.9157,-3.9592,-4.0083,-3.9416,0.0,0.0,0.0,0.0,0.0,0.0,0.0,-4.1172,-4.1172,-4.1172,-4.1172,0.0,0.0,0.0,0.0,0.0,0.0,0.0,0.0,0.0,0.0,0.0,0.0,0.0,0.0,0.0,0.0,0.0,0.0,0.0,0.0,0.0,0.0,0.0,0.0,0.0,0.0,0.0,0.0,0.0,-4.8315,-4.8315,-4.8315,-4.8195,-4.793,-4.7906,-4.7786,-4.7497,-4.7497,-4.7497,-4.7497,-4.7497,-4.7497,-4.7521,-4.7786,-4.805,-4.8315,-4.8315,-4.8315,-4.8339,-4.8603,-4.87,-4.8724,-4.8988,-4.9253,-4.9493,-4.9493,-4.9662,-4.9926,0.0,0.0,0.0,0.0,0.0,0.0,0.0,0.0,0.0,0.0,0.0,0.0,0.0,0.0,0.0,0.0,0.0,0.0,0.0,0.0,0.0,-3.1153,-3.1233,-3.1539,-3.2088,-3.3095,-3.3316,-3.2631,-3.4515,-3.5719,-3.6129,-3.6398,-3.7713,-3.9841,-3.8915,-3.9298,-4.0513,-4.0513,-4.0397,-4.0281,-4.0942,-4.0826,-4.0083,-3.9239,-3.9709,-4.0687,-3.9357,-3.9908,-4.1172,-4.1172,0.0,0.0,0.0,0.0,-4.1172,-4.1172,-4.1172,-4.1172,0.0,0.0,0.0,0.0,0.0,0.0,0.0,0.0,0.0,0.0,0.0,0.0,0.0,0.0,0.0,0.0,0.0,0.0,0.0,0.0,0.0,0.0,0.0,0.0,0.0,0.0,0.0,0.0,0.0,-4.7497,-4.7497,-4.7497,-4.7497,-4.7497,-4.7497,-4.7497,-4.7497,-4.7497,-4.7497,-4.7497,-4.7497,-4.7497,-4.7497,-4.7497,-4.7497,-4.7497,-4.7497,-4.7497,-4.7521,-4.7978,-4.8147,-4.8195,-4.8628,-4.8868,-4.894,-4.894,-4.8988,-4.9084,0.0,0.0,0.0,0.0,0.0,0.0,0.0,0.0,0.0,0.0,0.0,0.0,0.0,0.0,0.0,0.0,0.0,0.0,0.0,0.0,0.0,-3.1233,-3.1497,-3.233,-3.3733,-3.2929,-3.3107,-3.4368,-3.3917,-3.4882,0.0,0.0,-3.7066,-3.7619,-3.6438,-3.6642,-3.785,-3.785,-3.7188,-3.646,-3.9849,-3.918,-3.6276,-3.7188,-3.8328,-3.9298,-3.8029,-3.9121,-4.1172,-4.1172,-4.1172,0.0,0.0,0.0,-4.1172,-4.1172,-4.1172,0.0,0.0,0.0,0.0,0.0,0.0,0.0,0.0,0.0,0.0,0.0,0.0,0.0,0.0,0.0,0.0,0.0,0.0,0.0,0.0,0.0,0.0,0.0,0.0,0.0,0.0,0.0,0.0,0.0,-4.7497,-4.7497,-4.7497,-4.7497,-4.7497,-4.7497,-4.7497,-4.7497,-4.7497,-4.7497,-4.7497,-4.7497,-4.7497,-4.7497,-4.7497,-4.7497,-4.7497,-4.7497,-4.7497,-4.7497,-4.7521,-4.7569,-4.7617,-4.7617,-4.769,-4.8002,-4.8387,-4.8387,-4.8676,-4.9084,0.0,0.0,0.0,0.0,0.0,0.0,0.0,0.0,0.0,0.0,0.0,0.0,0.0,0.0,0.0,0.0,0.0,0.0,0.0,0.0,0.0,-3.2416,-3.2373,-3.2809,-3.3697,-3.3172,-3.327,-3.3977,-3.5088,0.0,0.0,-3.679,-3.7531,0.0,-3.7067,-3.7188,-3.8387,-3.8387,-3.8029,-3.773,-4.0199,-3.9732,-3.767,-3.9003,-3.9849,-4.0257,-3.9674,-4.0199,-4.1172,-4.1172,-4.1172,-4.1172,-4.1172,0.0,0.0,0.0,-4.1172,0.0,0.0,0.0,0.0,0.0,0.0,0.0,0.0,0.0,0.0,0.0,0.0,0.0,0.0,0.0,0.0,0.0,0.0,0.0,0.0,0.0,0.0,0.0,0.0,0.0,0.0,0.0,0.0,0.0,-4.7497,-4.7497,-4.7497,-4.7497,-4.7497,-4.7497,-4.7497,-4.7497,-4.7497,-4.7497,-4.7497,-4.7497,-4.7497,-4.7497,-4.7497,-4.7497,-4.7497,-4.7497,-4.7497,-4.7497,-4.7497,-4.7497,-4.7497,-4.7497,-4.7497,-4.7642,-4.7858,-4.7858,-4.8002,-4.8195,0.0,0.0,0.0,0.0,0.0,0.0,0.0,0.0,0.0,0.0,0.0,0.0,0.0,0.0,0.0,0.0,0.0,0.0,0.0,0.0,0.0,-3.3102,-3.3038,-3.3292,-3.3922,-3.3544,-3.3733,-3.4383,0.0,0.0,-3.5869,-3.6154,-3.7006,0.0,-3.7248,-3.7188,-3.7768,-3.8803,-3.8803,-3.8387,-4.0397,-4.0397,-3.9275,-4.0316,-4.0884,-4.1172,-4.0803,-4.0942,-4.1172,-4.1172,-4.1172,-4.1172,-4.1172,-4.1172,0.0,0.0,0.0,0.0,0.0,0.0,0.0,0.0,0.0,0.0,0.0,0.0,0.0,0.0,0.0,0.0,0.0,0.0,0.0,0.0,0.0,0.0,0.0,0.0,0.0,0.0,0.0,0.0,0.0,0.0,0.0,0.0,-4.7497,-4.7497,-4.7497,-4.7497,-4.7497,-4.7497,-4.7497,-4.7497,-4.7497,-4.7497,-4.7497,-4.7497,-4.7497,-4.7497,-4.7497,-4.7497,-4.7497,-4.7497,-4.7497,-4.7497,-4.7497,-4.7497,-4.7497,-4.7497,-4.7497,-4.7497,-4.7497,-4.7497,-4.7497,-4.7497,0.0,0.0,0.0,0.0,0.0,0.0,0.0,0.0,0.0,0.0,0.0,0.0,-3.0112,-3.0167,-3.0332,-3.0717,-3.1069,0.0,0.0,0.0,0.0,-3.2485,-3.3038,0.0,-3.5253,-3.4027,-3.4632,0.0,0.0,0.0,-3.7188,-3.4757,-3.434,-3.5623,-3.5561,-3.4819,-3.3965,0.0,0.0,0.0,-3.9674,-4.0397,-3.9216,-3.9275,-4.0083,-4.1057,-3.9767,-4.0141,-4.1172,-4.1172,-4.1172,-4.1172,-4.1172,-4.1172,-4.1172,0.0,0.0,0.0,0.0,0.0,0.0,0.0,0.0,0.0,0.0,0.0,0.0,0.0,0.0,0.0,0.0,0.0,0.0,0.0,0.0,0.0,0.0,0.0,0.0,0.0,0.0,0.0,0.0,0.0,0.0,0.0,0.0,-4.7497,-4.7497,-4.7497,-4.7497,-4.7497,-4.7497,-4.7497,-4.7497,-4.7497,-4.7497,-4.7497,-4.7497,-4.7497,-4.7497,-4.7497,-4.7497,-4.7497,-4.7497,-4.7497,-4.7497,-4.7497,-4.7497,-4.7497,-4.7497,-4.7497,-4.7497,-4.7497,-4.7497,-4.7497,0.0,0.0,0.0,0.0,0.0,0.0,0.0,0.0,0.0,0.0,0.0,0.0,0.0,-3.0589,-3.0736,-3.1139,-3.1495,0.0,0.0,0.0,0.0,-3.274,-3.3965,-3.4528,-3.409,-3.4465,0.0,0.0,0.0,-3.4694,-3.4819,-3.4694,-3.4465,-3.409,-3.409,-3.4757,-3.5971,-3.652,0.0,0.0,0.0,-3.9121,-3.8149,-3.9826,-4.0745,-4.1115,-4.0629,0.0,-4.1172,-4.1172,-4.1172,-4.1172,-4.1172,-4.1172,-4.1172,-4.1172,-4.1172,0.0,0.0,0.0,0.0,0.0,0.0,0.0,0.0,0.0,0.0,0.0,0.0,0.0,0.0,0.0,0.0,0.0,0.0,0.0,0.0,0.0,0.0,0.0,0.0,0.0,0.0,0.0,0.0,0.0,0.0,-4.7497,-4.7497,-4.7497,-4.7497,-4.7497,-4.7497,-4.7497,-4.7497,-4.7497,-4.7497,-4.7497,-4.7497,-4.7497,-4.7497,-4.7497,-4.7497,-4.7497,-4.7497,-4.7497,-4.7497,-4.7497,-4.7497,-4.7497,-4.7497,-4.7497,-4.7497,-4.7497,-4.7497,-4.7497,0.0,0.0,0.0,0.0,0.0,0.0,0.0,0.0,-2.9929,-3.0351,0.0,0.0,0.0,0.0,-3.1212,-3.168,-3.1846,-3.2102,-3.2549,-3.2804,-3.2912,-3.2912,-3.409,-3.434,-3.3418,-3.4278,0.0,0.0,0.0,0.0,0.0,-3.4528,-3.4465,-3.4027,-3.3607,-3.434,0.0,0.0,0.0,-3.7407,0.0,0.0,-3.8803,0.0,0.0,0.0,0.0,0.0,0.0,-4.1172,-4.1172,-4.1172,-4.1172,-4.1172,-4.1172,-4.1172,-4.1172,0.0,0.0,0.0,0.0,0.0,0.0,0.0,0.0,0.0,0.0,0.0,0.0,0.0,0.0,0.0,0.0,0.0,0.0,0.0,0.0,0.0,0.0,0.0,0.0,0.0,0.0,0.0,0.0,0.0,0.0,0.0,-4.7497,-4.7497,-4.7497,-4.7497,-4.7497,-4.7497,-4.7497,-4.7497,-4.7497,-4.7497,-4.7497,-4.7497,-4.7497,-4.7497,-4.7497,-4.7497,-4.7497,-4.7497,-4.7497,-4.7497,-4.7497,-4.7497,-4.7497,-4.7497,-4.7497,-4.7497,-4.7497,-4.7497,0.0,0.0,0.0,0.0,0.0,0.0,0.0,0.0,-3.0369,-3.0754,0.0,0.0,0.0,0.0,0.0,-3.2358,-3.2102,-3.2166,-3.2848,-3.2912,-3.2931,-3.2867,-3.3228,-3.3418,0.0,0.0,0.0,0.0,0.0,0.0,0.0,0.0,-3.409,-3.5253,-3.3965,-3.3418,-3.3544,0.0,-3.7309,-3.7407,0.0,-3.9966,-4.1115,0.0,0.0,0.0,-4.122,-4.122,0.0,-4.122,0.0,-4.1196,-4.1196,-4.1172,-4.1172,-4.1172,-4.1172,-4.1172,0.0,0.0,0.0,0.0,0.0,0.0,0.0,0.0,0.0,0.0,0.0,0.0,0.0,0.0,0.0,0.0,0.0,0.0,0.0,0.0,0.0,0.0,0.0,0.0,0.0,0.0,0.0,0.0,-4.7497,-4.7497,-4.7497,-4.7497,-4.7497,-4.7497,-4.7497,-4.7497,-4.7497,-4.7497,-4.7497,-4.7497,-4.7497,-4.7497,-4.7497,-4.7497,-4.7497,-4.7497,-4.7497,-4.7497,-4.7497,-4.7497,-4.7497,-4.7497,-4.7497,-4.7497,-4.7497,-4.7497,-4.7497,-4.7497,0.0,0.0,0.0,0.0,0.0,-3.0296,-3.0589,-3.0626,-3.0772,0.0,0.0,0.0,-3.1359,-3.1377,-3.1635,-3.2358,-3.2294,-3.2358,-3.2549,-3.2975,-3.3038,-3.2549,-3.4027,-3.4403,-3.3418,-3.434,0.0,0.0,0.0,-3.3607,-3.3985,-3.3544,0.0,0.0,-3.3544,-3.3418,-3.3481,-3.5191,0.0,0.0,-3.8684,-3.9416,0.0,0.0,0.0,0.0,0.0,-4.2386,-4.2386,0.0,-4.2121,-4.1677,-4.1293,-4.1172,-4.1172,-4.1172,-4.1172,-4.1172,-4.1172,0.0,0.0,0.0,0.0,0.0,0.0,0.0,0.0,0.0,0.0,0.0,0.0,0.0,0.0,0.0,0.0,0.0,0.0,0.0,0.0,0.0,0.0,0.0,0.0,0.0,0.0,0.0,-4.7497,-4.7497,-4.7497,-4.7497,-4.7497,-4.7497,-4.7497,-4.7497,-4.7497,-4.7497,-4.7497,-4.7497,-4.7497,-4.7497,-4.7497,-4.7497,-4.7497,-4.7497,-4.7497,-4.7497,-4.7497,-4.7497,-4.7497,-4.7497,-4.7497,-4.7497,-4.7497,-4.7497,-4.7497,-4.7497,0.0,0.0,0.0,0.0,0.0,-3.0772,-3.0992,-3.1029,-3.1121,0.0,0.0,0.0,-3.1377,-3.1506,-3.1846,-3.2358,-3.2294,-3.2294,-3.2613,-3.2975,-3.3038,-3.2613,-3.3839,-3.4215,-3.3418,-3.4153,-3.4153,-3.3418,-3.3418,-3.3418,-3.3418,-3.3418,-3.3733,-3.4215,0.0,0.0,0.0,0.0,0.0,0.0,-3.7887,0.0,0.0,-4.1353,-4.2169,0.0,0.0,0.0,-4.2819,-4.2819,-4.2602,0.0,-4.1942,-4.1904,-4.1798,-4.1581,-4.1509,-4.1461,-4.1244,-4.1341,-4.1581,0.0,0.0,0.0,0.0,0.0,0.0,0.0,0.0,0.0,0.0,0.0,0.0,0.0,0.0,0.0,0.0,0.0,0.0,0.0,0.0,0.0,0.0,0.0,0.0,-4.7497,-4.7497,-4.7497,-4.7497,-4.7497,-4.7497,-4.7497,-4.7497,-4.7497,-4.7497,-4.7497,-4.7497,-4.7497,-4.7497,-4.7497,-4.7497,-4.7497,-4.7497,-4.7497,-4.7497,-4.7497,-4.7497,-4.7497,-4.7497,-4.7497,-4.7497,-4.7497,-4.7497,-4.7497,-4.7497,-4.7497,0.0,0.0,-3.0846,-3.0846,-3.1203,-3.1442,-3.1377,-3.1442,-3.1442,0.0,-3.1506,-3.1506,-3.1377,-3.1717,-3.2102,-3.2358,-3.2166,-3.223,-3.2848,-3.2912,-3.2931,-3.2912,-3.3228,-3.3418,-3.3418,-3.3418,-3.3418,-3.3418,-3.3418,-3.3418,-3.3418,-3.3418,-3.4027,-3.5129,0.0,0.0,0.0,0.0,0.0,-3.5644,-3.7011,-3.8544,0.0,0.0,-4.2423,-4.2916,-4.2976,-4.3084,-4.3084,-4.3012,-4.2964,0.0,0.0,0.0,0.0,-4.2265,-4.2121,-4.1966,-4.1485,-4.1701,-4.2121,-4.2121,0.0,0.0,-4.3505,-4.3877,-4.4285,0.0,0.0,0.0,0.0,0.0,0.0,0.0,0.0,0.0,0.0,0.0,0.0,0.0,0.0,0.0,0.0,-4.7497,-4.7497,-4.7497,-4.7497,-4.7497,-4.7497,-4.7497,-4.7497,-4.7497,-4.7497,-4.7497,-4.7497,-4.7497,-4.7497,-4.7497,-4.7497,-4.7497,-4.7497,-4.7497,-4.7497,-4.7497,-4.7497,-4.7497,-4.7497,-4.7497,-4.7497,-4.7497,-4.7497,-4.7497,-4.7497,-4.7497,-4.7497,-4.7497,0.0,-3.1212,-3.1267,-3.1267,-3.1598,-3.1717,-3.1442,-3.1653,-3.1782,-3.1782,-3.2038,-3.2038,-3.1442,-3.1974,-3.2358,-3.2422,-3.2613,-3.274,-3.2867,-3.3165,-3.3165,-3.2912,-3.3228,-3.3418,-3.3418,-3.3418,-3.3418,-3.3418,-3.3418,-3.3418,-3.3418,-3.3418,-3.3544,-3.3796,0.0,0.0,0.0,0.0,0.0,-3.6227,-3.8548,0.0,-4.0246,-4.2375,-4.3265,-4.3481,-4.4347,-4.4683,-4.4611,-4.4178,-4.3746,-4.3289,0.0,0.0,0.0,-4.2699,-4.2651,-4.2651,-4.2554,-4.2578,-4.2651,-4.2651,0.0,0.0,-4.3505,-4.3877,-4.4285,0.0,0.0,0.0,0.0,0.0,0.0,0.0,0.0,0.0,0.0,0.0,0.0,0.0,0.0,0.0,0.0,-4.7497,-4.7497,-4.7497,-4.7497,-4.7497,-4.7497,-4.7497,-4.7497,-4.7497,-4.7497,-4.7497,-4.7497,-4.7497,-4.7497,-4.7497,-4.7497,-4.7497,-4.7497,-4.7497,-4.7497,-4.7497,-4.7497,-4.7497,-4.7497,-4.7497,-4.7497,-4.7497,-4.7497,-4.7497,-4.7497,-4.7497,-4.7497,-4.7497,-3.1341,-3.1377,-3.1377,-3.1377,-3.1506,-3.157,-3.1442,-3.1506,-3.1653,-3.1653,-3.2102,-3.223,-3.1717,-3.223,-3.2676,-3.2676,-3.2804,-3.2912,-3.2912,-3.3228,-3.3228,-3.2912,-3.3228,-3.3418,-3.3418,-3.3418,-3.3418,-3.3418,-3.3418,-3.3418,-3.3418,-3.3418,-3.3418,-3.3418,0.0,0.0,0.0,0.0,-3.4433,-3.5669,-3.8095,0.0,-4.0984,-4.3113,-4.4106,-4.4419,-4.5237,-4.5525,-4.5501,-4.5149,-4.4948,0.0,-4.4106,-4.3938,-4.3842,0.0,-4.3144,-4.3072,0.0,0.0,0.0,-4.3144,0.0,0.0,0.0,-4.4093,0.0,0.0,0.0,0.0,0.0,0.0,0.0,0.0,0.0,0.0,0.0,0.0,0.0,0.0,0.0,0.0,0.0,-4.7497,-4.7497,-4.7497,-4.7497,-4.7497,-4.7497,-4.7497,-4.7497,-4.7497,-4.7497,-4.7497,-4.7497,-4.7497,-4.7497,-4.7497,-4.7497,-4.7497,-4.7497,-4.7497,-4.7497,-4.7497,-4.7497,-4.7497,-4.7497,-4.7497,-4.7497,-4.7497,-4.7497,-4.7497,-4.7497,-4.7497,-4.7497,-4.7497,-3.1377,-3.1377,-3.1377,-3.1377,-3.1442,-3.1442,-3.1377,-3.1442,-3.1506,-3.1506,-3.2102,-3.2358,-3.2038,-3.2613,-3.2975,-3.2931,-3.2975,-3.2975,-3.2975,-3.3228,-3.3292,-3.2994,-3.3228,-3.3418,-3.3418,-3.3418,-3.3418,-3.3418,-3.3418,-3.3418,-3.3418,-3.3418,-3.3476,0.0,0.0,0.0,0.0,0.0,0.0,-3.5932,0.0,-3.9655,-4.1548,-4.338,-4.4577,-4.5293,-4.5886,-4.6078,-4.6078,-4.6078,-4.6006,-4.5862,-4.5429,-4.5221,0.0,0.0,0.0,0.0,0.0,0.0,0.0,0.0,0.0,-4.4285,0.0,0.0,0.0,0.0,0.0,0.0,0.0,0.0,0.0,0.0,0.0,0.0,0.0,0.0,0.0,0.0,0.0,0.0,0.0,-4.7497,-4.7497,-4.7497,-4.7497,-4.7497,-4.7497,-4.7497,-4.7497,-4.7497,-4.7497,-4.7497,-4.7497,-4.7497,-4.7497,-4.7497,-4.7497,-4.7497,-4.7497,-4.7497,-4.7497,-4.7497,-4.7497,-4.7497,-4.7497,-4.7497,-4.7497,-4.7497,-4.7497,-4.7497,-4.7497,-4.7497,-4.7497,-4.7497,-3.1377,-3.1377,-3.1377,-3.1377,-3.1653,-3.1717,-3.1442,-3.1653,-3.1846,-3.1846,-3.2422,-3.274,-3.2358,-3.2931,-3.3228,-3.2912,-3.3165,-3.3355,-3.3355,-3.3355,-3.3355,-3.3355,-3.3355,-3.3418,-3.3418,-3.3418,-3.3418,-3.3418,-3.3418,-3.3418,-3.3418,-3.3418,-3.3633,0.0,-3.4004,0.0,0.0,0.0,-3.6571,0.0,-3.9952,-4.0189,0.0,-4.2495,-4.4313,-4.591,-4.6439,-4.6631,-4.6631,0.0,-4.6319,-4.591,0.0,-4.5838,-4.5534,-4.4077,0.0,0.0,0.0,0.0,0.0,0.0,-4.4237,0.0,0.0,0.0,-4.4285,-4.4285,0.0,0.0,0.0,0.0,0.0,0.0,0.0,0.0,0.0,0.0,0.0,0.0,0.0,0.0,0.0,0.0,-4.7497,-4.7497,-4.7497,-4.7497,-4.7497,-4.7497,-4.7497,-4.7497,-4.7497,-4.7497,-4.7497,-4.7497,-4.7497,-4.7497,-4.7497,-4.7497,-4.7497,-4.7497,-4.7497,-4.7497,-4.7497,-4.7497,-4.7497,-4.7497,-4.7497,-4.7497,-4.7497,-4.7497,-4.7497,-4.7497,-4.7497,-4.7497,-3.1377,-3.1377,-3.1377,-3.1377,-3.1506,-3.1589,-3.1442,-3.1653,-3.1929,-3.1929,-3.2485,-3.2867,-3.274,-3.3102,-3.3452,-3.3578,-3.3745,-3.3906,0.0,-3.416,-3.416,-3.416,-3.416,-3.416,-3.416,-3.416,-3.416,-3.416,-3.416,-3.416,-3.416,-3.416,-3.4258,0.0,-3.4434,0.0,-3.5117,0.0,0.0,0.0,0.0,0.0,0.0,-4.4225,-4.5366,-4.5572,-4.5782,-4.5853,-4.5853,0.0,-4.6333,0.0,0.0,0.0,0.0,0.0,0.0,0.0,0.0,0.0,0.0,0.0,0.0,0.0,-4.5071,0.0,-4.4196,0.0,0.0,0.0,0.0,0.0,0.0,0.0,0.0,0.0,0.0,0.0,0.0,0.0,0.0,0.0,0.0,0.0,0.0,0.0,-4.7497,-4.7497,-4.7497,-4.7497,-4.7497,-4.7497,-4.7497,-4.7497,-4.7497,-4.7497,-4.7497,-4.7497,-4.7497,-4.7497,-4.7497,-4.7497,-4.7497,-4.7497,-4.7497,-4.7497,-4.7497,-4.7497,-4.7497,-4.7497,-4.7497,-4.7497,-4.7497,-4.7497,-4.7497,-4.7497,-3.1377,-3.1377,-3.1377,-3.1377,-3.1377,-3.1377,-3.1377,-3.1653,-3.191,-3.2038,-3.258,-3.304,-3.3231,-3.352,0.0,0.0,-3.4238,-3.4375,0.0,-3.4707,-3.4707,-3.4707,-3.4707,-3.4707,-3.4707,-3.4707,-3.4707,-3.4707,-3.4707,-3.4707,-3.4707,-3.4707,-3.4766,-3.4902,0.0,-3.5312,-3.5762,0.0,0.0,-3.9185,-3.8427,-4.0201,-4.362,-4.5762,-4.5862,-4.5005,-4.5987,-4.6033,-4.576,-4.617,-4.6737,0.0,-4.6684,0.0,0.0,0.0,0.0,0.0,-4.5568,0.0,0.0,0.0,0.0,0.0,0.0,0.0,0.0,0.0,0.0,0.0,0.0,0.0,-4.5782,-4.5395,0.0,-4.5782,0.0,0.0,0.0,0.0,0.0,0.0,0.0,0.0,0.0,-4.7497,-4.7497,-4.7497,-4.7497,-4.7497,-4.7497,-4.7497,-4.7497,-4.7497,-4.7497,-4.7497,-4.7497,-4.7497,-4.7497,-4.7497,-4.7497,-4.7497,-4.7497,-4.7497,-4.7497,-4.7497,-4.7497,-4.7497,-4.7497,-4.7497,-4.7497,-4.7497,-4.7497,-4.7497,-4.7497,-4.7497,-3.1377,-3.1377,-3.1377,0.0,0.0,0.0,-3.1377,0.0,0.0,0.0,0.0,0.0,0.0,0.0,0.0,0.0,0.0,-3.4687,-3.4707,0.0,-3.4707,-3.4707,-3.4707,-3.4707,-3.4707,-3.4707,-3.4707,-3.4707,-3.4707,-3.4707,-3.4707,-3.4707,-3.4941,-3.5391,-3.5801,-3.623,-3.666,-3.709,-3.8397,-4.0166,-4.0116,-4.2462,-4.5967,0.0,-4.5134,-4.422,-4.7698,0.0,0.0,-4.8439,-4.7932,0.0,0.0,0.0,0.0,0.0,0.0,0.0,0.0,0.0,0.0,-4.6054,0.0,0.0,0.0,0.0,-4.5846,0.0,0.0,0.0,-4.5934,-4.5934,-4.546,-4.3982,-4.4984,0.0,0.0,0.0,0.0,0.0,0.0,0.0,0.0,0.0,0.0,-4.7497,-4.7497,-4.7497,-4.7497,-4.7497,-4.7497,-4.7497,-4.7497,-4.7497,-4.7497,-4.7497,-4.7497,-4.7497,-4.7497,-4.7497,-4.7497,-4.7497,-4.7497,-4.7497,-4.7497,-4.7497,-4.7497,-4.7497,-4.7497,-4.7497,-4.7497,-4.7497,-4.7497,-4.7497,-4.7497,-4.7497,-3.1377,-3.1377,0.0,0.0,0.0,0.0,0.0,-3.2281,0.0,0.0,0.0,0.0,0.0,-3.5078,-3.5391,0.0,0.0,-3.6133,-3.6406,-3.6426,0.0,-3.6016,-3.5996,-3.5859,-3.5586,-3.5566,-3.5566,-3.5566,-3.5566,-3.5566,-3.5586,-3.5859,-3.6094,-3.625,0.0,-3.6953,0.0,0.0,0.0,0.0,0.0,-4.2322,-4.3803,0.0,-4.6238,-4.5816,-4.5997,-4.6418,0.0,-4.6255,-4.7051,-4.8256,-4.8159,-4.6936,-4.5608,-4.552,-4.5032,-4.4587,0.0,0.0,-4.4914,-4.5708,0.0,0.0,0.0,0.0,0.0,0.0,0.0,0.0,-4.6968,-4.6968,-4.6484,-4.4974,-4.5175,-4.4859,0.0,0.0,0.0,0.0,0.0,0.0,0.0,0.0,0.0,-4.7497,-4.7497,-4.7497,-4.7497,-4.7497,-4.7497,-4.7497,-4.7497,-4.7497,-4.7497,-4.7497,-4.7497,-4.7497,-4.7497,-4.7497,-4.7497,-4.7497,-4.7497,-4.7497,-4.7497,-4.7497,-4.7497,-4.7497,-4.7497,-4.7497,-4.7497,-4.7497,-4.7497,-4.7497,-4.7497,-4.7497,-3.1377,0.0,0.0,0.0,0.0,0.0,0.0,0.0,0.0,0.0,-3.4572,0.0,-3.5801,0.0,-3.6289,0.0,-3.6894,-3.7012,-3.7285,-3.7305,0.0,-3.6894,-3.6894,-3.6758,-3.6484,-3.6465,-3.6465,-3.6465,-3.6465,-3.6465,-3.6484,-3.6758,-3.6894,-3.6914,0.0,0.0,0.0,0.0,-3.9096,0.0,0.0,-4.1915,0.0,0.0,-4.5539,-4.5406,0.0,-4.5266,-4.565,-4.5121,-4.5939,-4.7062,-4.695,-4.6172,-4.5412,-4.5804,-4.5617,-4.5332,-4.5901,-4.5816,0.0,-4.6773,-4.5389,0.0,-4.742,0.0,-4.5462,0.0,0.0,0.0,0.0,-4.7497,-4.7008,-4.5549,-4.5752,-4.5434,0.0,-4.4165,-4.527,0.0,0.0,0.0,0.0,0.0,-4.7497,-4.7497,-4.7497,-4.7497,0.0,0.0,-4.7497,-4.7497,-4.7497,-4.7497,-4.7497,-4.7497,-4.7497,-4.7497,-4.7497,-4.7497,-4.7497,-4.7497,-4.7497,-4.7497,-4.7497,-4.7497,-4.7497,-4.7497,-4.7497,-4.7497,-4.7497,-4.7497,-4.7497,-4.7497,-4.7497,-4.7497,0.0,0.0,0.0,0.0,-3.2023,0.0,0.0,0.0,-3.4061,0.0,-3.5326,-3.5926,-3.6719,-3.7129,-3.7383,-3.7422,-3.7422,-3.7422,-3.7422,-3.7422,0.0,0.0,-3.7363,-3.7344,-3.7305,-3.7305,-3.7305,-3.7285,-3.7305,-3.7305,-3.7305,-3.7324,-3.7324,-3.7344,-3.7793,0.0,-3.8008,-3.8867,-3.9258,-3.9336,-4.0215,-4.1519,-4.2952,-4.3311,-4.3208,-4.3177,-4.5094,-4.487,-4.3835,-4.5244,-4.4795,-4.3546,-4.3185,-4.2986,-4.3106,-4.4163,-4.5471,-4.6932,-4.8444,-4.8834,-4.8834,-4.8971,-4.8947,0.0,0.0,0.0,-4.8247,0.0,0.0,0.0,0.0,-4.7569,-4.7055,-4.5595,-4.6405,-4.6741,-4.5346,-4.5142,-4.5142,-4.5278,0.0,0.0,0.0,-4.7497,-4.7497,-4.7497,-4.7497,0.0,0.0,0.0,-4.7497,-4.7497,-4.7497,-4.7497,-4.7497,-4.7497,-4.7497,-4.7497,-4.7497,-4.7497,-4.7497,-4.7497,-4.7497,-4.7497,-4.7497,-4.7497,-4.7497,-4.7497,-4.7497,-4.7497,-4.7497,-4.7497,-4.7497,-4.7497,-4.7497,-4.7497,-3.2276,-3.2276,-3.2276,0.0,-3.2434,-3.2773,0.0,0.0,0.0,0.0,-3.6366,-3.7176,-3.8008,-3.8184,-3.8516,-3.918,-3.9219,0.0,0.0,0.0,0.0,-3.8281,-3.8242,-3.7949,-3.7305,-3.7305,-3.7144,-3.6862,-3.7144,-3.7144,-3.6862,-3.7475,-3.7773,-3.7793,0.0,0.0,-3.8476,-3.9336,-3.9902,-4.0234,-4.0781,-4.1979,0.0,0.0,-4.2443,-4.3387,-4.3945,-4.4645,-4.517,-4.4365,-4.4666,-4.5244,-4.519,-4.4346,-4.3421,-4.3673,-4.3276,-4.2974,-4.4507,-4.4694,-4.5019,-4.7344,-4.6834,-4.6325,-4.8579,-4.8116,0.0,0.0,0.0,0.0,-4.8676,-4.8363,-4.7603,-4.6104,-4.3969,-4.2753,-4.3517,-4.2613,0.0,-4.5005,0.0,0.0,-4.7364,-4.7497,-4.7497,-4.7497,-4.7497,0.0,0.0,0.0,0.0,-4.7497,-4.7497,-4.7497,-4.7497,-4.7497,-4.7497,-4.7497,-4.7497,-4.7497,-4.7497,-4.7497,-4.7497,-4.7497,-4.7497,-4.7497,-4.7497,-4.7497,-4.7497,-4.7497,-4.7497,-4.7497,-4.7497,-4.7497,-4.7497,-4.7569,-3.2588,0.0,0.0,-3.312,0.0,0.0,-3.421,0.0,0.0,-3.702,-3.7559,0.0,-3.9062,-3.916,-3.9355,-3.9844,-3.9902,0.0,-3.9902,0.0,0.0,-3.918,-3.916,-3.8926,-3.8437,-3.8437,0.0,-3.7764,-3.8053,-3.7883,-3.7565,-3.8014,-3.8301,0.0,0.0,-3.9004,0.0,-3.9883,-4.041,-4.084,-4.1074,0.0,0.0,-4.154,-4.1773,-4.2503,-4.2503,-4.3096,-4.3705,-4.281,-4.3096,-4.3856,-4.3856,-4.3705,-4.3456,-4.3456,-4.34,-4.3477,-4.4289,-4.44,-4.4634,-4.6328,-4.6491,-4.6627,-4.838,-4.8497,-4.8472,-4.9283,-4.9229,-4.9084,-4.9084,-4.8844,-4.8284,-4.7273,-4.4862,-4.3342,-4.3907,0.0,0.0,0.0,-4.4298,0.0,-4.5481,-4.6741,-4.7497,-4.7497,-4.7497,0.0,0.0,0.0,0.0,-4.7497,-4.7497,-4.7497,-4.7497,-4.7497,-4.7497,-4.7497,-4.7497,-4.7497,-4.7497,-4.7497,-4.7497,-4.7497,-4.7497,-4.7497,-4.7497,-4.7497,-4.7642,-4.7858,-4.8098,-4.8195,-4.8195,-4.8195,-4.805,-4.793,0.0,0.0,0.0,0.0,0.0,0.0,0.0,-3.6202,0.0,-3.8555,0.0,-3.9062,-3.9883,-3.998,-4.0,-4.0059,0.0,-4.0059,-4.0059,-4.0059,-4.0039,-3.998,-3.998,-3.9961,-3.9902,-3.9902,-3.9612,-3.9148,-3.9164,-3.895,-3.8506,-3.8594,0.0,0.0,0.0,0.0,0.0,-4.0391,-4.0781,0.0,-4.1172,-4.1172,-4.1172,-4.1172,-4.1172,-4.1172,-4.1172,-4.1172,-4.1172,-4.1172,-4.1172,-4.1172,-4.1172,-4.2139,-4.3172,-4.3172,-4.4214,-4.5341,-4.5543,-4.5617,-4.5692,-4.6137,-4.7265,-4.8381,-4.8526,-4.9369,-4.9974,-4.9974,-4.9614,-4.9301,-4.9301,-4.9229,-4.8944,-4.8188,-4.6976,-4.5944,0.0,0.0,0.0,0.0,0.0,0.0,-4.3309,-4.5685,-4.7232,0.0,0.0,0.0,0.0,0.0,0.0,-4.7497,-4.7497,-4.7497,-4.7497,-4.7497,-4.7497,-4.7497,-4.7497,-4.7497,-4.7497,-4.7569,-4.7593,-4.7617,-4.7666,-4.7714,-4.7714,-4.7714,-4.7978,-4.8435,-4.8892,-4.9084,-4.9084,-4.9157,-4.8892,-4.8555,0.0,0.0,0.0,0.0,0.0,-3.7064,-3.7005,-3.7445,-3.8078,-3.895,-3.9434,-3.9863,-4.0351,-4.041,-4.0566,-4.0918,-4.0957,0.0,0.0,0.0,0.0,-4.043,-4.041,-4.0254,-3.9902,-3.9902,-3.9542,-3.8766,-3.9077,-3.879,-3.8118,-3.8437,0.0,0.0,0.0,0.0,-4.0937,-4.0644,0.0,-4.1172,-4.1172,-4.1172,-4.1172,-4.1172,-4.1172,-4.1172,-4.1172,-4.1172,-4.1172,-4.1172,-4.1172,-4.1172,-4.1172,-4.1405,-4.1618,-4.1618,-4.1773,-4.2293,-4.3532,-4.3911,-4.4591,-4.7192,-4.8091,-4.8694,-4.9961,-5.0411,-5.0551,-5.0551,-5.0479,-5.0407,-5.0407,-5.0046,-4.9125,-4.7284,-4.6496,-4.6059,0.0,0.0,0.0,0.0,0.0,-4.4914,0.0,0.0,0.0,0.0,0.0,0.0,0.0,0.0,0.0,0.0,-4.7497,0.0,0.0,0.0,-4.7497,-4.7497,-4.7497,-4.7497,-4.7521,-4.7954,-4.8147,-4.8171,-4.8603,-4.8796,-4.8796,-4.8796,-4.8868,-4.894,-4.9036,-4.9084,-4.9133,-4.9565,-4.9662,-4.9614,0.0,0.0,0.0,0.0,0.0,0.0,0.0,-3.9046,-3.9423,-3.9788,-4.0078,-4.0391,-4.082,-4.0859,-4.0937,-4.1152,-4.1172,-4.1172,-4.1172,-4.1172,-4.1074,-4.0879,-4.0859,-4.0762,-4.0566,-4.0566,-4.0296,-3.9586,-3.9602,-3.9238,-3.8632,-3.859,0.0,0.0,0.0,-4.0414,0.0,0.0,0.0,-4.1172,-4.1172,-4.1172,-4.1172,-4.1172,-4.1172,-4.1172,-4.1172,-4.1172,-4.1172,-4.1172,-4.1172,-4.1172,-4.1172,-4.1172,-4.1172,-4.1172,-4.1172,-4.1327,-4.2139,-4.2293,-4.2657,-4.4235,-4.5191,-4.5989,-4.6824,-4.8236,-4.9437,-4.9437,-5.0104,-5.0696,-5.0696,-5.0479,-4.9603,-4.7465,0.0,0.0,0.0,0.0,0.0,0.0,0.0,0.0,0.0,0.0,0.0,0.0,0.0,0.0,0.0,0.0,0.0,0.0,0.0,0.0,0.0,0.0,0.0,-4.7497,-4.7786,-4.7906,-4.793,-4.8459,-4.87,-4.8724,-4.8964,-4.9084,-4.9109,-4.9373,-4.9493,-4.9517,-4.9806,-4.9926,-4.995,-5.0215,-5.0287,-5.0287,0.0,-3.6404,0.0,0.0,-3.8425,0.0,-3.9759,-4.0356,-4.0664,-4.0664,-4.0664,-4.0781,-4.1133,-4.1172,-4.1172,-4.1172,-4.1172,-4.1172,-4.1172,-4.1172,-4.1172,-4.1172,-4.1172,-4.1172,-4.1172,-4.1172,-4.0996,-4.0491,-4.0163,-3.9663,-3.9108,-3.8956,-3.9128,0.0,0.0,0.0,0.0,0.0,-4.1172,-4.1172,-4.1172,-4.1172,-4.1172,-4.1172,-4.1172,-4.1172,-4.1172,-4.1172,-4.1172,-4.1172,-4.1172,-4.1172,-4.1172,-4.1172,-4.1172,-4.1172,-4.1172,-4.1172,-4.1172,-4.1172,-4.125,-4.1618,-4.258,-4.3608,-4.3911,-4.5989,-4.7777,-4.7777,-4.9054,-5.0175,-5.0175,-5.0483,-4.989,-4.7565,0.0,0.0,0.0,0.0,0.0,0.0,0.0,0.0,-4.2103,0.0,0.0,0.0,0.0,0.0,0.0,0.0,0.0,0.0,0.0,-4.7497,-4.7497,0.0,-4.7666,-4.7666,-4.8195,-4.8459,-4.8483,-4.9012,-4.9253,-4.9253,-4.9373,-4.9421,-4.9445,-4.9878,-5.0046,-5.0095,-5.0527,-5.0696,-5.0696,-5.0696,-5.0696,-5.0696,0.0,0.0,0.0,0.0,0.0,0.0,-3.9875,-4.0627,-4.1113,-4.1113,-4.1113,-4.1133,-4.1172,-4.1172,-4.1172,-4.1172,-4.1172,-4.1172,-4.1172,-4.1172,-4.1172,-4.1172,-4.1172,-4.1172,-4.1172,-4.1172,-4.0977,0.0,0.0,-3.9835,-3.8728,-3.943,-3.9965,0.0,0.0,0.0,0.0,-4.1152,-4.1172,-4.1172,-4.1172,-4.1172,-4.1172,-4.1172,-4.1172,-4.1172,-4.1172,-4.1172,-4.1172,-4.1172,-4.1172,-4.1172,-4.1172,-4.1172,-4.1172,-4.1172,-4.1172,-4.1172,-4.1172,-4.1172,-4.154,-4.2943,-4.338,-4.3911,-4.5319,-4.5915,-4.6137,-4.6137,-4.7411,-4.8526,-4.8526,-4.9723,-4.9723,-4.6537,0.0,0.0,0.0,0.0,-4.726,-4.8646,0.0,0.0,0.0,-4.4461,0.0,0.0,0.0,0.0,0.0,0.0,0.0,-4.7497,0.0,-4.7497,-4.7497,-4.7978,-4.8219,-4.8219,-4.8748,-4.9012,-4.9012,-4.9541,-4.9806,-4.983,-5.0335,-5.0551,-5.0551,-5.06,-5.0624,-5.0624,-5.0672,-5.0696,-5.0696,-5.0696,-5.0696,-5.0696,0.0,0.0,0.0,0.0,0.0,0.0,0.0,-4.0977,-4.1172,-4.1172,-4.1172,-4.1172,-4.1172,-4.1172,-4.1172,-4.1172,-4.1172,-4.1172,-4.1172,-4.1172,-4.1172,-4.1172,-4.1172,-4.1172,-4.1172,-4.1172,-4.1094,0.0,0.0,-3.9891,-3.941,-3.9487,-3.9873,0.0,0.0,-4.0919,-4.1172,-4.1172,-4.1172,-4.1172,-4.1172,-4.1172,-4.1172,-4.1172,-4.1172,-4.1172,-4.1172,-4.1172,-4.1172,-4.1172,-4.1172,-4.1172,-4.1172,-4.1172,-4.1172,-4.1172,-4.1172,-4.1172,-4.1172,-4.1172,-4.1327,-4.1985,-4.2139,-4.2293,-4.2963,-4.376,-4.444,-4.444,-4.5766,-4.6898,-4.6898,-4.8163,-4.8526,-4.6307,0.0,0.0,0.0,0.0,0.0,-4.8006,0.0,0.0,0.0,0.0,0.0,0.0,0.0,0.0,0.0,0.0,0.0,-4.7497,0.0,-4.7978,-4.7978,-4.8507,-4.8772,-4.8772,-4.9301,-4.9541,-4.9565,-5.0119,-5.0359,-5.0383,-5.06,-5.0696,-5.0696,-5.0696,-5.0696,-5.0696,-5.0696,-5.0696,-5.0696,-5.0696,-5.0696,-5.0696,-3.8457,0.0,-3.8918,0.0,-4.0294,-4.047,-4.1094,-4.1172,-4.1172,-4.0997,-4.0997,-4.1094,-4.1172,-4.1172,-4.1172,-4.1172,-4.1172,-4.1172,-4.1172,-4.1172,-4.1172,-4.1172,-4.1172,0.0,-4.1172,-4.1172,-4.1172,-4.1172,-4.0626,0.0,0.0,-3.9634,-3.9926,0.0,-4.0685,-4.0919,-4.1172,-4.1172,-4.1172,-4.1172,-4.1172,-4.1172,-4.1172,-4.1172,-4.1172,-4.1172,-4.1172,-4.1172,-4.1172,-4.1172,-4.1172,-4.1172,-4.1172,-4.1172,-4.1172,-4.1172,-4.1172,-4.1172,-4.1172,-4.1172,-4.1172,-4.1172,-4.1172,-4.1172,-4.1172,-4.2062,-4.2943,-4.34,-4.444,-4.5319,-4.5766,-4.6824,-4.7192,-4.6063,0.0,0.0,0.0,-4.5915,0.0,0.0,-4.5998,-4.5384,-4.5384,-4.498,0.0,0.0,0.0,0.0,0.0,0.0,0.0,0.0,0.0,0.0,-4.8531,-4.9036,-4.9301,-4.9325,-4.9854,-5.0119,-5.0119,-5.0527,-5.0696,-5.0696,-5.0696,-5.0696,-5.0696,-5.0696,-5.0696,-5.0696,-5.0696,-5.0696,-5.0696,-5.0696,-5.0696,-5.0696,-3.9745,-3.9902,-4.0137,-4.1016,-4.1172,-4.1172,-4.1172,-4.1172,-4.0997,-4.0588,-4.0509,-4.0666,-4.1172,-4.1172,-4.1172,-4.1172,-4.1172,-4.1172,-4.1172,-4.1172,-4.1172,0.0,0.0,-4.1172,-4.1172,-4.1172,-4.1172,-4.1172,0.0,0.0,-3.9894,0.0,-4.0357,-4.1172,-4.1172,-4.1172,-4.1172,-4.1172,-4.1172,-4.1172,-4.1172,-4.1172,-4.1172,-4.1172,-4.1172,-4.1172,-4.1172,-4.1172,-4.1172,-4.1172,-4.1172,-4.1172,-4.1172,-4.1172,-4.1172,-4.1172,-4.1172,-4.1172,-4.1172,-4.1172,-4.1172,-4.1172,-4.1172,-4.1172,-4.1172,-4.1172,-4.1695,-4.3172,-4.3532,-4.3987,-4.5639,-4.5915,-4.5915,-4.5915,-4.5915,0.0,0.0,-4.5915,0.0,-4.5915,-4.5915,-4.633,-4.7382,-4.6162,0.0,0.0,0.0,0.0,0.0,0.0,0.0,-4.906,-4.906,0.0,-4.906,-4.9589,-4.9854,-4.9878,-5.0431,-5.0696,-5.0696,-5.0696,-5.0696,-5.0696,-5.0696,-5.0696,-5.0696,-5.0696,-5.0696,-5.0696,-5.0696,-5.0696,-5.0696,-5.0696,-5.0696,-5.0696,-3.9351,-3.9193,-3.9272,-4.0137,-4.0059,-3.9981,-4.0294,-4.0294,-4.0216,-4.0137,-4.0059,-4.0137,-4.0294,-4.0294,-4.0451,0.0,-4.0744,-4.0607,0.0,-4.086,-4.1094,-4.0763,-4.0997,-4.1172,-4.1172,-4.1172,-4.1172,-4.1172,0.0,0.0,0.0,-4.0317,-4.0627,-4.1172,-4.1172,-4.1172,-4.1172,-4.1172,-4.1172,-4.1172,-4.1172,-4.1172,-4.1172,-4.1172,-4.1172,-4.1172,-4.1172,-4.1172,-4.1172,-4.1172,-4.1172,-4.1172,-4.1172,-4.1172,-4.1172,-4.1172,-4.1172,-4.1172,-4.1172,-4.1172,-4.1172,-4.1172,-4.1172,-4.1172,-4.1172,-4.1172,-4.1327,-4.185,-4.1907,-4.2062,-4.258,-4.3553,-4.4289,-4.4289,-4.517,0.0,-4.444,0.0,-4.4289,-4.4289,-4.3324,-4.3283,-4.4678,-4.5326,0.0,0.0,0.0,0.0,0.0,0.0,0.0,0.0,-4.9421,0.0,-4.9614,-5.0167,-5.0431,-5.0431,-5.0624,-5.0696,-5.0696,-5.0696,-5.0696,-5.0696,-5.0696,-5.0696,-5.0696,-5.0696,-5.0696,-5.0696,-5.0696,-5.0696,-5.0696,-5.0696,-5.0696,-5.0696,-3.9193,-3.9035,-3.9114,-3.9745,-3.9666,-3.9588,-3.9823,-3.9902,-3.988,-3.9892,-3.9911,-3.9967,-4.0118,-3.9828,0.0,-4.0216,-4.0275,-4.0216,-3.9902,-4.0391,-4.0607,-4.0275,-4.0529,-4.0782,-4.0919,-4.0919,0.0,-4.1172,-4.0919,-4.0763,-4.0763,-4.0763,-4.0919,-4.1172,-4.1172,-4.1172,-4.1172,-4.1172,-4.1172,-4.1172,-4.1172,-4.1172,-4.1172,-4.1172,-4.1172,-4.1172,-4.1172,-4.1172,-4.1172,-4.1172,-4.1172,-4.1172,-4.1172,-4.1172,-4.1172,-4.1172,-4.1172,-4.1172,-4.1172,-4.1172,-4.1172,-4.1172,-4.1172,-4.1172,-4.1172,-4.1172,-4.1172,-4.1172,-4.1172,-4.1172,-4.1172,-4.1985,-4.281,-4.34,-4.4365,-4.487,-4.444,0.0,-4.3456,0.0,0.0,-4.185,0.0,-4.444,-4.4795,0.0,0.0,0.0,0.0,0.0,-4.9686,-4.9686,-4.9998,-5.0191,-5.0191,-5.0527,-5.0696,-5.0696,-5.0696,-5.0696,-5.0696,-5.0696,-5.0696,-5.0696,-5.0696,-5.0696,-5.0696,-5.0696,-5.0696,-5.0696,-5.0696,-5.0696,-5.0696,-5.0696,-5.0696,-5.0696,-3.9193,-3.9272,-3.9351,0.0,-3.9823,-3.9842,-3.9861,-3.9861,-3.9873,-3.9887,-3.9863,-4.0012,-4.0384,-3.9744,-3.9437,-3.9877,0.0,0.0,-3.9823,-3.9902,-3.9902,-3.9823,-3.9902,-4.0059,-4.0431,-4.0431,-4.0685,-4.1172,-4.1172,-4.1172,-4.1172,-4.1172,-4.1172,-4.1172,-4.1172,-4.1172,-4.1172,-4.1172,-4.1172,-4.1172,-4.1172,-4.1172,-4.1172,-4.1172,-4.1172,-4.1172,-4.1172,-4.1172,-4.1172,-4.1172,-4.1172,-4.1172,-4.1172,-4.1172,-4.1172,-4.1172,-4.1172,-4.1172,-4.1172,-4.1172,-4.1172,-4.1172,-4.1172,-4.1172,-4.1172,-4.1172,-4.1172,-4.1172,-4.1172,-4.1172,-4.1172,-4.1172,-4.1695,-4.3096,-4.3456,-4.3987,-4.5394,-4.4365,-4.3456,0.0,0.0,0.0,-4.3172,-4.3456,-4.4063,0.0,0.0,0.0,0.0,0.0,-5.0554,-5.0696,-5.0696,-5.0696,-5.0696,-5.0696,-5.0696,-5.0696,-5.0696,-5.0696,-5.0696,-5.0696,-5.0696,-5.0696,-5.0696,-5.0696,-5.0696,-5.0696,-5.0696,-5.0696,-5.0696,-5.0696,-5.0696,-5.0696,-5.0696,-5.0696,0.0,0.0,-3.8877,-3.9351,-3.9114,-3.8988,-3.9283,-3.9339,-3.9486,-3.9811,-3.9866,-3.9903,-3.9995,-3.984,-3.9829,-3.9899,-3.9626,-3.9272,-3.8956,-3.9509,-3.9745,-3.943,-3.9745,-3.9902,-4.0059,-4.0059,-4.0216,-4.0666,-4.0666,-4.0841,-4.1172,-4.1172,-4.1172,-4.1172,-4.1172,-4.1172,-4.1172,-4.1172,-4.1172,-4.1172,-4.1172,-4.1172,-4.1172,-4.1172,-4.1172,-4.1172,-4.1172,-4.1172,-4.1172,-4.1172,-4.1172,-4.1172,-4.1172,-4.1172,-4.1172,-4.1172,-4.1172,-4.1172,-4.1172,-4.1172,-4.1172,-4.1172,-4.1172,-4.1172,-4.1172,-4.1172,-4.1172,-4.1172,-4.1172,-4.1172,-4.1172,-4.1172,-4.1327,-4.1695,-4.2734,-4.3248,-4.2427,-4.3019,-4.3096,0.0,-4.1405,-4.1327,-4.1695,-4.279,-4.3172,0.0,0.0,0.0,-4.4645,-4.7338,-4.9437,-5.0625,-5.0696,-5.0696,-5.0696,-5.0696,-5.0696,-5.0696,-5.0696,-5.0696,-5.0696,-5.0696,-5.0696,-5.0696,-5.0696,-5.0696,-5.0696,-5.0696,-5.0696,-5.0696,-5.0696,-5.0696,-5.0696,-5.0696,-5.0696,-5.0696,-3.8956,-3.8798,-3.8719,-3.8956,-3.8945,-3.8988,-3.9208,-3.9392,-3.9667,-4.0152,-4.0125,-4.0281,-4.0465,-4.0318,-4.0125,-4.0125,-3.98,-3.9357,-3.8933,-3.9313,-3.9379,-3.8956,-3.9193,-3.943,-3.9588,-3.9666,-3.9823,-4.0197,-4.0197,-4.0372,-4.0626,-4.0626,-4.0685,-4.0841,-4.0704,-4.086,-4.1172,-4.0997,-4.0997,-4.1172,-4.1172,-4.1172,-4.1172,-4.1172,-4.1172,-4.1172,-4.1172,-4.1172,-4.1172,-4.1172,-4.1172,-4.1172,-4.1172,-4.1172,-4.1172,-4.1172,-4.1172,-4.1172,-4.1172,-4.1172,-4.1172,-4.1172,-4.1172,-4.1172,-4.1172,-4.1172,-4.1172,-4.1172,-4.1172,-4.1172,-4.1172,-4.1172,-4.1172,-4.1172,-4.1907,-4.2427,-4.2293,-4.235,-4.2427,-4.2293,-4.1618,-4.1172,-4.1172,-4.1985,-4.2139,-4.125,-4.281,0.0,-4.4591,-4.6211,-4.7945,-4.958,-5.0341,-5.0696,-5.0696,-5.0696,-5.0696,-5.0696,-5.0696,-5.0696,-5.0696,-5.0696,-5.0696,-5.0696,-5.0696,-5.0696,-5.0696,-5.0696,-5.0696,-5.0696,-5.0696,-5.0696,-5.0696,-5.0696,-5.0696,-5.0696,-3.856,-3.856,-3.856,-3.856,-3.897,-3.9245,-3.9318,-3.9667,-4.0171,-4.051,-4.0565,-4.0694,-4.1024,-4.0767,-4.0565,-4.0565,-4.0318,-3.9832,-3.9355,-3.9318,-3.9153,-3.867,-3.8652,-3.8853,-3.9193,-3.9193,-3.943,-3.9823,-3.9823,-3.9823,-3.9902,-3.9902,-4.0059,-4.0353,-4.0059,-4.0294,-4.1094,-4.0666,-4.0763,-4.1172,-4.1172,-4.1172,-4.1172,-4.1172,-4.1172,-4.1172,-4.1172,-4.1172,-4.1172,-4.1172,-4.1172,-4.1172,-4.1172,-4.1172,-4.1172,-4.1172,-4.1172,-4.1172,-4.1172,-4.1172,-4.1172,-4.1172,-4.1172,-4.1172,-4.1172,-4.1172,-4.1172,-4.1172,-4.1172,-4.1172,-4.1172,-4.1172,-4.1172,-4.1172,-4.1172,-4.1695,-4.2943,0.0,-4.1695,-4.3019,-4.1985,-4.1172,-4.1172,-4.1172,-4.1172,-4.1172,-4.1172,-4.237,-4.5041,-4.5639,-4.6529,-4.7872,-4.9723,-5.0696,-5.0696,-5.0696,-5.0696,-5.0696,-5.0696,-5.0696,-5.0696,-5.0696,-5.0696,-5.0696,-5.0696,-5.0696,-5.0696,-5.0696,-5.0696,-5.0696,-5.0696,-5.0696,-5.0696,-5.0696,-5.0696,-5.0696,-3.856,-3.856,-3.856,-3.856,-3.897,-3.9355,-3.9685,-4.0107,-4.051,-4.0914,-4.0969,-4.0987,-4.106,-4.1005,-4.0969,-4.0969,-4.0914,-4.0547,-3.9877,-3.9821,-3.9575,-3.9153,-3.9135,-3.8988,-3.8719,-3.8719,-3.8956,-3.943,-3.943,-3.9588,-3.9902,-3.9902,-3.9902,-3.9981,-3.9902,-4.0137,-4.0588,-4.0509,-4.0763,-4.1172,-4.1172,-4.1172,-4.1172,-4.1172,-4.1172,-4.1172,-4.1172,-4.1172,-4.1172,-4.1172,-4.1172,-4.1172,-4.1172,-4.1172,-4.1172,-4.1172,-4.1172,-4.1172,-4.1172,-4.1172,-4.1172,-4.1172,-4.1172,-4.1172,-4.1172,-4.1172,-4.1172,-4.1172,-4.1172,-4.1172,-4.1172,-4.1172,-4.1172,-4.1172,-4.1172,-4.125,-4.154,0.0,-4.1327,-4.154,-4.1327,-4.1172,-4.1172,-4.1172,-4.1172,-4.1172,-4.1172,-4.1385,-4.1927,-4.444,-4.5989,-4.6285,-4.9126,-5.0696,-5.0696,-5.0696,-5.0696,-5.0696,-5.0696,-5.0696,-5.0696,-5.0696,-5.0696,-5.0696,-5.0696,-5.0696,-5.0696,-5.0696,-5.0696,-5.0696,-5.0696,-5.0696,-5.0696,-5.0696,-5.0696,-5.0696,-3.856,-3.856,-3.856,-3.856,-3.897,-3.9373,-3.9858,-4.0281,-4.0602,-4.1089,-4.106,-4.106,-4.106,-4.106,-4.106,-4.106,-4.106,-4.0895,-4.0612,-4.029,-3.9887,-3.9263,-3.9226,-3.9043,-3.8579,-3.856,-3.8719,-3.8956,-3.8956,-3.9035,-3.9193,-3.9193,-3.9351,-3.9588,-3.9272,-3.9588,-4.0216,-4.0216,-4.0451,-4.0841,-4.1094,-4.1172,-4.1172,-4.1172,-4.1172,-4.1172,-4.1172,-4.1172,-4.1172,-4.1172,-4.1172,-4.1172,-4.1172,-4.1172,-4.1172,-4.1172,-4.1172,-4.1172,-4.1172,-4.1172,-4.1172,-4.1172,-4.1172,-4.1172,-4.1172,-4.1172,-4.1172,-4.1172,-4.1172,-4.1172,-4.1172,-4.1172,-4.1172,-4.1172,-4.1172,-4.1172,-4.1172,-4.1172,-4.1172,-4.1172,-4.1172,-4.1172,-4.1172,-4.1172,-4.1172,-4.1172,-4.1172,-4.1927,-4.3629,-4.5116,-4.6677,-4.8453,-4.9961,-5.0696,-5.0696,-5.0696,-5.0696,-5.0696,-5.0696,-5.0696,-5.0696,-5.0696,-5.0696,-5.0696,-5.0696,-5.0696,-5.0696,-5.0696,-5.0696,-5.0696,-5.0696,-5.0696,-5.0696,-5.0696,-5.0696,-5.0696,-3.856,-3.856,-3.856,-3.856,-3.897,-3.9336,-3.9648,-4.0052,-4.0473,-4.0877,-4.0914,-4.095,-4.1042,-4.106,-4.1024,-4.0932,-4.0914,-4.0877,-4.0869,-4.0492,-4.0033,-3.941,-3.919,-3.8951,-3.8658,-3.856,-3.856,-3.856,-3.856,-3.856,-3.856,-3.856,-3.8798,-3.9114,-3.8798,-3.9035,-3.9745,-3.9745,-3.9981,-4.0353,-4.0763,-4.0938,-4.1016,-4.1016,-4.1094,-4.1172,-4.1172,-4.1172,-4.1172,-4.1172,-4.1172,-4.1172,-4.1172,-4.1172,-4.1172,-4.1172,-4.1172,-4.1172,-4.1172,-4.1172,-4.1172,-4.1172,-4.1172,-4.1172,-4.1172,-4.1172,-4.1172,-4.1172,-4.1172,-4.1172,-4.1172,-4.1172,-4.1172,-4.1172,0.0,-4.1172,-4.1172,-4.1172,-4.1172,-4.1172,-4.1172,-4.1172,-4.1094,-4.1016,-4.1016,-4.1016,-4.0938,-4.1985,-4.4494,-4.5244,-4.7118,-5.0317,-5.0625,-5.0625,-5.0554,-5.0554,-5.0483,-5.0412,-5.0412,-5.0483,-5.0554,-5.0554,-5.0625,-5.0696,-5.0696,-5.0696,-5.0696,-5.0696,-5.0696,-5.0696,-5.0696,-5.0696,-5.0696,-5.0696,-5.0696,-5.0696,-3.856,-3.856,-3.856,-3.856,-3.897,-3.9245,-3.9263,-3.963,-4.0115,-4.0455,-4.051,-4.0657,-4.1024,-4.106,-4.0914,-4.0547,-4.051,-4.0428,-4.0042,-3.9987,-3.995,-3.9877,-3.908,-3.8597,-3.856,-3.856,-3.856,-3.856,-3.856,-3.856,-3.856,-3.856,-3.864,-3.864,-3.864,-3.8877,-3.9351,-3.9351,-3.9588,-3.9981,-3.9981,-4.0216,-4.0588,-4.0588,-4.0841,-4.1172,-4.1172,-4.1172,-4.1172,-4.1172,-4.1172,-4.1172,-4.1172,-4.1172,-4.1172,-4.1172,-4.1172,-4.1172,-4.1172,-4.1172,-4.1172,-4.1172,-4.1172,-4.1172,-4.1172,-4.1172,-4.1172,-4.1172,-4.1172,-4.1172,-4.1172,-4.1172,-4.1172,-4.1172,0.0,0.0,-4.1172,-4.1172,-4.1172,-4.1172,-4.1172,-4.0997,-4.0588,-4.0588,-4.0588,-4.0588,-4.0216,-4.0294,-4.088,-4.338,-4.6285,-4.9509,-5.0317,-5.0554,-5.0175,-5.0175,-4.9961,-4.958,-4.958,-4.9795,-5.0175,-5.0175,-5.0317,-5.0696,-5.0696,-5.0696,-5.0696,-5.0696,-5.0696,-5.0696,-5.0696,-5.0696,-5.0696,-5.0696,-5.0696,-5.0696,-3.856,-3.856,-3.856,-3.856,-3.8768,-3.8951,-3.919,-3.9355,-3.9612,-4.0115,-4.0171,-4.0226,-4.0373,-4.0391,-4.0318,-4.0171,-4.0171,-4.0097,-3.9932,-3.9612,-3.9465,-3.9465,-3.8933,-3.856,-3.856,-3.856,-3.856,-3.856,-3.856,-3.856,-3.856,-3.856,-3.856,-3.856,-3.856,-3.8719,-3.8877,-3.9193,-3.943,-3.9588,-3.9823,-3.9981,-4.0137,-4.0137,-4.0372,-4.0763,-4.0763,-4.0919,-4.1172,-4.1172,-4.1172,-4.1172,-4.1172,-4.1172,-4.1172,-4.1172,-4.1172,-4.1172,-4.1172,-4.1172,-4.1172,-4.1172,-4.1172,-4.1172,-4.1172,-4.1172,-4.1172,-4.1172,-4.1172,-4.1172,-4.1172,-4.1172,-4.1172,-4.1172,0.0,-4.1172,-4.1172,-4.1172,-4.1172,-4.1172,-4.0919,-4.0685,-4.0509,-4.0275,-4.0137,-4.0137,-3.9981,-4.0431,-4.1559,-4.3587,-4.5744,-4.79,-4.8286,-4.8887,-4.9723,-4.9723,-4.9652,-4.9509,-4.9509,-4.958,-4.9723,-4.9723,-4.9795,-4.9961,-4.9961,-5.0104,-5.0341,-5.0341,-5.0483,-5.0696,-5.0696,-5.0696,-5.0696,-5.0696,-5.0696,-5.0696,-3.856,-3.856,-3.856,-3.856,-3.856,-3.8652,-3.9006,-3.9043,-3.919,-3.9593,-3.9648,-3.9785,-3.9913,-3.9932,-3.9877,-3.9667,-3.9648,-3.9593,-3.9465,-3.9208,-3.9043,-3.9043,-3.8786,-3.856,-3.856,-3.856,-3.856,-3.856,-3.856,-3.856,-3.856,-3.856,-3.856,-3.856,-3.856,-3.856,-3.864,-3.8956,-3.9114,-3.9114,-3.9351,-3.9588,-3.9745,-3.9745,-3.9981,-4.0275,-4.0275,-4.0529,-4.0782,-4.0919,-4.0997,-4.0997,-4.1172,-4.1172,-4.1172,-4.1172,-4.1172,-4.1172,-4.1172,-4.1172,-4.1172,-4.1172,-4.1172,-4.1172,-4.1172,-4.1172,-4.1172,-4.1172,-4.1172,-4.1172,-4.1172,-4.1172,-4.1172,-4.1172,-4.1172,-4.1172,-4.1172,-4.1094,-4.0997,-4.0997,-4.0607,-4.0275,-4.0118,-3.9902,-3.9745,-3.9745,-3.9588,-4.0197,-4.1848,-4.2978,-4.4548,-4.6632,-4.6706,-4.7485,-4.915,-4.9317,-4.9317,-4.915,-4.915,-4.9221,-4.9317,-4.9317,-4.9365,-4.9509,-4.9509,-4.9652,-4.989,-4.989,-5.0104,-5.0317,-5.0317,-5.0412,-5.0483,-5.0412,-5.0412,-5.0483,-3.856,-3.856,-3.856,-3.856,-3.856,-3.856,-3.856,-3.856,-3.8707,-3.9171,-3.9226,-3.9373,-3.9877,-3.9913,-3.9667,-3.9263,-3.9226,-3.9061,-3.8597,-3.856,-3.856,-3.856,-3.856,-3.856,-3.856,-3.856,-3.856,-3.856,-3.856,-3.856,-3.856,-3.856,-3.856,-3.856,-3.856,-3.856,-3.856,-3.856,-3.856,-3.856,-3.856,-3.8877,-3.9272,-3.9272,-3.9509,-3.9902,-3.9902,-3.9902,-3.9981,-4.0353,-4.0509,-4.0588,-4.1016,-4.1172,-4.1172,-4.1172,-4.1172,-4.1172,-4.1172,-4.1172,-4.1172,-4.1172,-4.1172,-4.1172,-4.1172,-4.1172,-4.1172,-4.1172,-4.1172,-4.1172,-4.1172,-4.1172,-4.1172,-4.1172,-4.1172,-4.1172,-4.1172,-4.0763,-4.0509,-4.0509,-4.0137,-3.9745,-3.9351,-3.9272,-3.9272,-3.9272,-3.8877,-3.9333,-4.0958,-4.1113,-4.254,-4.5766,-4.5841,-4.6699,-4.8377,-4.8763,-4.8763,-4.84,-4.84,-4.8618,-4.898,-4.898,-4.9196,-4.9509,-4.9509,-4.9509,-4.9509,-4.9509,-4.9509,-4.9509,-4.9509,-4.9723,-5.0033,-4.9652,-4.9723,-5.0104,-3.856,-3.856,-3.856,-3.856,-3.856,-3.856,-3.856,-3.856,-3.8597,-3.8725,-3.8823,-3.886,-3.8988,-3.9006,-3.8951,-3.8743,-3.8823,-3.8768,-3.8658,-3.856,-3.856,-3.856,-3.856,-3.856,-3.856,-3.856,-3.856,-3.856,-3.856,-3.856,-3.856,-3.856,-3.856,-3.856,-3.856,-3.856,-3.856,-3.856,-3.856,-3.856,-3.856,-3.8719,-3.8798,-3.8798,-3.9114,-3.9509,-3.9509,-3.9666,-3.9902,-4.0059,-4.0059,-4.0137,-4.0216,-4.0294,-4.0372,-4.0607,-4.0529,-4.0391,-4.1016,-4.0919,-4.0763,-4.1094,-4.1172,-4.1172,-4.1172,-4.1172,-4.1172,-4.1172,-4.1172,-4.1172,-4.1172,-4.1172,-4.1094,-4.0763,-4.0685,-4.0607,-4.0294,-4.0137,-4.0059,-4.0059,-3.9745,-3.943,-3.9351,-3.9035,-3.8798,-3.8798,-3.8719,-3.8798,-3.9333,-3.9333,-4.0315,-4.2463,-4.254,-4.3815,-4.6625,-4.7918,-4.8546,-4.84,-4.84,-4.8473,-4.8618,-4.8618,-4.8618,-4.874,-4.874,-4.8884,-4.9124,-4.9124,-4.9317,-4.9509,-4.9509,-4.958,-4.9652,-4.9509,-4.958,-4.9652,-3.856,-3.856,-3.856,-3.856,-3.856,-3.856,-3.856,-3.856,-3.856,-3.856,-3.856,-3.856,-3.856,-3.856,-3.856,-3.856,-3.856,-3.856,-3.856,-3.856,-3.856,-3.856,-3.856,-3.856,-3.856,-3.856,-3.856,-3.856,-3.856,-3.856,-3.856,-3.856,-3.856,-3.856,-3.856,-3.856,-3.856,-3.856,-3.856,-3.856,-3.856,-3.856,-3.856,-3.856,-3.8798,-3.9035,-3.9035,-3.9193,-3.943,-3.9588,-3.9745,-3.9902,-3.9902,-3.9902,-3.9981,-4.0216,-4.0059,-3.9981,-4.0529,-4.0451,-4.0372,-4.0607,-4.0782,-4.0841,-4.0704,-4.0704,-4.0704,-4.0704,-4.0704,-4.0704,-4.0704,-4.0704,-4.0607,-4.0294,-4.0275,-4.0216,-3.9902,-3.9745,-3.9666,-3.9666,-3.9272,-3.9035,-3.9035,-3.8798,-3.856,-3.856,-3.856,-3.856,-3.856,-3.856,-3.9333,-4.1035,-4.1113,-4.2309,-4.4945,-4.6625,-4.7772,-4.84,-4.84,-4.84,-4.84,-4.84,-4.84,-4.84,-4.84,-4.8546,-4.8763,-4.8763,-4.8884,-4.9078,-4.9078,-4.9173,-4.9317,-4.9101,-4.9173,-4.9317,-3.856,-3.856,-3.856,-3.856,-3.856,-3.856,-3.856,-3.856,-3.856,-3.856,-3.856,-3.856,-3.856,-3.856,-3.856,-3.856,-3.856,-3.856,-3.856,-3.856,-3.856,-3.856,-3.856,-3.856,-3.856,-3.856,-3.856,-3.856,-3.856,-3.856,-3.856,-3.856,-3.856,-3.856,-3.856,-3.856,-3.856,-3.856,-3.856,-3.856,-3.856,-3.856,-3.856,-3.856,-3.856,-3.856,-3.856,-3.856,-3.864,-3.9114,-3.9509,-3.9745,-3.9745,-3.9745,-3.9823,-3.9823,-3.9823,-3.9823,-3.9902,-3.9902,-3.9823,-3.9823,-4.0118,-4.0275,-3.9981,-3.9902,-3.9902,-3.9902,-3.9902,-3.9902,-3.9902,-3.9902,-3.9902,-3.9823,-3.9823,-3.9823,-3.9823,-3.9509,-3.9272,-3.9272,-3.8877,-3.856,-3.856,-3.856,-3.856,-3.856,-3.856,-3.856,-3.856,-3.856,-3.9333,-4.0802,-4.088,-4.1616,-4.3263,-4.472,-4.6381,-4.8159,-4.8305,-4.84,-4.84,-4.84,-4.84,-4.84,-4.84,-4.84,-4.84,-4.84,-4.84,-4.84,-4.84,-4.8618,-4.8908,-4.8546,-4.8618,-4.8931,-3.856,-3.856,-3.856,-3.856,-3.856,-3.856,-3.856,-3.856,-3.856,-3.856,-3.856,-3.856,-3.856,-3.856,-3.856,-3.856,-3.856,-3.856,-3.856,-3.856,-3.856,-3.856,-3.856,-3.856,-3.856,-3.856,-3.856,-3.856,-3.856,-3.856,-3.856,-3.856,-3.856,-3.856,-3.856,-3.856,-3.856,-3.856,-3.856,-3.856,-3.856,-3.856,-3.856,-3.856,-3.856,-3.856,-3.856,-3.856,-3.864,-3.8719,-3.8798,-3.8877,-3.8877,-3.8877,-3.8956,-3.9351,-3.9193,-3.9035,-3.9745,-3.9666,-3.943,-3.943,-3.9509,-3.9666,-3.9823,-3.9902,-3.9902,-3.9902,-3.9902,-3.9902,-3.9902,-3.9902,-3.9823,-3.9509,-3.943,-3.9272,-3.8956,-3.8798,-3.8719,-3.8719,-3.864,-3.856,-3.856,-3.856,-3.856,-3.856,-3.856,-3.856,-3.856,-3.856,-3.8798,-3.9096,-3.9096,-3.9943,-4.1636,-4.1925,-4.3587,-4.6455,-4.7772,-4.84,-4.84,-4.84,-4.84,-4.84,-4.84,-4.84,-4.84,-4.84,-4.84,-4.84,-4.84,-4.8473,-4.8546,-4.8473,-4.8473,-4.8546,-3.856,-3.856,-3.856,-3.856,-3.856,-3.856,-3.856,-3.856,-3.856,-3.856,-3.856,-3.856,-3.856,-3.856,-3.856,-3.856,-3.856,-3.856,-3.856,-3.856,-3.856,-3.856,-3.856,-3.856,-3.856,-3.856,-3.856,-3.856,-3.856,-3.856,-3.856,-3.856,-3.856,-3.856,-3.856,-3.856,-3.856,-3.856,-3.856,-3.856,-3.856,-3.856,-3.856,-3.856,-3.856,-3.856,-3.856,-3.856,-3.856,-3.856,-3.856,-3.856,-3.856,-3.856,-3.864,-3.8877,-3.8798,-3.8719,-3.9193,-3.9114,-3.8956,-3.8956,-3.8956,-3.9035,-3.9193,-3.9272,-3.9272,-3.9272,-3.9272,-3.9272,-3.9272,-3.9272,-3.9193,-3.9035,-3.8956,-3.8877,-3.864,-3.856,-3.856,-3.856,-3.856,-3.856,-3.856,-3.856,-3.856,-3.856,-3.856,-3.856,-3.856,-3.856,-3.856,-3.856,-3.856,-3.9035,-3.9883,-4.0724,-4.1925,-4.3663,-4.6011,-4.7626,-4.84,-4.84,-4.84,-4.84,-4.84,-4.84,-4.84,-4.84,-4.84,-4.84,-4.84,-4.84,-4.84,-4.84,-4.84,-4.84,-3.856,-3.856,-3.856,-3.856,-3.856,-3.856,-3.856,-3.856,-3.856,-3.856,-3.856,-3.856,-3.856,-3.856,-3.856,-3.856,-3.856,-3.856,-3.856,-3.856,-3.856,-3.856,-3.856,-3.856,-3.856,-3.856,-3.856,-3.856,-3.856,-3.856,-3.856,-3.856,-3.856,-3.856,-3.856,-3.856,-3.856,-3.856,-3.856,-3.856,-3.856,-3.856,-3.856,-3.856,-3.856,-3.856,-3.856,-3.856,-3.856,-3.856,-3.856,-3.856,-3.856,-3.856,-3.856,-3.856,-3.856,-3.856,-3.856,-3.856,-3.856,-3.856,-3.856,-3.856,-3.856,-3.856,-3.856,-3.856,-3.856,-3.856,-3.856,-3.856,-3.856,-3.856,-3.856,-3.856,-3.856,-3.856,-3.856,-3.856,-3.856,-3.856,-3.856,-3.856,-3.856,-3.856,-3.856,-3.856,-3.856,-3.856,-3.856,-3.856,-3.856,-3.856,-3.856,-3.9943,-4.0802,-4.1113,-4.3815,-4.5937,-4.7552,-4.7845,-4.8013,-4.8013,-4.8305,-4.84,-4.84,-4.84,-4.84,-4.84,-4.84,-4.84,-4.84,-4.84,-4.84,-4.84,-3.856,-3.856,-3.856,-3.856,-3.856,-3.856,-3.856,-3.856,-3.856,-3.856,-3.856,-3.856,-3.856,-3.856,-3.856,-3.856,-3.856,-3.856,-3.856,-3.856,-3.856,-3.856,-3.856,-3.856,-3.856,-3.856,-3.856,-3.856,-3.856,-3.856,-3.856,-3.856,-3.856,-3.856,-3.856,-3.856,-3.856,-3.856,-3.856,-3.856,-3.856,-3.856,-3.856,-3.856,-3.856,-3.856,-3.856,-3.856,-3.856,-3.856,-3.856,-3.856,-3.856,-3.856,-3.856,-3.856,-3.856,-3.856,-3.856,-3.856,-3.856,-3.856,-3.856,-3.856,-3.856,-3.856,-3.856,-3.856,-3.856,-3.856,-3.856,-3.856,-3.856,-3.856,-3.856,-3.856,-3.856,-3.856,-3.856,-3.856,-3.856,-3.856,-3.856,-3.856,-3.856,-3.856,-3.856,-3.856,-3.856,-3.856,-3.856,-3.856,-3.856,-3.856,-3.856,-3.8798,-3.9647,-4.1113,-4.1559,-4.2616,-4.4172,-4.5617,-4.6233,-4.6307,-4.7772,-4.84,-4.84,-4.84,-4.84,-4.84,-4.84,-4.84,-4.84,-4.84,-4.84,-4.84,-3.856,-3.856,-3.856,-3.856,-3.856,-3.856,-3.856,-3.856,-3.856,-3.856,-3.856,-3.856,-3.856,-3.856,-3.856,-3.856,-3.856,-3.856,-3.856,-3.856,-3.856,-3.856,-3.856,-3.856,-3.856,-3.856,-3.856,-3.856,-3.856,-3.856,-3.856,-3.856,-3.856,-3.856,-3.856,-3.856,-3.856,-3.856,-3.856,-3.856,-3.856,-3.856,-3.856,-3.856,-3.856,-3.856,-3.856,-3.856,-3.856,-3.856,-3.856,-3.856,-3.856,-3.856,-3.856,-3.856,-3.856,-3.856,-3.856,-3.856,-3.856,-3.856,-3.856,-3.856,-3.856,-3.856,-3.856,-3.856,-3.856,-3.856,-3.856,-3.856,-3.856,-3.856,-3.856,-3.856,-3.856,-3.856,-3.856,-3.856,-3.856,-3.856,-3.856,-3.856,-3.856,-3.856,-3.856,-3.856,-3.856,-3.856,-3.856,-3.856,-3.856,-3.856,-3.856,-3.856,-3.8956,-3.9726,-3.9726,-4.0996,-4.3491,-4.4247,-4.4548,-4.4623,-4.5319,-4.5639,-4.5639,-4.5639,-4.6159,-4.6994,-4.6994,-4.7626,-4.84,-4.84,-4.84,-4.84]}]]